<?xml version="1.0" encoding="utf-8"?>
<gpx xmlns:xsi="http://www.w3.org/2001/XMLSchema-instance" xmlns:xsd="http://www.w3.org/2001/XMLSchema" version="1.1" creator="Shapelink.com" xmlns="http://www.topografix.com/GPX/1/1" xmlns:gpxtpx="http://www.garmin.com/xmlschemas/TrackPointExtension/v1">
  <metadata>
    <name>Andet 3.19 km, 2016-04-30</name>
    <desc></desc>
    <author><name>Stein Falk-Larssen</name></author> 
    <time>1970-01-01T01:00:00Z</time>
  </metadata>
  <trk>
    <name>Andet 3.19 km, 2016-04-30</name>
    <trkseg>
      <trkpt lat="63.41248533" lon="10.471936">
        <ele>0</ele>
        <time>1970-01-01T01:00:00Z</time>
      </trkpt>
      <trkpt lat="63.412483" lon="10.47193683">
        <ele>0</ele>
        <time>1970-01-01T01:00:00Z</time>
      </trkpt>
      <trkpt lat="63.41247883" lon="10.47194117">
        <ele>0</ele>
        <time>1970-01-01T01:00:00Z</time>
      </trkpt>
      <trkpt lat="63.41247317" lon="10.471941">
        <ele>0</ele>
        <time>1970-01-01T01:00:00Z</time>
      </trkpt>
      <trkpt lat="63.41246917" lon="10.47193617">
        <ele>0</ele>
        <time>1970-01-01T01:00:00Z</time>
      </trkpt>
      <trkpt lat="63.41246567" lon="10.47191683">
        <ele>0</ele>
        <time>1970-01-01T01:00:00Z</time>
      </trkpt>
      <trkpt lat="63.41246183" lon="10.47189333">
        <ele>0</ele>
        <time>1970-01-01T01:00:00Z</time>
      </trkpt>
      <trkpt lat="63.41245567" lon="10.4718715">
        <ele>0</ele>
        <time>1970-01-01T01:00:00Z</time>
      </trkpt>
      <trkpt lat="63.4124485" lon="10.471858">
        <ele>0</ele>
        <time>1970-01-01T01:00:00Z</time>
      </trkpt>
      <trkpt lat="63.41244067" lon="10.47184867">
        <ele>0</ele>
        <time>1970-01-01T01:00:00Z</time>
      </trkpt>
      <trkpt lat="63.41243183" lon="10.471842">
        <ele>0</ele>
        <time>1970-01-01T01:00:00Z</time>
      </trkpt>
      <trkpt lat="63.41242183" lon="10.4718365">
        <ele>0</ele>
        <time>1970-01-01T01:00:00Z</time>
      </trkpt>
      <trkpt lat="63.41241083" lon="10.47182883">
        <ele>0</ele>
        <time>1970-01-01T01:00:00Z</time>
      </trkpt>
      <trkpt lat="63.41239983" lon="10.47182283">
        <ele>0</ele>
        <time>1970-01-01T01:00:00Z</time>
      </trkpt>
      <trkpt lat="63.41238817" lon="10.4718175">
        <ele>0</ele>
        <time>1970-01-01T01:00:00Z</time>
      </trkpt>
      <trkpt lat="63.41237667" lon="10.4718135">
        <ele>0</ele>
        <time>1970-01-01T01:00:00Z</time>
      </trkpt>
      <trkpt lat="63.4123645" lon="10.47181117">
        <ele>0</ele>
        <time>1970-01-01T01:00:00Z</time>
      </trkpt>
      <trkpt lat="63.4123525" lon="10.47180883">
        <ele>0</ele>
        <time>1970-01-01T01:00:00Z</time>
      </trkpt>
      <trkpt lat="63.41234017" lon="10.47180933">
        <ele>0</ele>
        <time>1970-01-01T01:00:00Z</time>
      </trkpt>
      <trkpt lat="63.412327" lon="10.47181133">
        <ele>0</ele>
        <time>1970-01-01T01:00:00Z</time>
      </trkpt>
      <trkpt lat="63.4123135" lon="10.47181517">
        <ele>0</ele>
        <time>1970-01-01T01:00:00Z</time>
      </trkpt>
      <trkpt lat="63.41229867" lon="10.471818">
        <ele>0</ele>
        <time>1970-01-01T01:00:00Z</time>
      </trkpt>
      <trkpt lat="63.41228533" lon="10.47182033">
        <ele>0</ele>
        <time>1970-01-01T01:00:00Z</time>
      </trkpt>
      <trkpt lat="63.41227183" lon="10.47182267">
        <ele>0</ele>
        <time>1970-01-01T01:00:00Z</time>
      </trkpt>
      <trkpt lat="63.412259" lon="10.4718215">
        <ele>0</ele>
        <time>1970-01-01T01:00:00Z</time>
      </trkpt>
      <trkpt lat="63.41224617" lon="10.471819">
        <ele>0</ele>
        <time>1970-01-01T01:00:00Z</time>
      </trkpt>
      <trkpt lat="63.41223367" lon="10.47181817">
        <ele>0</ele>
        <time>1970-01-01T01:00:00Z</time>
      </trkpt>
      <trkpt lat="63.41222083" lon="10.471821">
        <ele>0</ele>
        <time>1970-01-01T01:00:00Z</time>
      </trkpt>
      <trkpt lat="63.41220667" lon="10.47182483">
        <ele>0</ele>
        <time>1970-01-01T01:00:00Z</time>
      </trkpt>
      <trkpt lat="63.41219317" lon="10.47182733">
        <ele>0</ele>
        <time>1970-01-01T01:00:00Z</time>
      </trkpt>
      <trkpt lat="63.41217917" lon="10.47183017">
        <ele>0</ele>
        <time>1970-01-01T01:00:00Z</time>
      </trkpt>
      <trkpt lat="63.41216617" lon="10.47183433">
        <ele>0</ele>
        <time>1970-01-01T01:00:00Z</time>
      </trkpt>
      <trkpt lat="63.412153" lon="10.47183683">
        <ele>0</ele>
        <time>1970-01-01T01:00:00Z</time>
      </trkpt>
      <trkpt lat="63.41213983" lon="10.47183867">
        <ele>0</ele>
        <time>1970-01-01T01:00:00Z</time>
      </trkpt>
      <trkpt lat="63.412127" lon="10.47183883">
        <ele>0</ele>
        <time>1970-01-01T01:00:00Z</time>
      </trkpt>
      <trkpt lat="63.4121145" lon="10.471841">
        <ele>0</ele>
        <time>1970-01-01T01:00:00Z</time>
      </trkpt>
      <trkpt lat="63.4121025" lon="10.47184433">
        <ele>0</ele>
        <time>1970-01-01T01:00:00Z</time>
      </trkpt>
      <trkpt lat="63.41209117" lon="10.4718455">
        <ele>0</ele>
        <time>1970-01-01T01:00:00Z</time>
      </trkpt>
      <trkpt lat="63.41207967" lon="10.47184667">
        <ele>0</ele>
        <time>1970-01-01T01:00:00Z</time>
      </trkpt>
      <trkpt lat="63.41206817" lon="10.47184617">
        <ele>0</ele>
        <time>1970-01-01T01:00:00Z</time>
      </trkpt>
      <trkpt lat="63.41205667" lon="10.47184717">
        <ele>0</ele>
        <time>1970-01-01T01:00:00Z</time>
      </trkpt>
      <trkpt lat="63.41204517" lon="10.471847">
        <ele>0</ele>
        <time>1970-01-01T01:00:00Z</time>
      </trkpt>
      <trkpt lat="63.41203267" lon="10.47184683">
        <ele>0</ele>
        <time>1970-01-01T01:00:00Z</time>
      </trkpt>
      <trkpt lat="63.41202" lon="10.47184617">
        <ele>0</ele>
        <time>1970-01-01T01:00:00Z</time>
      </trkpt>
      <trkpt lat="63.41200483" lon="10.47184567">
        <ele>0</ele>
        <time>1970-01-01T01:00:00Z</time>
      </trkpt>
      <trkpt lat="63.41199217" lon="10.4718435">
        <ele>0</ele>
        <time>1970-01-01T01:00:00Z</time>
      </trkpt>
      <trkpt lat="63.41197867" lon="10.47183867">
        <ele>0</ele>
        <time>1970-01-01T01:00:00Z</time>
      </trkpt>
      <trkpt lat="63.41196617" lon="10.47183067">
        <ele>0</ele>
        <time>1970-01-01T01:00:00Z</time>
      </trkpt>
      <trkpt lat="63.4119515" lon="10.4718225">
        <ele>0</ele>
        <time>1970-01-01T01:00:00Z</time>
      </trkpt>
      <trkpt lat="63.41193817" lon="10.47180583">
        <ele>0</ele>
        <time>1970-01-01T01:00:00Z</time>
      </trkpt>
      <trkpt lat="63.41192683" lon="10.47178633">
        <ele>0</ele>
        <time>1970-01-01T01:00:00Z</time>
      </trkpt>
      <trkpt lat="63.41191683" lon="10.47176367">
        <ele>0</ele>
        <time>1970-01-01T01:00:00Z</time>
      </trkpt>
      <trkpt lat="63.41190617" lon="10.47174583">
        <ele>0</ele>
        <time>1970-01-01T01:00:00Z</time>
      </trkpt>
      <trkpt lat="63.41189517" lon="10.4717245">
        <ele>0</ele>
        <time>1970-01-01T01:00:00Z</time>
      </trkpt>
      <trkpt lat="63.4118835" lon="10.47170083">
        <ele>0</ele>
        <time>1970-01-01T01:00:00Z</time>
      </trkpt>
      <trkpt lat="63.41187133" lon="10.471675">
        <ele>0</ele>
        <time>1970-01-01T01:00:00Z</time>
      </trkpt>
      <trkpt lat="63.4118595" lon="10.47164933">
        <ele>0</ele>
        <time>1970-01-01T01:00:00Z</time>
      </trkpt>
      <trkpt lat="63.411848" lon="10.4716245">
        <ele>0</ele>
        <time>1970-01-01T01:00:00Z</time>
      </trkpt>
      <trkpt lat="63.41183867" lon="10.471599">
        <ele>0</ele>
        <time>1970-01-01T01:00:00Z</time>
      </trkpt>
      <trkpt lat="63.41182917" lon="10.47157317">
        <ele>0</ele>
        <time>1970-01-01T01:00:00Z</time>
      </trkpt>
      <trkpt lat="63.41182" lon="10.47154133">
        <ele>0</ele>
        <time>1970-01-01T01:00:00Z</time>
      </trkpt>
      <trkpt lat="63.4118085" lon="10.47150967">
        <ele>0</ele>
        <time>1970-01-01T01:00:00Z</time>
      </trkpt>
      <trkpt lat="63.4117975" lon="10.47148067">
        <ele>0</ele>
        <time>1970-01-01T01:00:00Z</time>
      </trkpt>
      <trkpt lat="63.4117855" lon="10.47145567">
        <ele>0</ele>
        <time>1970-01-01T01:00:00Z</time>
      </trkpt>
      <trkpt lat="63.41177317" lon="10.4714315">
        <ele>0</ele>
        <time>1970-01-01T01:00:00Z</time>
      </trkpt>
      <trkpt lat="63.41176067" lon="10.47140617">
        <ele>0</ele>
        <time>1970-01-01T01:00:00Z</time>
      </trkpt>
      <trkpt lat="63.411748" lon="10.47138283">
        <ele>0</ele>
        <time>1970-01-01T01:00:00Z</time>
      </trkpt>
      <trkpt lat="63.41173533" lon="10.47136233">
        <ele>0</ele>
        <time>1970-01-01T01:00:00Z</time>
      </trkpt>
      <trkpt lat="63.41172317" lon="10.471342">
        <ele>0</ele>
        <time>1970-01-01T01:00:00Z</time>
      </trkpt>
      <trkpt lat="63.41171067" lon="10.47132367">
        <ele>0</ele>
        <time>1970-01-01T01:00:00Z</time>
      </trkpt>
      <trkpt lat="63.411697" lon="10.47131233">
        <ele>0</ele>
        <time>1970-01-01T01:00:00Z</time>
      </trkpt>
      <trkpt lat="63.41168333" lon="10.471307">
        <ele>0</ele>
        <time>1970-01-01T01:00:00Z</time>
      </trkpt>
      <trkpt lat="63.411669" lon="10.47130617">
        <ele>0</ele>
        <time>1970-01-01T01:00:00Z</time>
      </trkpt>
      <trkpt lat="63.41165517" lon="10.47130333">
        <ele>0</ele>
        <time>1970-01-01T01:00:00Z</time>
      </trkpt>
      <trkpt lat="63.41164067" lon="10.47129967">
        <ele>0</ele>
        <time>1970-01-01T01:00:00Z</time>
      </trkpt>
      <trkpt lat="63.41162767" lon="10.47129167">
        <ele>0</ele>
        <time>1970-01-01T01:00:00Z</time>
      </trkpt>
      <trkpt lat="63.41161617" lon="10.47128283">
        <ele>0</ele>
        <time>1970-01-01T01:00:00Z</time>
      </trkpt>
      <trkpt lat="63.411604" lon="10.47127233">
        <ele>0</ele>
        <time>1970-01-01T01:00:00Z</time>
      </trkpt>
      <trkpt lat="63.41159017" lon="10.4712635">
        <ele>0</ele>
        <time>1970-01-01T01:00:00Z</time>
      </trkpt>
      <trkpt lat="63.41157633" lon="10.4712525">
        <ele>0</ele>
        <time>1970-01-01T01:00:00Z</time>
      </trkpt>
      <trkpt lat="63.41156117" lon="10.47124067">
        <ele>0</ele>
        <time>1970-01-01T01:00:00Z</time>
      </trkpt>
      <trkpt lat="63.4115485" lon="10.47123133">
        <ele>0</ele>
        <time>1970-01-01T01:00:00Z</time>
      </trkpt>
      <trkpt lat="63.41153567" lon="10.47121667">
        <ele>0</ele>
        <time>1970-01-01T01:00:00Z</time>
      </trkpt>
      <trkpt lat="63.41152517" lon="10.47120417">
        <ele>0</ele>
        <time>1970-01-01T01:00:00Z</time>
      </trkpt>
      <trkpt lat="63.4115135" lon="10.47118933">
        <ele>0</ele>
        <time>1970-01-01T01:00:00Z</time>
      </trkpt>
      <trkpt lat="63.411502" lon="10.471181">
        <ele>0</ele>
        <time>1970-01-01T01:00:00Z</time>
      </trkpt>
      <trkpt lat="63.41149183" lon="10.47116917">
        <ele>0</ele>
        <time>1970-01-01T01:00:00Z</time>
      </trkpt>
      <trkpt lat="63.41148083" lon="10.47115733">
        <ele>0</ele>
        <time>1970-01-01T01:00:00Z</time>
      </trkpt>
      <trkpt lat="63.41146867" lon="10.4711425">
        <ele>0</ele>
        <time>1970-01-01T01:00:00Z</time>
      </trkpt>
      <trkpt lat="63.41145583" lon="10.47112517">
        <ele>0</ele>
        <time>1970-01-01T01:00:00Z</time>
      </trkpt>
      <trkpt lat="63.411442" lon="10.47109967">
        <ele>0</ele>
        <time>1970-01-01T01:00:00Z</time>
      </trkpt>
      <trkpt lat="63.411429" lon="10.47107533">
        <ele>0</ele>
        <time>1970-01-01T01:00:00Z</time>
      </trkpt>
      <trkpt lat="63.41141567" lon="10.47105417">
        <ele>0</ele>
        <time>1970-01-01T01:00:00Z</time>
      </trkpt>
      <trkpt lat="63.41140267" lon="10.4710385">
        <ele>0</ele>
        <time>1970-01-01T01:00:00Z</time>
      </trkpt>
      <trkpt lat="63.411389" lon="10.471022">
        <ele>0</ele>
        <time>1970-01-01T01:00:00Z</time>
      </trkpt>
      <trkpt lat="63.41137267" lon="10.471003">
        <ele>0</ele>
        <time>1970-01-01T01:00:00Z</time>
      </trkpt>
      <trkpt lat="63.411356" lon="10.47098067">
        <ele>0</ele>
        <time>1970-01-01T01:00:00Z</time>
      </trkpt>
      <trkpt lat="63.41133967" lon="10.47095667">
        <ele>0</ele>
        <time>1970-01-01T01:00:00Z</time>
      </trkpt>
      <trkpt lat="63.41132683" lon="10.47093533">
        <ele>0</ele>
        <time>1970-01-01T01:00:00Z</time>
      </trkpt>
      <trkpt lat="63.411315" lon="10.470916">
        <ele>0</ele>
        <time>1970-01-01T01:00:00Z</time>
      </trkpt>
      <trkpt lat="63.41130417" lon="10.470898">
        <ele>0</ele>
        <time>1970-01-01T01:00:00Z</time>
      </trkpt>
      <trkpt lat="63.4112915" lon="10.47087883">
        <ele>0</ele>
        <time>1970-01-01T01:00:00Z</time>
      </trkpt>
      <trkpt lat="63.41127917" lon="10.4708595">
        <ele>0</ele>
        <time>1970-01-01T01:00:00Z</time>
      </trkpt>
      <trkpt lat="63.411267" lon="10.47084133">
        <ele>0</ele>
        <time>1970-01-01T01:00:00Z</time>
      </trkpt>
      <trkpt lat="63.41125633" lon="10.47082567">
        <ele>0</ele>
        <time>1970-01-01T01:00:00Z</time>
      </trkpt>
      <trkpt lat="63.41124633" lon="10.47080717">
        <ele>0</ele>
        <time>1970-01-01T01:00:00Z</time>
      </trkpt>
      <trkpt lat="63.4112375" lon="10.47078633">
        <ele>0</ele>
        <time>1970-01-01T01:00:00Z</time>
      </trkpt>
      <trkpt lat="63.4112275" lon="10.47075933">
        <ele>0</ele>
        <time>1970-01-01T01:00:00Z</time>
      </trkpt>
      <trkpt lat="63.41121917" lon="10.47073083">
        <ele>0</ele>
        <time>1970-01-01T01:00:00Z</time>
      </trkpt>
      <trkpt lat="63.4112085" lon="10.470705">
        <ele>0</ele>
        <time>1970-01-01T01:00:00Z</time>
      </trkpt>
      <trkpt lat="63.41119983" lon="10.47068133">
        <ele>0</ele>
        <time>1970-01-01T01:00:00Z</time>
      </trkpt>
      <trkpt lat="63.4111915" lon="10.470663">
        <ele>0</ele>
        <time>1970-01-01T01:00:00Z</time>
      </trkpt>
      <trkpt lat="63.41117783" lon="10.47064467">
        <ele>0</ele>
        <time>1970-01-01T01:00:00Z</time>
      </trkpt>
      <trkpt lat="63.411163" lon="10.47062767">
        <ele>0</ele>
        <time>1970-01-01T01:00:00Z</time>
      </trkpt>
      <trkpt lat="63.411147" lon="10.470609">
        <ele>0</ele>
        <time>1970-01-01T01:00:00Z</time>
      </trkpt>
      <trkpt lat="63.41113667" lon="10.470593">
        <ele>0</ele>
        <time>1970-01-01T01:00:00Z</time>
      </trkpt>
      <trkpt lat="63.41112683" lon="10.47057583">
        <ele>0</ele>
        <time>1970-01-01T01:00:00Z</time>
      </trkpt>
      <trkpt lat="63.41111517" lon="10.47055183">
        <ele>0</ele>
        <time>1970-01-01T01:00:00Z</time>
      </trkpt>
      <trkpt lat="63.41110417" lon="10.47052833">
        <ele>0</ele>
        <time>1970-01-01T01:00:00Z</time>
      </trkpt>
      <trkpt lat="63.41109233" lon="10.47050467">
        <ele>0</ele>
        <time>1970-01-01T01:00:00Z</time>
      </trkpt>
      <trkpt lat="63.41108383" lon="10.470493">
        <ele>0</ele>
        <time>1970-01-01T01:00:00Z</time>
      </trkpt>
      <trkpt lat="63.411076" lon="10.4704795">
        <ele>0</ele>
        <time>1970-01-01T01:00:00Z</time>
      </trkpt>
      <trkpt lat="63.41106917" lon="10.4704655">
        <ele>0</ele>
        <time>1970-01-01T01:00:00Z</time>
      </trkpt>
      <trkpt lat="63.41106167" lon="10.47044483">
        <ele>0</ele>
        <time>1970-01-01T01:00:00Z</time>
      </trkpt>
      <trkpt lat="63.41105417" lon="10.47042133">
        <ele>0</ele>
        <time>1970-01-01T01:00:00Z</time>
      </trkpt>
      <trkpt lat="63.4110465" lon="10.470402">
        <ele>0</ele>
        <time>1970-01-01T01:00:00Z</time>
      </trkpt>
      <trkpt lat="63.4110375" lon="10.47038767">
        <ele>0</ele>
        <time>1970-01-01T01:00:00Z</time>
      </trkpt>
      <trkpt lat="63.411028" lon="10.47037217">
        <ele>0</ele>
        <time>1970-01-01T01:00:00Z</time>
      </trkpt>
      <trkpt lat="63.411018" lon="10.4703535">
        <ele>0</ele>
        <time>1970-01-01T01:00:00Z</time>
      </trkpt>
      <trkpt lat="63.411008" lon="10.47033233">
        <ele>0</ele>
        <time>1970-01-01T01:00:00Z</time>
      </trkpt>
      <trkpt lat="63.41100117" lon="10.47031083">
        <ele>0</ele>
        <time>1970-01-01T01:00:00Z</time>
      </trkpt>
      <trkpt lat="63.41099533" lon="10.47029133">
        <ele>0</ele>
        <time>1970-01-01T01:00:00Z</time>
      </trkpt>
      <trkpt lat="63.41098867" lon="10.47027383">
        <ele>0</ele>
        <time>1970-01-01T01:00:00Z</time>
      </trkpt>
      <trkpt lat="63.41097867" lon="10.47026167">
        <ele>0</ele>
        <time>1970-01-01T01:00:00Z</time>
      </trkpt>
      <trkpt lat="63.410968" lon="10.470248">
        <ele>0</ele>
        <time>1970-01-01T01:00:00Z</time>
      </trkpt>
      <trkpt lat="63.41095517" lon="10.47023383">
        <ele>0</ele>
        <time>1970-01-01T01:00:00Z</time>
      </trkpt>
      <trkpt lat="63.41094083" lon="10.470219">
        <ele>0</ele>
        <time>1970-01-01T01:00:00Z</time>
      </trkpt>
      <trkpt lat="63.41092483" lon="10.47020717">
        <ele>0</ele>
        <time>1970-01-01T01:00:00Z</time>
      </trkpt>
      <trkpt lat="63.41091117" lon="10.47019983">
        <ele>0</ele>
        <time>1970-01-01T01:00:00Z</time>
      </trkpt>
      <trkpt lat="63.41089867" lon="10.47019417">
        <ele>0</ele>
        <time>1970-01-01T01:00:00Z</time>
      </trkpt>
      <trkpt lat="63.4108875" lon="10.470191">
        <ele>0</ele>
        <time>1970-01-01T01:00:00Z</time>
      </trkpt>
      <trkpt lat="63.41087667" lon="10.47018533">
        <ele>0</ele>
        <time>1970-01-01T01:00:00Z</time>
      </trkpt>
      <trkpt lat="63.41086683" lon="10.47017983">
        <ele>0</ele>
        <time>1970-01-01T01:00:00Z</time>
      </trkpt>
      <trkpt lat="63.41085583" lon="10.47017533">
        <ele>0</ele>
        <time>1970-01-01T01:00:00Z</time>
      </trkpt>
      <trkpt lat="63.4108445" lon="10.47017183">
        <ele>0</ele>
        <time>1970-01-01T01:00:00Z</time>
      </trkpt>
      <trkpt lat="63.41083283" lon="10.47017">
        <ele>0</ele>
        <time>1970-01-01T01:00:00Z</time>
      </trkpt>
      <trkpt lat="63.41082" lon="10.47017033">
        <ele>0</ele>
        <time>1970-01-01T01:00:00Z</time>
      </trkpt>
      <trkpt lat="63.41080633" lon="10.47016917">
        <ele>0</ele>
        <time>1970-01-01T01:00:00Z</time>
      </trkpt>
      <trkpt lat="63.41078967" lon="10.470171">
        <ele>0</ele>
        <time>1970-01-01T01:00:00Z</time>
      </trkpt>
      <trkpt lat="63.41077333" lon="10.47016967">
        <ele>0</ele>
        <time>1970-01-01T01:00:00Z</time>
      </trkpt>
      <trkpt lat="63.41075967" lon="10.47016667">
        <ele>0</ele>
        <time>1970-01-01T01:00:00Z</time>
      </trkpt>
      <trkpt lat="63.4107495" lon="10.47015633">
        <ele>0</ele>
        <time>1970-01-01T01:00:00Z</time>
      </trkpt>
      <trkpt lat="63.41073933" lon="10.4701465">
        <ele>0</ele>
        <time>1970-01-01T01:00:00Z</time>
      </trkpt>
      <trkpt lat="63.41072383" lon="10.47013867">
        <ele>0</ele>
        <time>1970-01-01T01:00:00Z</time>
      </trkpt>
      <trkpt lat="63.410706" lon="10.47013717">
        <ele>0</ele>
        <time>1970-01-01T01:00:00Z</time>
      </trkpt>
      <trkpt lat="63.41068867" lon="10.4701295">
        <ele>0</ele>
        <time>1970-01-01T01:00:00Z</time>
      </trkpt>
      <trkpt lat="63.410672" lon="10.47012717">
        <ele>0</ele>
        <time>1970-01-01T01:00:00Z</time>
      </trkpt>
      <trkpt lat="63.41065533" lon="10.47012817">
        <ele>0</ele>
        <time>1970-01-01T01:00:00Z</time>
      </trkpt>
      <trkpt lat="63.41064033" lon="10.47014233">
        <ele>0</ele>
        <time>1970-01-01T01:00:00Z</time>
      </trkpt>
      <trkpt lat="63.41063133" lon="10.47016383">
        <ele>0</ele>
        <time>1970-01-01T01:00:00Z</time>
      </trkpt>
      <trkpt lat="63.410626" lon="10.47018617">
        <ele>0</ele>
        <time>1970-01-01T01:00:00Z</time>
      </trkpt>
      <trkpt lat="63.41062083" lon="10.47021217">
        <ele>0</ele>
        <time>1970-01-01T01:00:00Z</time>
      </trkpt>
      <trkpt lat="63.41061467" lon="10.47023683">
        <ele>0</ele>
        <time>1970-01-01T01:00:00Z</time>
      </trkpt>
      <trkpt lat="63.4106085" lon="10.470262">
        <ele>0</ele>
        <time>1970-01-01T01:00:00Z</time>
      </trkpt>
      <trkpt lat="63.410603" lon="10.47028817">
        <ele>0</ele>
        <time>1970-01-01T01:00:00Z</time>
      </trkpt>
      <trkpt lat="63.41059867" lon="10.47031383">
        <ele>0</ele>
        <time>1970-01-01T01:00:00Z</time>
      </trkpt>
      <trkpt lat="63.41059633" lon="10.470347">
        <ele>0</ele>
        <time>1970-01-01T01:00:00Z</time>
      </trkpt>
      <trkpt lat="63.41059483" lon="10.47038083">
        <ele>0</ele>
        <time>1970-01-01T01:00:00Z</time>
      </trkpt>
      <trkpt lat="63.41059383" lon="10.47041767">
        <ele>0</ele>
        <time>1970-01-01T01:00:00Z</time>
      </trkpt>
      <trkpt lat="63.4105935" lon="10.47044833">
        <ele>0</ele>
        <time>1970-01-01T01:00:00Z</time>
      </trkpt>
      <trkpt lat="63.41059517" lon="10.47047533">
        <ele>0</ele>
        <time>1970-01-01T01:00:00Z</time>
      </trkpt>
      <trkpt lat="63.410597" lon="10.470502">
        <ele>0</ele>
        <time>1970-01-01T01:00:00Z</time>
      </trkpt>
      <trkpt lat="63.41059867" lon="10.47052867">
        <ele>0</ele>
        <time>1970-01-01T01:00:00Z</time>
      </trkpt>
      <trkpt lat="63.41060017" lon="10.47055767">
        <ele>0</ele>
        <time>1970-01-01T01:00:00Z</time>
      </trkpt>
      <trkpt lat="63.41059683" lon="10.47059017">
        <ele>0</ele>
        <time>1970-01-01T01:00:00Z</time>
      </trkpt>
      <trkpt lat="63.41059067" lon="10.47062217">
        <ele>0</ele>
        <time>1970-01-01T01:00:00Z</time>
      </trkpt>
      <trkpt lat="63.41057833" lon="10.47064917">
        <ele>0</ele>
        <time>1970-01-01T01:00:00Z</time>
      </trkpt>
      <trkpt lat="63.41056317" lon="10.47066983">
        <ele>0</ele>
        <time>1970-01-01T01:00:00Z</time>
      </trkpt>
      <trkpt lat="63.41054583" lon="10.4706895">
        <ele>0</ele>
        <time>1970-01-01T01:00:00Z</time>
      </trkpt>
      <trkpt lat="63.41052983" lon="10.47071033">
        <ele>0</ele>
        <time>1970-01-01T01:00:00Z</time>
      </trkpt>
      <trkpt lat="63.410516" lon="10.470729">
        <ele>0</ele>
        <time>1970-01-01T01:00:00Z</time>
      </trkpt>
      <trkpt lat="63.41050267" lon="10.47074783">
        <ele>0</ele>
        <time>1970-01-01T01:00:00Z</time>
      </trkpt>
      <trkpt lat="63.41048867" lon="10.47076617">
        <ele>0</ele>
        <time>1970-01-01T01:00:00Z</time>
      </trkpt>
      <trkpt lat="63.41047533" lon="10.47078633">
        <ele>0</ele>
        <time>1970-01-01T01:00:00Z</time>
      </trkpt>
      <trkpt lat="63.41046233" lon="10.47080367">
        <ele>0</ele>
        <time>1970-01-01T01:00:00Z</time>
      </trkpt>
      <trkpt lat="63.41045" lon="10.470818">
        <ele>0</ele>
        <time>1970-01-01T01:00:00Z</time>
      </trkpt>
      <trkpt lat="63.41043417" lon="10.47083317">
        <ele>0</ele>
        <time>1970-01-01T01:00:00Z</time>
      </trkpt>
      <trkpt lat="63.41042183" lon="10.4708495">
        <ele>0</ele>
        <time>1970-01-01T01:00:00Z</time>
      </trkpt>
      <trkpt lat="63.41041083" lon="10.470875">
        <ele>0</ele>
        <time>1970-01-01T01:00:00Z</time>
      </trkpt>
      <trkpt lat="63.4104045" lon="10.47090017">
        <ele>0</ele>
        <time>1970-01-01T01:00:00Z</time>
      </trkpt>
      <trkpt lat="63.4103955" lon="10.4709295">
        <ele>0</ele>
        <time>1970-01-01T01:00:00Z</time>
      </trkpt>
      <trkpt lat="63.41038783" lon="10.4709535">
        <ele>0</ele>
        <time>1970-01-01T01:00:00Z</time>
      </trkpt>
      <trkpt lat="63.41038017" lon="10.47097817">
        <ele>0</ele>
        <time>1970-01-01T01:00:00Z</time>
      </trkpt>
      <trkpt lat="63.4103735" lon="10.47100583">
        <ele>0</ele>
        <time>1970-01-01T01:00:00Z</time>
      </trkpt>
      <trkpt lat="63.41036683" lon="10.4710325">
        <ele>0</ele>
        <time>1970-01-01T01:00:00Z</time>
      </trkpt>
      <trkpt lat="63.41036067" lon="10.47106417">
        <ele>0</ele>
        <time>1970-01-01T01:00:00Z</time>
      </trkpt>
      <trkpt lat="63.41035583" lon="10.4710955">
        <ele>0</ele>
        <time>1970-01-01T01:00:00Z</time>
      </trkpt>
      <trkpt lat="63.410351" lon="10.47113317">
        <ele>0</ele>
        <time>1970-01-01T01:00:00Z</time>
      </trkpt>
      <trkpt lat="63.41034917" lon="10.471168">
        <ele>0</ele>
        <time>1970-01-01T01:00:00Z</time>
      </trkpt>
      <trkpt lat="63.410348" lon="10.47120083">
        <ele>0</ele>
        <time>1970-01-01T01:00:00Z</time>
      </trkpt>
      <trkpt lat="63.41034733" lon="10.47122683">
        <ele>0</ele>
        <time>1970-01-01T01:00:00Z</time>
      </trkpt>
      <trkpt lat="63.41034583" lon="10.47124783">
        <ele>0</ele>
        <time>1970-01-01T01:00:00Z</time>
      </trkpt>
      <trkpt lat="63.41034333" lon="10.47126817">
        <ele>0</ele>
        <time>1970-01-01T01:00:00Z</time>
      </trkpt>
      <trkpt lat="63.41034167" lon="10.47129283">
        <ele>0</ele>
        <time>1970-01-01T01:00:00Z</time>
      </trkpt>
      <trkpt lat="63.410339" lon="10.47132283">
        <ele>0</ele>
        <time>1970-01-01T01:00:00Z</time>
      </trkpt>
      <trkpt lat="63.41033683" lon="10.4713525">
        <ele>0</ele>
        <time>1970-01-01T01:00:00Z</time>
      </trkpt>
      <trkpt lat="63.4103345" lon="10.4713855">
        <ele>0</ele>
        <time>1970-01-01T01:00:00Z</time>
      </trkpt>
      <trkpt lat="63.41033283" lon="10.471418">
        <ele>0</ele>
        <time>1970-01-01T01:00:00Z</time>
      </trkpt>
      <trkpt lat="63.41033033" lon="10.47145483">
        <ele>0</ele>
        <time>1970-01-01T01:00:00Z</time>
      </trkpt>
      <trkpt lat="63.410327" lon="10.471488">
        <ele>0</ele>
        <time>1970-01-01T01:00:00Z</time>
      </trkpt>
      <trkpt lat="63.41032517" lon="10.47152067">
        <ele>0</ele>
        <time>1970-01-01T01:00:00Z</time>
      </trkpt>
      <trkpt lat="63.41032483" lon="10.47154717">
        <ele>0</ele>
        <time>1970-01-01T01:00:00Z</time>
      </trkpt>
      <trkpt lat="63.4103255" lon="10.47157467">
        <ele>0</ele>
        <time>1970-01-01T01:00:00Z</time>
      </trkpt>
      <trkpt lat="63.410326" lon="10.471606">
        <ele>0</ele>
        <time>1970-01-01T01:00:00Z</time>
      </trkpt>
      <trkpt lat="63.41032533" lon="10.471656">
        <ele>163.07</ele>
        <time>1970-01-01T01:00:00Z</time>
      </trkpt>
      <trkpt lat="63.41032367" lon="10.47171317">
        <ele>163.07</ele>
        <time>1970-01-01T01:00:00Z</time>
      </trkpt>
      <trkpt lat="63.41031817" lon="10.4717655">
        <ele>163.07</ele>
        <time>1970-01-01T01:00:00Z</time>
      </trkpt>
      <trkpt lat="63.41031367" lon="10.4718015">
        <ele>163.07</ele>
        <time>1970-01-01T01:00:00Z</time>
      </trkpt>
      <trkpt lat="63.41030833" lon="10.47183067">
        <ele>163.07</ele>
        <time>1970-01-01T01:00:00Z</time>
      </trkpt>
      <trkpt lat="63.41030533" lon="10.47186267">
        <ele>163.07</ele>
        <time>1970-01-01T01:00:00Z</time>
      </trkpt>
      <trkpt lat="63.41030333" lon="10.47189733">
        <ele>163.07</ele>
        <time>1970-01-01T01:00:00Z</time>
      </trkpt>
      <trkpt lat="63.4103015" lon="10.47192883">
        <ele>163.07</ele>
        <time>1970-01-01T01:00:00Z</time>
      </trkpt>
      <trkpt lat="63.41029817" lon="10.47195933">
        <ele>163.375</ele>
        <time>1970-01-01T01:00:00Z</time>
      </trkpt>
      <trkpt lat="63.41029483" lon="10.47199033">
        <ele>163.375</ele>
        <time>1970-01-01T01:00:00Z</time>
      </trkpt>
      <trkpt lat="63.410292" lon="10.47202133">
        <ele>163.68</ele>
        <time>1970-01-01T01:00:00Z</time>
      </trkpt>
      <trkpt lat="63.41029033" lon="10.47205083">
        <ele>163.68</ele>
        <time>1970-01-01T01:00:00Z</time>
      </trkpt>
      <trkpt lat="63.41028783" lon="10.472078">
        <ele>164.137</ele>
        <time>1970-01-01T01:00:00Z</time>
      </trkpt>
      <trkpt lat="63.410284" lon="10.47210517">
        <ele>164.137</ele>
        <time>1970-01-01T01:00:00Z</time>
      </trkpt>
      <trkpt lat="63.41027583" lon="10.47213">
        <ele>164.746</ele>
        <time>1970-01-01T01:00:00Z</time>
      </trkpt>
      <trkpt lat="63.4102535" lon="10.47214733">
        <ele>164.746</ele>
        <time>1970-01-01T01:00:00Z</time>
      </trkpt>
      <trkpt lat="63.41022533" lon="10.47216317">
        <ele>164.899</ele>
        <time>1970-01-01T01:00:00Z</time>
      </trkpt>
      <trkpt lat="63.410196" lon="10.47217867">
        <ele>164.899</ele>
        <time>1970-01-01T01:00:00Z</time>
      </trkpt>
      <trkpt lat="63.41017467" lon="10.47219517">
        <ele>164.594</ele>
        <time>1970-01-01T01:00:00Z</time>
      </trkpt>
      <trkpt lat="63.41015667" lon="10.472209">
        <ele>164.594</ele>
        <time>1970-01-01T01:00:00Z</time>
      </trkpt>
      <trkpt lat="63.41015667" lon="10.472209">
        <ele>0</ele>
        <time>1970-01-01T01:00:00Z</time>
      </trkpt>
      <trkpt lat="63.41015667" lon="10.472209">
        <ele>0</ele>
        <time>1970-01-01T01:00:00Z</time>
      </trkpt>
      <trkpt lat="63.41015667" lon="10.472209">
        <ele>0</ele>
        <time>1970-01-01T01:00:00Z</time>
      </trkpt>
      <trkpt lat="63.41015667" lon="10.472209">
        <ele>0</ele>
        <time>1970-01-01T01:00:00Z</time>
      </trkpt>
      <trkpt lat="63.41009867" lon="10.4722185">
        <ele>0</ele>
        <time>1970-01-01T01:00:00Z</time>
      </trkpt>
      <trkpt lat="63.4100425" lon="10.47222733">
        <ele>164.594</ele>
        <time>1970-01-01T01:00:00Z</time>
      </trkpt>
      <trkpt lat="63.4099865" lon="10.47224233">
        <ele>164.594</ele>
        <time>1970-01-01T01:00:00Z</time>
      </trkpt>
      <trkpt lat="63.409972" lon="10.472265">
        <ele>164.594</ele>
        <time>1970-01-01T01:00:00Z</time>
      </trkpt>
      <trkpt lat="63.40995767" lon="10.4722905">
        <ele>164.594</ele>
        <time>1970-01-01T01:00:00Z</time>
      </trkpt>
      <trkpt lat="63.40994167" lon="10.47230783">
        <ele>164.594</ele>
        <time>1970-01-01T01:00:00Z</time>
      </trkpt>
      <trkpt lat="63.409925" lon="10.47232033">
        <ele>164.594</ele>
        <time>1970-01-01T01:00:00Z</time>
      </trkpt>
      <trkpt lat="63.40990683" lon="10.47233017">
        <ele>164.594</ele>
        <time>1970-01-01T01:00:00Z</time>
      </trkpt>
      <trkpt lat="63.40989033" lon="10.472337">
        <ele>164.594</ele>
        <time>1970-01-01T01:00:00Z</time>
      </trkpt>
      <trkpt lat="63.40987333" lon="10.4723415">
        <ele>164.594</ele>
        <time>1970-01-01T01:00:00Z</time>
      </trkpt>
      <trkpt lat="63.40985667" lon="10.47234717">
        <ele>164.594</ele>
        <time>1970-01-01T01:00:00Z</time>
      </trkpt>
      <trkpt lat="63.40984083" lon="10.472354">
        <ele>164.594</ele>
        <time>1970-01-01T01:00:00Z</time>
      </trkpt>
      <trkpt lat="63.40982617" lon="10.47236083">
        <ele>164.594</ele>
        <time>1970-01-01T01:00:00Z</time>
      </trkpt>
      <trkpt lat="63.40981183" lon="10.47236267">
        <ele>164.594</ele>
        <time>1970-01-01T01:00:00Z</time>
      </trkpt>
      <trkpt lat="63.40979733" lon="10.47236467">
        <ele>164.594</ele>
        <time>1970-01-01T01:00:00Z</time>
      </trkpt>
      <trkpt lat="63.409782" lon="10.472363">
        <ele>164.594</ele>
        <time>1970-01-01T01:00:00Z</time>
      </trkpt>
      <trkpt lat="63.4097675" lon="10.47235933">
        <ele>164.594</ele>
        <time>1970-01-01T01:00:00Z</time>
      </trkpt>
      <trkpt lat="63.4097515" lon="10.47235567">
        <ele>164.594</ele>
        <time>1970-01-01T01:00:00Z</time>
      </trkpt>
      <trkpt lat="63.4097365" lon="10.47235267">
        <ele>164.594</ele>
        <time>1970-01-01T01:00:00Z</time>
      </trkpt>
      <trkpt lat="63.40972217" lon="10.47235133">
        <ele>164.594</ele>
        <time>1970-01-01T01:00:00Z</time>
      </trkpt>
      <trkpt lat="63.40971" lon="10.4723475">
        <ele>163.984</ele>
        <time>1970-01-01T01:00:00Z</time>
      </trkpt>
      <trkpt lat="63.40969817" lon="10.47234083">
        <ele>163.984</ele>
        <time>1970-01-01T01:00:00Z</time>
      </trkpt>
      <trkpt lat="63.40968533" lon="10.4723305">
        <ele>163.07</ele>
        <time>1970-01-01T01:00:00Z</time>
      </trkpt>
      <trkpt lat="63.40967167" lon="10.47232117">
        <ele>163.07</ele>
        <time>1970-01-01T01:00:00Z</time>
      </trkpt>
      <trkpt lat="63.40965783" lon="10.47231533">
        <ele>162.156</ele>
        <time>1970-01-01T01:00:00Z</time>
      </trkpt>
      <trkpt lat="63.4096435" lon="10.472312">
        <ele>162.156</ele>
        <time>1970-01-01T01:00:00Z</time>
      </trkpt>
      <trkpt lat="63.4096275" lon="10.47230867">
        <ele>161.241</ele>
        <time>1970-01-01T01:00:00Z</time>
      </trkpt>
      <trkpt lat="63.40961267" lon="10.4723015">
        <ele>161.241</ele>
        <time>1970-01-01T01:00:00Z</time>
      </trkpt>
      <trkpt lat="63.40959883" lon="10.472299">
        <ele>160.327</ele>
        <time>1970-01-01T01:00:00Z</time>
      </trkpt>
      <trkpt lat="63.40958583" lon="10.47229717">
        <ele>160.327</ele>
        <time>1970-01-01T01:00:00Z</time>
      </trkpt>
      <trkpt lat="63.409571" lon="10.47229533">
        <ele>159.412</ele>
        <time>1970-01-01T01:00:00Z</time>
      </trkpt>
      <trkpt lat="63.40955383" lon="10.47228833">
        <ele>159.412</ele>
        <time>1970-01-01T01:00:00Z</time>
      </trkpt>
      <trkpt lat="63.40953483" lon="10.47227683">
        <ele>158.803</ele>
        <time>1970-01-01T01:00:00Z</time>
      </trkpt>
      <trkpt lat="63.4095165" lon="10.472267">
        <ele>158.803</ele>
        <time>1970-01-01T01:00:00Z</time>
      </trkpt>
      <trkpt lat="63.4094995" lon="10.47225767">
        <ele>158.346</ele>
        <time>1970-01-01T01:00:00Z</time>
      </trkpt>
      <trkpt lat="63.40948433" lon="10.472252">
        <ele>158.346</ele>
        <time>1970-01-01T01:00:00Z</time>
      </trkpt>
      <trkpt lat="63.40946867" lon="10.4722455">
        <ele>158.041</ele>
        <time>1970-01-01T01:00:00Z</time>
      </trkpt>
      <trkpt lat="63.40945267" lon="10.47223917">
        <ele>158.041</ele>
        <time>1970-01-01T01:00:00Z</time>
      </trkpt>
      <trkpt lat="63.40943533" lon="10.4722345">
        <ele>157.888</ele>
        <time>1970-01-01T01:00:00Z</time>
      </trkpt>
      <trkpt lat="63.4094185" lon="10.47223">
        <ele>157.888</ele>
        <time>1970-01-01T01:00:00Z</time>
      </trkpt>
      <trkpt lat="63.409402" lon="10.47222667">
        <ele>157.888</ele>
        <time>1970-01-01T01:00:00Z</time>
      </trkpt>
      <trkpt lat="63.40938617" lon="10.47222233">
        <ele>157.888</ele>
        <time>1970-01-01T01:00:00Z</time>
      </trkpt>
      <trkpt lat="63.409369" lon="10.47221817">
        <ele>157.888</ele>
        <time>1970-01-01T01:00:00Z</time>
      </trkpt>
      <trkpt lat="63.40935083" lon="10.47221317">
        <ele>157.888</ele>
        <time>1970-01-01T01:00:00Z</time>
      </trkpt>
      <trkpt lat="63.40933417" lon="10.47220567">
        <ele>157.888</ele>
        <time>1970-01-01T01:00:00Z</time>
      </trkpt>
      <trkpt lat="63.40931933" lon="10.47219633">
        <ele>157.888</ele>
        <time>1970-01-01T01:00:00Z</time>
      </trkpt>
      <trkpt lat="63.40930617" lon="10.47218567">
        <ele>157.888</ele>
        <time>1970-01-01T01:00:00Z</time>
      </trkpt>
      <trkpt lat="63.40929267" lon="10.4721755">
        <ele>157.888</ele>
        <time>1970-01-01T01:00:00Z</time>
      </trkpt>
      <trkpt lat="63.40927867" lon="10.4721655">
        <ele>157.888</ele>
        <time>1970-01-01T01:00:00Z</time>
      </trkpt>
      <trkpt lat="63.40926433" lon="10.4721565">
        <ele>157.888</ele>
        <time>1970-01-01T01:00:00Z</time>
      </trkpt>
      <trkpt lat="63.4092495" lon="10.4721495">
        <ele>157.888</ele>
        <time>1970-01-01T01:00:00Z</time>
      </trkpt>
      <trkpt lat="63.40923467" lon="10.47214433">
        <ele>157.888</ele>
        <time>1970-01-01T01:00:00Z</time>
      </trkpt>
      <trkpt lat="63.40922017" lon="10.47213983">
        <ele>157.888</ele>
        <time>1970-01-01T01:00:00Z</time>
      </trkpt>
      <trkpt lat="63.40920567" lon="10.47213683">
        <ele>157.888</ele>
        <time>1970-01-01T01:00:00Z</time>
      </trkpt>
      <trkpt lat="63.4091905" lon="10.47213333">
        <ele>158.041</ele>
        <time>1970-01-01T01:00:00Z</time>
      </trkpt>
      <trkpt lat="63.40917567" lon="10.4721295">
        <ele>158.041</ele>
        <time>1970-01-01T01:00:00Z</time>
      </trkpt>
      <trkpt lat="63.40916033" lon="10.4721235">
        <ele>158.193</ele>
        <time>1970-01-01T01:00:00Z</time>
      </trkpt>
      <trkpt lat="63.40914417" lon="10.4721175">
        <ele>158.193</ele>
        <time>1970-01-01T01:00:00Z</time>
      </trkpt>
      <trkpt lat="63.40912817" lon="10.472112">
        <ele>158.193</ele>
        <time>1970-01-01T01:00:00Z</time>
      </trkpt>
      <trkpt lat="63.40911283" lon="10.47210683">
        <ele>158.193</ele>
        <time>1970-01-01T01:00:00Z</time>
      </trkpt>
      <trkpt lat="63.409099" lon="10.47210117">
        <ele>158.346</ele>
        <time>1970-01-01T01:00:00Z</time>
      </trkpt>
      <trkpt lat="63.409085" lon="10.47209433">
        <ele>158.346</ele>
        <time>1970-01-01T01:00:00Z</time>
      </trkpt>
      <trkpt lat="63.40907133" lon="10.4720895">
        <ele>158.346</ele>
        <time>1970-01-01T01:00:00Z</time>
      </trkpt>
      <trkpt lat="63.4090575" lon="10.47208517">
        <ele>158.346</ele>
        <time>1970-01-01T01:00:00Z</time>
      </trkpt>
      <trkpt lat="63.40904317" lon="10.47208217">
        <ele>158.498</ele>
        <time>1970-01-01T01:00:00Z</time>
      </trkpt>
      <trkpt lat="63.40902717" lon="10.47207633">
        <ele>158.498</ele>
        <time>1970-01-01T01:00:00Z</time>
      </trkpt>
      <trkpt lat="63.40901117" lon="10.47207083">
        <ele>158.498</ele>
        <time>1970-01-01T01:00:00Z</time>
      </trkpt>
      <trkpt lat="63.40899467" lon="10.47206433">
        <ele>158.498</ele>
        <time>1970-01-01T01:00:00Z</time>
      </trkpt>
      <trkpt lat="63.40897867" lon="10.472059">
        <ele>158.498</ele>
        <time>1970-01-01T01:00:00Z</time>
      </trkpt>
      <trkpt lat="63.408962" lon="10.47205383">
        <ele>158.498</ele>
        <time>1970-01-01T01:00:00Z</time>
      </trkpt>
      <trkpt lat="63.40894683" lon="10.47204633">
        <ele>158.65</ele>
        <time>1970-01-01T01:00:00Z</time>
      </trkpt>
      <trkpt lat="63.4089315" lon="10.4720395">
        <ele>158.65</ele>
        <time>1970-01-01T01:00:00Z</time>
      </trkpt>
      <trkpt lat="63.408917" lon="10.4720325">
        <ele>158.65</ele>
        <time>1970-01-01T01:00:00Z</time>
      </trkpt>
      <trkpt lat="63.40890133" lon="10.472028">
        <ele>158.65</ele>
        <time>1970-01-01T01:00:00Z</time>
      </trkpt>
      <trkpt lat="63.40888567" lon="10.47202317">
        <ele>158.803</ele>
        <time>1970-01-01T01:00:00Z</time>
      </trkpt>
      <trkpt lat="63.40886917" lon="10.472018">
        <ele>158.803</ele>
        <time>1970-01-01T01:00:00Z</time>
      </trkpt>
      <trkpt lat="63.408853" lon="10.47201217">
        <ele>158.803</ele>
        <time>1970-01-01T01:00:00Z</time>
      </trkpt>
      <trkpt lat="63.40883717" lon="10.47200717">
        <ele>158.803</ele>
        <time>1970-01-01T01:00:00Z</time>
      </trkpt>
      <trkpt lat="63.40882183" lon="10.47200217">
        <ele>158.803</ele>
        <time>1970-01-01T01:00:00Z</time>
      </trkpt>
      <trkpt lat="63.40880667" lon="10.47199683">
        <ele>158.803</ele>
        <time>1970-01-01T01:00:00Z</time>
      </trkpt>
      <trkpt lat="63.40879183" lon="10.47199133">
        <ele>158.803</ele>
        <time>1970-01-01T01:00:00Z</time>
      </trkpt>
      <trkpt lat="63.40877717" lon="10.4719865">
        <ele>158.803</ele>
        <time>1970-01-01T01:00:00Z</time>
      </trkpt>
      <trkpt lat="63.408762" lon="10.47198217">
        <ele>158.955</ele>
        <time>1970-01-01T01:00:00Z</time>
      </trkpt>
      <trkpt lat="63.40874633" lon="10.47197717">
        <ele>158.955</ele>
        <time>1970-01-01T01:00:00Z</time>
      </trkpt>
      <trkpt lat="63.40873067" lon="10.47197117">
        <ele>159.108</ele>
        <time>1970-01-01T01:00:00Z</time>
      </trkpt>
      <trkpt lat="63.40871583" lon="10.4719635">
        <ele>159.108</ele>
        <time>1970-01-01T01:00:00Z</time>
      </trkpt>
      <trkpt lat="63.40870017" lon="10.47195783">
        <ele>159.26</ele>
        <time>1970-01-01T01:00:00Z</time>
      </trkpt>
      <trkpt lat="63.408683" lon="10.47195367">
        <ele>159.26</ele>
        <time>1970-01-01T01:00:00Z</time>
      </trkpt>
      <trkpt lat="63.40866483" lon="10.47195133">
        <ele>159.26</ele>
        <time>1970-01-01T01:00:00Z</time>
      </trkpt>
      <trkpt lat="63.40864667" lon="10.4719495">
        <ele>159.26</ele>
        <time>1970-01-01T01:00:00Z</time>
      </trkpt>
      <trkpt lat="63.40862867" lon="10.47194733">
        <ele>159.412</ele>
        <time>1970-01-01T01:00:00Z</time>
      </trkpt>
      <trkpt lat="63.40861267" lon="10.47194317">
        <ele>159.412</ele>
        <time>1970-01-01T01:00:00Z</time>
      </trkpt>
      <trkpt lat="63.40859667" lon="10.47193667">
        <ele>159.565</ele>
        <time>1970-01-01T01:00:00Z</time>
      </trkpt>
      <trkpt lat="63.40858217" lon="10.47192833">
        <ele>159.565</ele>
        <time>1970-01-01T01:00:00Z</time>
      </trkpt>
      <trkpt lat="63.40856733" lon="10.4719225">
        <ele>159.565</ele>
        <time>1970-01-01T01:00:00Z</time>
      </trkpt>
      <trkpt lat="63.408554" lon="10.47191683">
        <ele>159.565</ele>
        <time>1970-01-01T01:00:00Z</time>
      </trkpt>
      <trkpt lat="63.40853883" lon="10.47191333">
        <ele>159.717</ele>
        <time>1970-01-01T01:00:00Z</time>
      </trkpt>
      <trkpt lat="63.40852133" lon="10.47190983">
        <ele>159.717</ele>
        <time>1970-01-01T01:00:00Z</time>
      </trkpt>
      <trkpt lat="63.40850283" lon="10.47190617">
        <ele>159.87</ele>
        <time>1970-01-01T01:00:00Z</time>
      </trkpt>
      <trkpt lat="63.40848583" lon="10.4719">
        <ele>159.87</ele>
        <time>1970-01-01T01:00:00Z</time>
      </trkpt>
      <trkpt lat="63.40847" lon="10.47189317">
        <ele>160.022</ele>
        <time>1970-01-01T01:00:00Z</time>
      </trkpt>
      <trkpt lat="63.40845383" lon="10.4718875">
        <ele>160.022</ele>
        <time>1970-01-01T01:00:00Z</time>
      </trkpt>
      <trkpt lat="63.40843733" lon="10.4718825">
        <ele>160.022</ele>
        <time>1970-01-01T01:00:00Z</time>
      </trkpt>
      <trkpt lat="63.40842083" lon="10.4718765">
        <ele>160.022</ele>
        <time>1970-01-01T01:00:00Z</time>
      </trkpt>
      <trkpt lat="63.4084055" lon="10.47186917">
        <ele>160.174</ele>
        <time>1970-01-01T01:00:00Z</time>
      </trkpt>
      <trkpt lat="63.40839" lon="10.47186183">
        <ele>160.174</ele>
        <time>1970-01-01T01:00:00Z</time>
      </trkpt>
      <trkpt lat="63.40837483" lon="10.4718545">
        <ele>160.327</ele>
        <time>1970-01-01T01:00:00Z</time>
      </trkpt>
      <trkpt lat="63.40836" lon="10.47184667">
        <ele>160.327</ele>
        <time>1970-01-01T01:00:00Z</time>
      </trkpt>
      <trkpt lat="63.4083455" lon="10.4718385">
        <ele>160.327</ele>
        <time>1970-01-01T01:00:00Z</time>
      </trkpt>
      <trkpt lat="63.408331" lon="10.47183083">
        <ele>160.327</ele>
        <time>1970-01-01T01:00:00Z</time>
      </trkpt>
      <trkpt lat="63.40831617" lon="10.471823">
        <ele>160.479</ele>
        <time>1970-01-01T01:00:00Z</time>
      </trkpt>
      <trkpt lat="63.4083005" lon="10.4718165">
        <ele>160.479</ele>
        <time>1970-01-01T01:00:00Z</time>
      </trkpt>
      <trkpt lat="63.40828533" lon="10.47181067">
        <ele>160.632</ele>
        <time>1970-01-01T01:00:00Z</time>
      </trkpt>
      <trkpt lat="63.4082705" lon="10.47180667">
        <ele>160.632</ele>
        <time>1970-01-01T01:00:00Z</time>
      </trkpt>
      <trkpt lat="63.408257" lon="10.47179983">
        <ele>160.784</ele>
        <time>1970-01-01T01:00:00Z</time>
      </trkpt>
      <trkpt lat="63.40824367" lon="10.47179133">
        <ele>160.784</ele>
        <time>1970-01-01T01:00:00Z</time>
      </trkpt>
      <trkpt lat="63.40823017" lon="10.471782">
        <ele>160.936</ele>
        <time>1970-01-01T01:00:00Z</time>
      </trkpt>
      <trkpt lat="63.40821417" lon="10.47177767">
        <ele>160.936</ele>
        <time>1970-01-01T01:00:00Z</time>
      </trkpt>
      <trkpt lat="63.4081965" lon="10.47177683">
        <ele>161.089</ele>
        <time>1970-01-01T01:00:00Z</time>
      </trkpt>
      <trkpt lat="63.40817717" lon="10.4717795">
        <ele>161.089</ele>
        <time>1970-01-01T01:00:00Z</time>
      </trkpt>
      <trkpt lat="63.40815933" lon="10.471781">
        <ele>161.241</ele>
        <time>1970-01-01T01:00:00Z</time>
      </trkpt>
      <trkpt lat="63.40814117" lon="10.471786">
        <ele>161.241</ele>
        <time>1970-01-01T01:00:00Z</time>
      </trkpt>
      <trkpt lat="63.40812483" lon="10.47178933">
        <ele>161.394</ele>
        <time>1970-01-01T01:00:00Z</time>
      </trkpt>
      <trkpt lat="63.40810667" lon="10.47179817">
        <ele>161.394</ele>
        <time>1970-01-01T01:00:00Z</time>
      </trkpt>
      <trkpt lat="63.408088" lon="10.47180633">
        <ele>161.546</ele>
        <time>1970-01-01T01:00:00Z</time>
      </trkpt>
      <trkpt lat="63.40806883" lon="10.47181617">
        <ele>161.546</ele>
        <time>1970-01-01T01:00:00Z</time>
      </trkpt>
      <trkpt lat="63.40805033" lon="10.47182333">
        <ele>161.546</ele>
        <time>1970-01-01T01:00:00Z</time>
      </trkpt>
      <trkpt lat="63.40803283" lon="10.471828">
        <ele>161.546</ele>
        <time>1970-01-01T01:00:00Z</time>
      </trkpt>
      <trkpt lat="63.40801533" lon="10.47183033">
        <ele>161.698</ele>
        <time>1970-01-01T01:00:00Z</time>
      </trkpt>
      <trkpt lat="63.40799933" lon="10.471831">
        <ele>161.698</ele>
        <time>1970-01-01T01:00:00Z</time>
      </trkpt>
      <trkpt lat="63.4079845" lon="10.47183217">
        <ele>161.698</ele>
        <time>1970-01-01T01:00:00Z</time>
      </trkpt>
      <trkpt lat="63.40797" lon="10.47183333">
        <ele>161.698</ele>
        <time>1970-01-01T01:00:00Z</time>
      </trkpt>
      <trkpt lat="63.40795383" lon="10.47183467">
        <ele>161.698</ele>
        <time>1970-01-01T01:00:00Z</time>
      </trkpt>
      <trkpt lat="63.407938" lon="10.47183267">
        <ele>161.698</ele>
        <time>1970-01-01T01:00:00Z</time>
      </trkpt>
      <trkpt lat="63.40792267" lon="10.47183">
        <ele>161.698</ele>
        <time>1970-01-01T01:00:00Z</time>
      </trkpt>
      <trkpt lat="63.4079075" lon="10.47182483">
        <ele>161.698</ele>
        <time>1970-01-01T01:00:00Z</time>
      </trkpt>
      <trkpt lat="63.40789233" lon="10.4718195">
        <ele>161.698</ele>
        <time>1970-01-01T01:00:00Z</time>
      </trkpt>
      <trkpt lat="63.407877" lon="10.471811">
        <ele>161.698</ele>
        <time>1970-01-01T01:00:00Z</time>
      </trkpt>
      <trkpt lat="63.40786267" lon="10.4718015">
        <ele>161.698</ele>
        <time>1970-01-01T01:00:00Z</time>
      </trkpt>
      <trkpt lat="63.40784783" lon="10.47179317">
        <ele>161.698</ele>
        <time>1970-01-01T01:00:00Z</time>
      </trkpt>
      <trkpt lat="63.4078325" lon="10.471787">
        <ele>161.851</ele>
        <time>1970-01-01T01:00:00Z</time>
      </trkpt>
      <trkpt lat="63.40781617" lon="10.47178333">
        <ele>161.851</ele>
        <time>1970-01-01T01:00:00Z</time>
      </trkpt>
      <trkpt lat="63.40780083" lon="10.47178033">
        <ele>161.851</ele>
        <time>1970-01-01T01:00:00Z</time>
      </trkpt>
      <trkpt lat="63.4077845" lon="10.47178017">
        <ele>161.851</ele>
        <time>1970-01-01T01:00:00Z</time>
      </trkpt>
      <trkpt lat="63.40776867" lon="10.47177817">
        <ele>161.851</ele>
        <time>1970-01-01T01:00:00Z</time>
      </trkpt>
      <trkpt lat="63.40775233" lon="10.471775">
        <ele>161.851</ele>
        <time>1970-01-01T01:00:00Z</time>
      </trkpt>
      <trkpt lat="63.40773617" lon="10.471771">
        <ele>161.851</ele>
        <time>1970-01-01T01:00:00Z</time>
      </trkpt>
      <trkpt lat="63.407721" lon="10.47176517">
        <ele>161.851</ele>
        <time>1970-01-01T01:00:00Z</time>
      </trkpt>
      <trkpt lat="63.40770533" lon="10.47175883">
        <ele>161.851</ele>
        <time>1970-01-01T01:00:00Z</time>
      </trkpt>
      <trkpt lat="63.40769083" lon="10.47174833">
        <ele>161.851</ele>
        <time>1970-01-01T01:00:00Z</time>
      </trkpt>
      <trkpt lat="63.40767583" lon="10.4717375">
        <ele>161.851</ele>
        <time>1970-01-01T01:00:00Z</time>
      </trkpt>
      <trkpt lat="63.40766233" lon="10.47172567">
        <ele>161.851</ele>
        <time>1970-01-01T01:00:00Z</time>
      </trkpt>
      <trkpt lat="63.40764817" lon="10.4717185">
        <ele>161.851</ele>
        <time>1970-01-01T01:00:00Z</time>
      </trkpt>
      <trkpt lat="63.40763417" lon="10.47171267">
        <ele>161.851</ele>
        <time>1970-01-01T01:00:00Z</time>
      </trkpt>
      <trkpt lat="63.4076195" lon="10.4717085">
        <ele>161.851</ele>
        <time>1970-01-01T01:00:00Z</time>
      </trkpt>
      <trkpt lat="63.40760567" lon="10.471703">
        <ele>161.851</ele>
        <time>1970-01-01T01:00:00Z</time>
      </trkpt>
      <trkpt lat="63.407591" lon="10.4716995">
        <ele>161.851</ele>
        <time>1970-01-01T01:00:00Z</time>
      </trkpt>
      <trkpt lat="63.4075765" lon="10.47169533">
        <ele>161.851</ele>
        <time>1970-01-01T01:00:00Z</time>
      </trkpt>
      <trkpt lat="63.40756167" lon="10.47169083">
        <ele>161.851</ele>
        <time>1970-01-01T01:00:00Z</time>
      </trkpt>
      <trkpt lat="63.40754783" lon="10.471686">
        <ele>161.851</ele>
        <time>1970-01-01T01:00:00Z</time>
      </trkpt>
      <trkpt lat="63.407534" lon="10.471684">
        <ele>161.851</ele>
        <time>1970-01-01T01:00:00Z</time>
      </trkpt>
      <trkpt lat="63.40751883" lon="10.47168583">
        <ele>161.851</ele>
        <time>1970-01-01T01:00:00Z</time>
      </trkpt>
      <trkpt lat="63.40750333" lon="10.471688">
        <ele>161.851</ele>
        <time>1970-01-01T01:00:00Z</time>
      </trkpt>
      <trkpt lat="63.407488" lon="10.4716885">
        <ele>161.851</ele>
        <time>1970-01-01T01:00:00Z</time>
      </trkpt>
      <trkpt lat="63.4074745" lon="10.4716855">
        <ele>161.851</ele>
        <time>1970-01-01T01:00:00Z</time>
      </trkpt>
      <trkpt lat="63.40746117" lon="10.47168117">
        <ele>161.851</ele>
        <time>1970-01-01T01:00:00Z</time>
      </trkpt>
      <trkpt lat="63.4074475" lon="10.47167583">
        <ele>161.851</ele>
        <time>1970-01-01T01:00:00Z</time>
      </trkpt>
      <trkpt lat="63.40743433" lon="10.47167">
        <ele>161.851</ele>
        <time>1970-01-01T01:00:00Z</time>
      </trkpt>
      <trkpt lat="63.407421" lon="10.47166517">
        <ele>161.851</ele>
        <time>1970-01-01T01:00:00Z</time>
      </trkpt>
      <trkpt lat="63.4074065" lon="10.47166">
        <ele>161.851</ele>
        <time>1970-01-01T01:00:00Z</time>
      </trkpt>
      <trkpt lat="63.407392" lon="10.47165367">
        <ele>161.851</ele>
        <time>1970-01-01T01:00:00Z</time>
      </trkpt>
      <trkpt lat="63.4073775" lon="10.47164467">
        <ele>161.851</ele>
        <time>1970-01-01T01:00:00Z</time>
      </trkpt>
      <trkpt lat="63.40736417" lon="10.4716345">
        <ele>161.851</ele>
        <time>1970-01-01T01:00:00Z</time>
      </trkpt>
      <trkpt lat="63.40735017" lon="10.47162583">
        <ele>161.851</ele>
        <time>1970-01-01T01:00:00Z</time>
      </trkpt>
      <trkpt lat="63.4073355" lon="10.47161917">
        <ele>161.698</ele>
        <time>1970-01-01T01:00:00Z</time>
      </trkpt>
      <trkpt lat="63.40732083" lon="10.4716145">
        <ele>161.698</ele>
        <time>1970-01-01T01:00:00Z</time>
      </trkpt>
      <trkpt lat="63.40730517" lon="10.4716095">
        <ele>161.698</ele>
        <time>1970-01-01T01:00:00Z</time>
      </trkpt>
      <trkpt lat="63.40728833" lon="10.47160617">
        <ele>161.698</ele>
        <time>1970-01-01T01:00:00Z</time>
      </trkpt>
      <trkpt lat="63.40727017" lon="10.471603">
        <ele>161.698</ele>
        <time>1970-01-01T01:00:00Z</time>
      </trkpt>
      <trkpt lat="63.40725433" lon="10.4715975">
        <ele>161.698</ele>
        <time>1970-01-01T01:00:00Z</time>
      </trkpt>
      <trkpt lat="63.40723933" lon="10.47159017">
        <ele>161.546</ele>
        <time>1970-01-01T01:00:00Z</time>
      </trkpt>
      <trkpt lat="63.40722617" lon="10.47158283">
        <ele>161.546</ele>
        <time>1970-01-01T01:00:00Z</time>
      </trkpt>
      <trkpt lat="63.40721217" lon="10.47157817">
        <ele>161.546</ele>
        <time>1970-01-01T01:00:00Z</time>
      </trkpt>
      <trkpt lat="63.40719833" lon="10.47157433">
        <ele>161.546</ele>
        <time>1970-01-01T01:00:00Z</time>
      </trkpt>
      <trkpt lat="63.407184" lon="10.4715715">
        <ele>161.546</ele>
        <time>1970-01-01T01:00:00Z</time>
      </trkpt>
      <trkpt lat="63.40716783" lon="10.4715685">
        <ele>161.546</ele>
        <time>1970-01-01T01:00:00Z</time>
      </trkpt>
      <trkpt lat="63.40715117" lon="10.471566">
        <ele>161.394</ele>
        <time>1970-01-01T01:00:00Z</time>
      </trkpt>
      <trkpt lat="63.40713433" lon="10.47156067">
        <ele>161.394</ele>
        <time>1970-01-01T01:00:00Z</time>
      </trkpt>
      <trkpt lat="63.40711817" lon="10.47155317">
        <ele>161.394</ele>
        <time>1970-01-01T01:00:00Z</time>
      </trkpt>
      <trkpt lat="63.40710267" lon="10.47154367">
        <ele>161.394</ele>
        <time>1970-01-01T01:00:00Z</time>
      </trkpt>
      <trkpt lat="63.40708733" lon="10.47153417">
        <ele>161.241</ele>
        <time>1970-01-01T01:00:00Z</time>
      </trkpt>
      <trkpt lat="63.40707233" lon="10.47152617">
        <ele>161.241</ele>
        <time>1970-01-01T01:00:00Z</time>
      </trkpt>
      <trkpt lat="63.4070565" lon="10.47151767">
        <ele>161.241</ele>
        <time>1970-01-01T01:00:00Z</time>
      </trkpt>
      <trkpt lat="63.40704" lon="10.47151033">
        <ele>161.241</ele>
        <time>1970-01-01T01:00:00Z</time>
      </trkpt>
      <trkpt lat="63.40702367" lon="10.47150217">
        <ele>161.089</ele>
        <time>1970-01-01T01:00:00Z</time>
      </trkpt>
      <trkpt lat="63.4070075" lon="10.47149517">
        <ele>161.089</ele>
        <time>1970-01-01T01:00:00Z</time>
      </trkpt>
      <trkpt lat="63.40699233" lon="10.47148633">
        <ele>161.089</ele>
        <time>1970-01-01T01:00:00Z</time>
      </trkpt>
      <trkpt lat="63.4069775" lon="10.47147617">
        <ele>161.089</ele>
        <time>1970-01-01T01:00:00Z</time>
      </trkpt>
      <trkpt lat="63.4069635" lon="10.47146">
        <ele>160.936</ele>
        <time>1970-01-01T01:00:00Z</time>
      </trkpt>
      <trkpt lat="63.40694833" lon="10.47144167">
        <ele>160.936</ele>
        <time>1970-01-01T01:00:00Z</time>
      </trkpt>
      <trkpt lat="63.4069325" lon="10.4714235">
        <ele>160.936</ele>
        <time>1970-01-01T01:00:00Z</time>
      </trkpt>
      <trkpt lat="63.40691433" lon="10.47140733">
        <ele>160.936</ele>
        <time>1970-01-01T01:00:00Z</time>
      </trkpt>
      <trkpt lat="63.40689733" lon="10.4713915">
        <ele>160.784</ele>
        <time>1970-01-01T01:00:00Z</time>
      </trkpt>
      <trkpt lat="63.40688083" lon="10.471373">
        <ele>160.784</ele>
        <time>1970-01-01T01:00:00Z</time>
      </trkpt>
      <trkpt lat="63.40686783" lon="10.47135033">
        <ele>160.784</ele>
        <time>1970-01-01T01:00:00Z</time>
      </trkpt>
      <trkpt lat="63.406854" lon="10.471325">
        <ele>160.784</ele>
        <time>1970-01-01T01:00:00Z</time>
      </trkpt>
      <trkpt lat="63.4068415" lon="10.4712985">
        <ele>160.784</ele>
        <time>1970-01-01T01:00:00Z</time>
      </trkpt>
      <trkpt lat="63.40683017" lon="10.4712715">
        <ele>160.784</ele>
        <time>1970-01-01T01:00:00Z</time>
      </trkpt>
      <trkpt lat="63.40682267" lon="10.47123933">
        <ele>160.632</ele>
        <time>1970-01-01T01:00:00Z</time>
      </trkpt>
      <trkpt lat="63.40681667" lon="10.471206">
        <ele>160.632</ele>
        <time>1970-01-01T01:00:00Z</time>
      </trkpt>
      <trkpt lat="63.40681017" lon="10.47117283">
        <ele>160.632</ele>
        <time>1970-01-01T01:00:00Z</time>
      </trkpt>
      <trkpt lat="63.40680267" lon="10.47114433">
        <ele>160.632</ele>
        <time>1970-01-01T01:00:00Z</time>
      </trkpt>
      <trkpt lat="63.40679417" lon="10.471112">
        <ele>160.632</ele>
        <time>1970-01-01T01:00:00Z</time>
      </trkpt>
      <trkpt lat="63.40678617" lon="10.47108333">
        <ele>160.632</ele>
        <time>1970-01-01T01:00:00Z</time>
      </trkpt>
      <trkpt lat="63.4067785" lon="10.47105233">
        <ele>160.479</ele>
        <time>1970-01-01T01:00:00Z</time>
      </trkpt>
      <trkpt lat="63.406771" lon="10.4710245">
        <ele>160.479</ele>
        <time>1970-01-01T01:00:00Z</time>
      </trkpt>
      <trkpt lat="63.40676317" lon="10.470993">
        <ele>160.479</ele>
        <time>1970-01-01T01:00:00Z</time>
      </trkpt>
      <trkpt lat="63.40675533" lon="10.47096083">
        <ele>160.479</ele>
        <time>1970-01-01T01:00:00Z</time>
      </trkpt>
      <trkpt lat="63.40674733" lon="10.47092983">
        <ele>160.327</ele>
        <time>1970-01-01T01:00:00Z</time>
      </trkpt>
      <trkpt lat="63.40673867" lon="10.4708995">
        <ele>160.327</ele>
        <time>1970-01-01T01:00:00Z</time>
      </trkpt>
      <trkpt lat="63.40672967" lon="10.4708705">
        <ele>160.327</ele>
        <time>1970-01-01T01:00:00Z</time>
      </trkpt>
      <trkpt lat="63.40672033" lon="10.470841">
        <ele>160.327</ele>
        <time>1970-01-01T01:00:00Z</time>
      </trkpt>
      <trkpt lat="63.40671083" lon="10.47081067">
        <ele>160.327</ele>
        <time>1970-01-01T01:00:00Z</time>
      </trkpt>
      <trkpt lat="63.40670083" lon="10.4707815">
        <ele>160.327</ele>
        <time>1970-01-01T01:00:00Z</time>
      </trkpt>
      <trkpt lat="63.40669067" lon="10.47075267">
        <ele>160.327</ele>
        <time>1970-01-01T01:00:00Z</time>
      </trkpt>
      <trkpt lat="63.40667983" lon="10.47072633">
        <ele>160.327</ele>
        <time>1970-01-01T01:00:00Z</time>
      </trkpt>
      <trkpt lat="63.40666933" lon="10.47069983">
        <ele>160.174</ele>
        <time>1970-01-01T01:00:00Z</time>
      </trkpt>
      <trkpt lat="63.4066595" lon="10.47067283">
        <ele>160.174</ele>
        <time>1970-01-01T01:00:00Z</time>
      </trkpt>
      <trkpt lat="63.4066515" lon="10.47064267">
        <ele>160.174</ele>
        <time>1970-01-01T01:00:00Z</time>
      </trkpt>
      <trkpt lat="63.4066435" lon="10.47061183">
        <ele>160.174</ele>
        <time>1970-01-01T01:00:00Z</time>
      </trkpt>
      <trkpt lat="63.40663667" lon="10.47058067">
        <ele>160.174</ele>
        <time>1970-01-01T01:00:00Z</time>
      </trkpt>
      <trkpt lat="63.40662983" lon="10.47055267">
        <ele>160.174</ele>
        <time>1970-01-01T01:00:00Z</time>
      </trkpt>
      <trkpt lat="63.4066225" lon="10.470526">
        <ele>160.022</ele>
        <time>1970-01-01T01:00:00Z</time>
      </trkpt>
      <trkpt lat="63.40661467" lon="10.47049917">
        <ele>160.022</ele>
        <time>1970-01-01T01:00:00Z</time>
      </trkpt>
      <trkpt lat="63.4066065" lon="10.47047">
        <ele>160.022</ele>
        <time>1970-01-01T01:00:00Z</time>
      </trkpt>
      <trkpt lat="63.40659883" lon="10.4704395">
        <ele>160.022</ele>
        <time>1970-01-01T01:00:00Z</time>
      </trkpt>
      <trkpt lat="63.40659033" lon="10.47040933">
        <ele>160.022</ele>
        <time>1970-01-01T01:00:00Z</time>
      </trkpt>
      <trkpt lat="63.40658133" lon="10.47037933">
        <ele>160.022</ele>
        <time>1970-01-01T01:00:00Z</time>
      </trkpt>
      <trkpt lat="63.40657267" lon="10.47034917">
        <ele>160.022</ele>
        <time>1970-01-01T01:00:00Z</time>
      </trkpt>
      <trkpt lat="63.40656517" lon="10.47031833">
        <ele>160.022</ele>
        <time>1970-01-01T01:00:00Z</time>
      </trkpt>
      <trkpt lat="63.406558" lon="10.47028667">
        <ele>159.87</ele>
        <time>1970-01-01T01:00:00Z</time>
      </trkpt>
      <trkpt lat="63.40655083" lon="10.470254">
        <ele>159.87</ele>
        <time>1970-01-01T01:00:00Z</time>
      </trkpt>
      <trkpt lat="63.40654333" lon="10.47022033">
        <ele>159.87</ele>
        <time>1970-01-01T01:00:00Z</time>
      </trkpt>
      <trkpt lat="63.406536" lon="10.470187">
        <ele>159.87</ele>
        <time>1970-01-01T01:00:00Z</time>
      </trkpt>
      <trkpt lat="63.40652883" lon="10.47015483">
        <ele>159.87</ele>
        <time>1970-01-01T01:00:00Z</time>
      </trkpt>
      <trkpt lat="63.40652067" lon="10.470124">
        <ele>159.87</ele>
        <time>1970-01-01T01:00:00Z</time>
      </trkpt>
      <trkpt lat="63.40651283" lon="10.47009267">
        <ele>159.717</ele>
        <time>1970-01-01T01:00:00Z</time>
      </trkpt>
      <trkpt lat="63.40650433" lon="10.470062">
        <ele>159.717</ele>
        <time>1970-01-01T01:00:00Z</time>
      </trkpt>
      <trkpt lat="63.406496" lon="10.47003167">
        <ele>159.717</ele>
        <time>1970-01-01T01:00:00Z</time>
      </trkpt>
      <trkpt lat="63.406487" lon="10.470003">
        <ele>159.717</ele>
        <time>1970-01-01T01:00:00Z</time>
      </trkpt>
      <trkpt lat="63.40647733" lon="10.46997667">
        <ele>159.717</ele>
        <time>1970-01-01T01:00:00Z</time>
      </trkpt>
      <trkpt lat="63.4064675" lon="10.46995083">
        <ele>159.717</ele>
        <time>1970-01-01T01:00:00Z</time>
      </trkpt>
      <trkpt lat="63.40645733" lon="10.4699245">
        <ele>159.717</ele>
        <time>1970-01-01T01:00:00Z</time>
      </trkpt>
      <trkpt lat="63.406447" lon="10.4698965">
        <ele>159.717</ele>
        <time>1970-01-01T01:00:00Z</time>
      </trkpt>
      <trkpt lat="63.406437" lon="10.4698685">
        <ele>159.717</ele>
        <time>1970-01-01T01:00:00Z</time>
      </trkpt>
      <trkpt lat="63.40642833" lon="10.4698385">
        <ele>159.717</ele>
        <time>1970-01-01T01:00:00Z</time>
      </trkpt>
      <trkpt lat="63.40642117" lon="10.469807">
        <ele>159.565</ele>
        <time>1970-01-01T01:00:00Z</time>
      </trkpt>
      <trkpt lat="63.40641417" lon="10.469776">
        <ele>159.565</ele>
        <time>1970-01-01T01:00:00Z</time>
      </trkpt>
      <trkpt lat="63.4064065" lon="10.46974717">
        <ele>159.565</ele>
        <time>1970-01-01T01:00:00Z</time>
      </trkpt>
      <trkpt lat="63.40639817" lon="10.4697185">
        <ele>159.565</ele>
        <time>1970-01-01T01:00:00Z</time>
      </trkpt>
      <trkpt lat="63.40639017" lon="10.46968917">
        <ele>159.565</ele>
        <time>1970-01-01T01:00:00Z</time>
      </trkpt>
      <trkpt lat="63.40638217" lon="10.4696605">
        <ele>159.565</ele>
        <time>1970-01-01T01:00:00Z</time>
      </trkpt>
      <trkpt lat="63.4063745" lon="10.469631">
        <ele>159.565</ele>
        <time>1970-01-01T01:00:00Z</time>
      </trkpt>
      <trkpt lat="63.40636733" lon="10.46960117">
        <ele>159.565</ele>
        <time>1970-01-01T01:00:00Z</time>
      </trkpt>
      <trkpt lat="63.40635933" lon="10.46957217">
        <ele>159.565</ele>
        <time>1970-01-01T01:00:00Z</time>
      </trkpt>
      <trkpt lat="63.406351" lon="10.46954467">
        <ele>159.565</ele>
        <time>1970-01-01T01:00:00Z</time>
      </trkpt>
      <trkpt lat="63.4063415" lon="10.469519">
        <ele>159.565</ele>
        <time>1970-01-01T01:00:00Z</time>
      </trkpt>
      <trkpt lat="63.40633333" lon="10.46949117">
        <ele>159.565</ele>
        <time>1970-01-01T01:00:00Z</time>
      </trkpt>
      <trkpt lat="63.40632517" lon="10.46946367">
        <ele>159.412</ele>
        <time>1970-01-01T01:00:00Z</time>
      </trkpt>
      <trkpt lat="63.40631733" lon="10.4694345">
        <ele>159.412</ele>
        <time>1970-01-01T01:00:00Z</time>
      </trkpt>
      <trkpt lat="63.4063095" lon="10.46940617">
        <ele>159.412</ele>
        <time>1970-01-01T01:00:00Z</time>
      </trkpt>
      <trkpt lat="63.40630117" lon="10.469378">
        <ele>159.412</ele>
        <time>1970-01-01T01:00:00Z</time>
      </trkpt>
      <trkpt lat="63.406293" lon="10.4693495">
        <ele>159.412</ele>
        <time>1970-01-01T01:00:00Z</time>
      </trkpt>
      <trkpt lat="63.40628533" lon="10.469319">
        <ele>159.412</ele>
        <time>1970-01-01T01:00:00Z</time>
      </trkpt>
      <trkpt lat="63.40627617" lon="10.46928817">
        <ele>159.412</ele>
        <time>1970-01-01T01:00:00Z</time>
      </trkpt>
      <trkpt lat="63.40626617" lon="10.46926067">
        <ele>159.412</ele>
        <time>1970-01-01T01:00:00Z</time>
      </trkpt>
      <trkpt lat="63.40625517" lon="10.469234">
        <ele>159.412</ele>
        <time>1970-01-01T01:00:00Z</time>
      </trkpt>
      <trkpt lat="63.40624583" lon="10.469206">
        <ele>159.412</ele>
        <time>1970-01-01T01:00:00Z</time>
      </trkpt>
      <trkpt lat="63.40623533" lon="10.46917683">
        <ele>159.412</ele>
        <time>1970-01-01T01:00:00Z</time>
      </trkpt>
      <trkpt lat="63.40622483" lon="10.469149">
        <ele>159.412</ele>
        <time>1970-01-01T01:00:00Z</time>
      </trkpt>
      <trkpt lat="63.406216" lon="10.4691185">
        <ele>159.412</ele>
        <time>1970-01-01T01:00:00Z</time>
      </trkpt>
      <trkpt lat="63.40621" lon="10.4690835">
        <ele>159.412</ele>
        <time>1970-01-01T01:00:00Z</time>
      </trkpt>
      <trkpt lat="63.40620417" lon="10.4690475">
        <ele>159.412</ele>
        <time>1970-01-01T01:00:00Z</time>
      </trkpt>
      <trkpt lat="63.40619717" lon="10.46901367">
        <ele>159.412</ele>
        <time>1970-01-01T01:00:00Z</time>
      </trkpt>
      <trkpt lat="63.4061905" lon="10.46898167">
        <ele>159.412</ele>
        <time>1970-01-01T01:00:00Z</time>
      </trkpt>
      <trkpt lat="63.406184" lon="10.46895">
        <ele>159.412</ele>
        <time>1970-01-01T01:00:00Z</time>
      </trkpt>
      <trkpt lat="63.4061775" lon="10.46892">
        <ele>159.412</ele>
        <time>1970-01-01T01:00:00Z</time>
      </trkpt>
      <trkpt lat="63.40617" lon="10.46888983">
        <ele>159.412</ele>
        <time>1970-01-01T01:00:00Z</time>
      </trkpt>
      <trkpt lat="63.4061615" lon="10.46886">
        <ele>159.412</ele>
        <time>1970-01-01T01:00:00Z</time>
      </trkpt>
      <trkpt lat="63.40615167" lon="10.468831">
        <ele>159.412</ele>
        <time>1970-01-01T01:00:00Z</time>
      </trkpt>
      <trkpt lat="63.40614167" lon="10.46880283">
        <ele>159.412</ele>
        <time>1970-01-01T01:00:00Z</time>
      </trkpt>
      <trkpt lat="63.4061305" lon="10.46877783">
        <ele>159.412</ele>
        <time>1970-01-01T01:00:00Z</time>
      </trkpt>
      <trkpt lat="63.40611917" lon="10.4687525">
        <ele>159.565</ele>
        <time>1970-01-01T01:00:00Z</time>
      </trkpt>
      <trkpt lat="63.40610917" lon="10.46872617">
        <ele>159.565</ele>
        <time>1970-01-01T01:00:00Z</time>
      </trkpt>
      <trkpt lat="63.40609983" lon="10.46869817">
        <ele>159.565</ele>
        <time>1970-01-01T01:00:00Z</time>
      </trkpt>
      <trkpt lat="63.406092" lon="10.468669">
        <ele>159.565</ele>
        <time>1970-01-01T01:00:00Z</time>
      </trkpt>
      <trkpt lat="63.406086" lon="10.46863783">
        <ele>159.565</ele>
        <time>1970-01-01T01:00:00Z</time>
      </trkpt>
      <trkpt lat="63.40608233" lon="10.46860233">
        <ele>159.565</ele>
        <time>1970-01-01T01:00:00Z</time>
      </trkpt>
      <trkpt lat="63.40607867" lon="10.4685645">
        <ele>159.565</ele>
        <time>1970-01-01T01:00:00Z</time>
      </trkpt>
      <trkpt lat="63.40607267" lon="10.46853017">
        <ele>159.565</ele>
        <time>1970-01-01T01:00:00Z</time>
      </trkpt>
      <trkpt lat="63.406067" lon="10.46849783">
        <ele>159.565</ele>
        <time>1970-01-01T01:00:00Z</time>
      </trkpt>
      <trkpt lat="63.406062" lon="10.46846583">
        <ele>159.565</ele>
        <time>1970-01-01T01:00:00Z</time>
      </trkpt>
      <trkpt lat="63.40605733" lon="10.46843333">
        <ele>159.565</ele>
        <time>1970-01-01T01:00:00Z</time>
      </trkpt>
      <trkpt lat="63.40605283" lon="10.46839917">
        <ele>159.565</ele>
        <time>1970-01-01T01:00:00Z</time>
      </trkpt>
      <trkpt lat="63.40604883" lon="10.4683655">
        <ele>159.565</ele>
        <time>1970-01-01T01:00:00Z</time>
      </trkpt>
      <trkpt lat="63.40604567" lon="10.46833217">
        <ele>159.565</ele>
        <time>1970-01-01T01:00:00Z</time>
      </trkpt>
      <trkpt lat="63.406043" lon="10.4683">
        <ele>159.565</ele>
        <time>1970-01-01T01:00:00Z</time>
      </trkpt>
      <trkpt lat="63.40604033" lon="10.4682675">
        <ele>159.565</ele>
        <time>1970-01-01T01:00:00Z</time>
      </trkpt>
      <trkpt lat="63.40603817" lon="10.468233">
        <ele>159.565</ele>
        <time>1970-01-01T01:00:00Z</time>
      </trkpt>
      <trkpt lat="63.40603533" lon="10.46819833">
        <ele>159.565</ele>
        <time>1970-01-01T01:00:00Z</time>
      </trkpt>
      <trkpt lat="63.40603183" lon="10.468164">
        <ele>159.717</ele>
        <time>1970-01-01T01:00:00Z</time>
      </trkpt>
      <trkpt lat="63.40602833" lon="10.46813067">
        <ele>159.717</ele>
        <time>1970-01-01T01:00:00Z</time>
      </trkpt>
      <trkpt lat="63.40602617" lon="10.46809867">
        <ele>159.717</ele>
        <time>1970-01-01T01:00:00Z</time>
      </trkpt>
      <trkpt lat="63.40602233" lon="10.4680665">
        <ele>159.717</ele>
        <time>1970-01-01T01:00:00Z</time>
      </trkpt>
      <trkpt lat="63.40602033" lon="10.46803433">
        <ele>159.717</ele>
        <time>1970-01-01T01:00:00Z</time>
      </trkpt>
      <trkpt lat="63.406015" lon="10.46800317">
        <ele>159.717</ele>
        <time>1970-01-01T01:00:00Z</time>
      </trkpt>
      <trkpt lat="63.40601033" lon="10.46797567">
        <ele>159.717</ele>
        <time>1970-01-01T01:00:00Z</time>
      </trkpt>
      <trkpt lat="63.40600267" lon="10.46795067">
        <ele>159.717</ele>
        <time>1970-01-01T01:00:00Z</time>
      </trkpt>
      <trkpt lat="63.405995" lon="10.46792383">
        <ele>159.87</ele>
        <time>1970-01-01T01:00:00Z</time>
      </trkpt>
      <trkpt lat="63.4059865" lon="10.46789633">
        <ele>159.87</ele>
        <time>1970-01-01T01:00:00Z</time>
      </trkpt>
      <trkpt lat="63.405978" lon="10.46786767">
        <ele>159.87</ele>
        <time>1970-01-01T01:00:00Z</time>
      </trkpt>
      <trkpt lat="63.40597017" lon="10.46784067">
        <ele>159.87</ele>
        <time>1970-01-01T01:00:00Z</time>
      </trkpt>
      <trkpt lat="63.4059645" lon="10.46781183">
        <ele>159.87</ele>
        <time>1970-01-01T01:00:00Z</time>
      </trkpt>
      <trkpt lat="63.40595783" lon="10.46778333">
        <ele>159.87</ele>
        <time>1970-01-01T01:00:00Z</time>
      </trkpt>
      <trkpt lat="63.40595067" lon="10.4677535">
        <ele>159.87</ele>
        <time>1970-01-01T01:00:00Z</time>
      </trkpt>
      <trkpt lat="63.40594267" lon="10.4677215">
        <ele>159.87</ele>
        <time>1970-01-01T01:00:00Z</time>
      </trkpt>
      <trkpt lat="63.405935" lon="10.46768867">
        <ele>159.87</ele>
        <time>1970-01-01T01:00:00Z</time>
      </trkpt>
      <trkpt lat="63.405927" lon="10.46765617">
        <ele>159.87</ele>
        <time>1970-01-01T01:00:00Z</time>
      </trkpt>
      <trkpt lat="63.40591883" lon="10.46762517">
        <ele>159.87</ele>
        <time>1970-01-01T01:00:00Z</time>
      </trkpt>
      <trkpt lat="63.4059105" lon="10.46759333">
        <ele>159.87</ele>
        <time>1970-01-01T01:00:00Z</time>
      </trkpt>
      <trkpt lat="63.4059025" lon="10.4675615">
        <ele>159.87</ele>
        <time>1970-01-01T01:00:00Z</time>
      </trkpt>
      <trkpt lat="63.40589417" lon="10.46752967">
        <ele>159.87</ele>
        <time>1970-01-01T01:00:00Z</time>
      </trkpt>
      <trkpt lat="63.40588533" lon="10.46749867">
        <ele>159.87</ele>
        <time>1970-01-01T01:00:00Z</time>
      </trkpt>
      <trkpt lat="63.40587517" lon="10.46746767">
        <ele>159.87</ele>
        <time>1970-01-01T01:00:00Z</time>
      </trkpt>
      <trkpt lat="63.40586567" lon="10.4674355">
        <ele>159.87</ele>
        <time>1970-01-01T01:00:00Z</time>
      </trkpt>
      <trkpt lat="63.40585717" lon="10.46740283">
        <ele>159.87</ele>
        <time>1970-01-01T01:00:00Z</time>
      </trkpt>
      <trkpt lat="63.40584817" lon="10.46736783">
        <ele>159.87</ele>
        <time>1970-01-01T01:00:00Z</time>
      </trkpt>
      <trkpt lat="63.40583883" lon="10.46733283">
        <ele>159.87</ele>
        <time>1970-01-01T01:00:00Z</time>
      </trkpt>
      <trkpt lat="63.40582933" lon="10.46729683">
        <ele>159.87</ele>
        <time>1970-01-01T01:00:00Z</time>
      </trkpt>
      <trkpt lat="63.40582017" lon="10.4672605">
        <ele>159.87</ele>
        <time>1970-01-01T01:00:00Z</time>
      </trkpt>
      <trkpt lat="63.4058115" lon="10.46722483">
        <ele>160.022</ele>
        <time>1970-01-01T01:00:00Z</time>
      </trkpt>
      <trkpt lat="63.40580367" lon="10.46718967">
        <ele>160.022</ele>
        <time>1970-01-01T01:00:00Z</time>
      </trkpt>
      <trkpt lat="63.405798" lon="10.4671565">
        <ele>160.174</ele>
        <time>1970-01-01T01:00:00Z</time>
      </trkpt>
      <trkpt lat="63.40579283" lon="10.46712317">
        <ele>160.174</ele>
        <time>1970-01-01T01:00:00Z</time>
      </trkpt>
      <trkpt lat="63.40578783" lon="10.46709017">
        <ele>160.327</ele>
        <time>1970-01-01T01:00:00Z</time>
      </trkpt>
      <trkpt lat="63.4057825" lon="10.4670575">
        <ele>160.327</ele>
        <time>1970-01-01T01:00:00Z</time>
      </trkpt>
      <trkpt lat="63.40577667" lon="10.46702767">
        <ele>160.479</ele>
        <time>1970-01-01T01:00:00Z</time>
      </trkpt>
      <trkpt lat="63.40577267" lon="10.46700067">
        <ele>160.479</ele>
        <time>1970-01-01T01:00:00Z</time>
      </trkpt>
      <trkpt lat="63.40576817" lon="10.4669745">
        <ele>160.632</ele>
        <time>1970-01-01T01:00:00Z</time>
      </trkpt>
      <trkpt lat="63.40576433" lon="10.466946">
        <ele>160.632</ele>
        <time>1970-01-01T01:00:00Z</time>
      </trkpt>
      <trkpt lat="63.40576017" lon="10.4669145">
        <ele>160.632</ele>
        <time>1970-01-01T01:00:00Z</time>
      </trkpt>
      <trkpt lat="63.40575667" lon="10.46688483">
        <ele>160.632</ele>
        <time>1970-01-01T01:00:00Z</time>
      </trkpt>
      <trkpt lat="63.40575217" lon="10.46685317">
        <ele>160.784</ele>
        <time>1970-01-01T01:00:00Z</time>
      </trkpt>
      <trkpt lat="63.40574667" lon="10.466823">
        <ele>160.784</ele>
        <time>1970-01-01T01:00:00Z</time>
      </trkpt>
      <trkpt lat="63.40574083" lon="10.466789">
        <ele>160.784</ele>
        <time>1970-01-01T01:00:00Z</time>
      </trkpt>
      <trkpt lat="63.40573633" lon="10.46675617">
        <ele>160.784</ele>
        <time>1970-01-01T01:00:00Z</time>
      </trkpt>
      <trkpt lat="63.405732" lon="10.4667215">
        <ele>160.784</ele>
        <time>1970-01-01T01:00:00Z</time>
      </trkpt>
      <trkpt lat="63.4057275" lon="10.46668733">
        <ele>160.784</ele>
        <time>1970-01-01T01:00:00Z</time>
      </trkpt>
      <trkpt lat="63.405723" lon="10.46665433">
        <ele>160.784</ele>
        <time>1970-01-01T01:00:00Z</time>
      </trkpt>
      <trkpt lat="63.40571783" lon="10.466623">
        <ele>160.784</ele>
        <time>1970-01-01T01:00:00Z</time>
      </trkpt>
      <trkpt lat="63.40571317" lon="10.46659067">
        <ele>160.784</ele>
        <time>1970-01-01T01:00:00Z</time>
      </trkpt>
      <trkpt lat="63.40570883" lon="10.46655817">
        <ele>160.784</ele>
        <time>1970-01-01T01:00:00Z</time>
      </trkpt>
      <trkpt lat="63.40570583" lon="10.4665235">
        <ele>160.784</ele>
        <time>1970-01-01T01:00:00Z</time>
      </trkpt>
      <trkpt lat="63.405703" lon="10.46649">
        <ele>160.784</ele>
        <time>1970-01-01T01:00:00Z</time>
      </trkpt>
      <trkpt lat="63.405701" lon="10.46645517">
        <ele>160.784</ele>
        <time>1970-01-01T01:00:00Z</time>
      </trkpt>
      <trkpt lat="63.40569967" lon="10.466424">
        <ele>160.784</ele>
        <time>1970-01-01T01:00:00Z</time>
      </trkpt>
      <trkpt lat="63.40569783" lon="10.46639317">
        <ele>160.784</ele>
        <time>1970-01-01T01:00:00Z</time>
      </trkpt>
      <trkpt lat="63.40569683" lon="10.46636467">
        <ele>160.784</ele>
        <time>1970-01-01T01:00:00Z</time>
      </trkpt>
      <trkpt lat="63.40569617" lon="10.466332">
        <ele>160.784</ele>
        <time>1970-01-01T01:00:00Z</time>
      </trkpt>
      <trkpt lat="63.40569667" lon="10.4663">
        <ele>160.784</ele>
        <time>1970-01-01T01:00:00Z</time>
      </trkpt>
      <trkpt lat="63.40569633" lon="10.466267">
        <ele>160.784</ele>
        <time>1970-01-01T01:00:00Z</time>
      </trkpt>
      <trkpt lat="63.40569483" lon="10.46623567">
        <ele>160.784</ele>
        <time>1970-01-01T01:00:00Z</time>
      </trkpt>
      <trkpt lat="63.40569233" lon="10.46620417">
        <ele>160.784</ele>
        <time>1970-01-01T01:00:00Z</time>
      </trkpt>
      <trkpt lat="63.405689" lon="10.4661715">
        <ele>160.784</ele>
        <time>1970-01-01T01:00:00Z</time>
      </trkpt>
      <trkpt lat="63.4056855" lon="10.46613933">
        <ele>160.632</ele>
        <time>1970-01-01T01:00:00Z</time>
      </trkpt>
      <trkpt lat="63.4056825" lon="10.46610667">
        <ele>160.632</ele>
        <time>1970-01-01T01:00:00Z</time>
      </trkpt>
      <trkpt lat="63.40567967" lon="10.46607517">
        <ele>160.632</ele>
        <time>1970-01-01T01:00:00Z</time>
      </trkpt>
      <trkpt lat="63.40567667" lon="10.46604283">
        <ele>160.632</ele>
        <time>1970-01-01T01:00:00Z</time>
      </trkpt>
      <trkpt lat="63.40567317" lon="10.46600967">
        <ele>160.632</ele>
        <time>1970-01-01T01:00:00Z</time>
      </trkpt>
      <trkpt lat="63.40566933" lon="10.46597583">
        <ele>160.632</ele>
        <time>1970-01-01T01:00:00Z</time>
      </trkpt>
      <trkpt lat="63.4056655" lon="10.46594183">
        <ele>160.632</ele>
        <time>1970-01-01T01:00:00Z</time>
      </trkpt>
      <trkpt lat="63.40566217" lon="10.46590833">
        <ele>160.632</ele>
        <time>1970-01-01T01:00:00Z</time>
      </trkpt>
      <trkpt lat="63.40565917" lon="10.4658755">
        <ele>160.632</ele>
        <time>1970-01-01T01:00:00Z</time>
      </trkpt>
      <trkpt lat="63.40565633" lon="10.465843">
        <ele>160.632</ele>
        <time>1970-01-01T01:00:00Z</time>
      </trkpt>
      <trkpt lat="63.40565383" lon="10.46581117">
        <ele>160.632</ele>
        <time>1970-01-01T01:00:00Z</time>
      </trkpt>
      <trkpt lat="63.40565117" lon="10.46577817">
        <ele>160.632</ele>
        <time>1970-01-01T01:00:00Z</time>
      </trkpt>
      <trkpt lat="63.405649" lon="10.46574483">
        <ele>160.632</ele>
        <time>1970-01-01T01:00:00Z</time>
      </trkpt>
      <trkpt lat="63.40564733" lon="10.46570983">
        <ele>160.632</ele>
        <time>1970-01-01T01:00:00Z</time>
      </trkpt>
      <trkpt lat="63.40564617" lon="10.4656745">
        <ele>160.632</ele>
        <time>1970-01-01T01:00:00Z</time>
      </trkpt>
      <trkpt lat="63.40564567" lon="10.46563683">
        <ele>160.632</ele>
        <time>1970-01-01T01:00:00Z</time>
      </trkpt>
      <trkpt lat="63.40564633" lon="10.46560033">
        <ele>160.632</ele>
        <time>1970-01-01T01:00:00Z</time>
      </trkpt>
      <trkpt lat="63.405648" lon="10.46556467">
        <ele>160.632</ele>
        <time>1970-01-01T01:00:00Z</time>
      </trkpt>
      <trkpt lat="63.4056485" lon="10.465532">
        <ele>160.632</ele>
        <time>1970-01-01T01:00:00Z</time>
      </trkpt>
      <trkpt lat="63.40564817" lon="10.46549867">
        <ele>160.632</ele>
        <time>1970-01-01T01:00:00Z</time>
      </trkpt>
      <trkpt lat="63.405647" lon="10.46546567">
        <ele>160.479</ele>
        <time>1970-01-01T01:00:00Z</time>
      </trkpt>
      <trkpt lat="63.40564567" lon="10.465432">
        <ele>160.479</ele>
        <time>1970-01-01T01:00:00Z</time>
      </trkpt>
      <trkpt lat="63.40564383" lon="10.465397">
        <ele>160.479</ele>
        <time>1970-01-01T01:00:00Z</time>
      </trkpt>
      <trkpt lat="63.4056415" lon="10.4653615">
        <ele>160.479</ele>
        <time>1970-01-01T01:00:00Z</time>
      </trkpt>
      <trkpt lat="63.4056395" lon="10.46532517">
        <ele>160.479</ele>
        <time>1970-01-01T01:00:00Z</time>
      </trkpt>
      <trkpt lat="63.40563717" lon="10.465289">
        <ele>160.479</ele>
        <time>1970-01-01T01:00:00Z</time>
      </trkpt>
      <trkpt lat="63.405634" lon="10.465254">
        <ele>160.479</ele>
        <time>1970-01-01T01:00:00Z</time>
      </trkpt>
      <trkpt lat="63.40563083" lon="10.46522067">
        <ele>160.479</ele>
        <time>1970-01-01T01:00:00Z</time>
      </trkpt>
      <trkpt lat="63.40562767" lon="10.465188">
        <ele>160.632</ele>
        <time>1970-01-01T01:00:00Z</time>
      </trkpt>
      <trkpt lat="63.40562567" lon="10.4651555">
        <ele>160.632</ele>
        <time>1970-01-01T01:00:00Z</time>
      </trkpt>
      <trkpt lat="63.40562267" lon="10.46512133">
        <ele>160.632</ele>
        <time>1970-01-01T01:00:00Z</time>
      </trkpt>
      <trkpt lat="63.40561867" lon="10.4650885">
        <ele>160.632</ele>
        <time>1970-01-01T01:00:00Z</time>
      </trkpt>
      <trkpt lat="63.40561383" lon="10.4650555">
        <ele>160.632</ele>
        <time>1970-01-01T01:00:00Z</time>
      </trkpt>
      <trkpt lat="63.40560967" lon="10.465027">
        <ele>160.632</ele>
        <time>1970-01-01T01:00:00Z</time>
      </trkpt>
      <trkpt lat="63.4056055" lon="10.4649965">
        <ele>160.632</ele>
        <time>1970-01-01T01:00:00Z</time>
      </trkpt>
      <trkpt lat="63.40560183" lon="10.464965">
        <ele>160.632</ele>
        <time>1970-01-01T01:00:00Z</time>
      </trkpt>
      <trkpt lat="63.40559683" lon="10.46493133">
        <ele>160.784</ele>
        <time>1970-01-01T01:00:00Z</time>
      </trkpt>
      <trkpt lat="63.40559267" lon="10.464898">
        <ele>160.784</ele>
        <time>1970-01-01T01:00:00Z</time>
      </trkpt>
      <trkpt lat="63.40558867" lon="10.4648655">
        <ele>160.784</ele>
        <time>1970-01-01T01:00:00Z</time>
      </trkpt>
      <trkpt lat="63.40558483" lon="10.46483283">
        <ele>160.784</ele>
        <time>1970-01-01T01:00:00Z</time>
      </trkpt>
      <trkpt lat="63.40558" lon="10.46480017">
        <ele>160.936</ele>
        <time>1970-01-01T01:00:00Z</time>
      </trkpt>
      <trkpt lat="63.4055755" lon="10.46476583">
        <ele>160.936</ele>
        <time>1970-01-01T01:00:00Z</time>
      </trkpt>
      <trkpt lat="63.40557117" lon="10.4647305">
        <ele>161.089</ele>
        <time>1970-01-01T01:00:00Z</time>
      </trkpt>
      <trkpt lat="63.40556717" lon="10.464694">
        <ele>161.089</ele>
        <time>1970-01-01T01:00:00Z</time>
      </trkpt>
      <trkpt lat="63.405562" lon="10.46465817">
        <ele>161.089</ele>
        <time>1970-01-01T01:00:00Z</time>
      </trkpt>
      <trkpt lat="63.4055575" lon="10.46462367">
        <ele>161.089</ele>
        <time>1970-01-01T01:00:00Z</time>
      </trkpt>
      <trkpt lat="63.40555367" lon="10.46459017">
        <ele>161.241</ele>
        <time>1970-01-01T01:00:00Z</time>
      </trkpt>
      <trkpt lat="63.40555017" lon="10.4645565">
        <ele>161.241</ele>
        <time>1970-01-01T01:00:00Z</time>
      </trkpt>
      <trkpt lat="63.40554633" lon="10.46452217">
        <ele>161.394</ele>
        <time>1970-01-01T01:00:00Z</time>
      </trkpt>
      <trkpt lat="63.40554183" lon="10.46448917">
        <ele>161.394</ele>
        <time>1970-01-01T01:00:00Z</time>
      </trkpt>
      <trkpt lat="63.40553683" lon="10.4644575">
        <ele>161.546</ele>
        <time>1970-01-01T01:00:00Z</time>
      </trkpt>
      <trkpt lat="63.40553267" lon="10.46442667">
        <ele>161.546</ele>
        <time>1970-01-01T01:00:00Z</time>
      </trkpt>
      <trkpt lat="63.40552917" lon="10.4643965">
        <ele>161.698</ele>
        <time>1970-01-01T01:00:00Z</time>
      </trkpt>
      <trkpt lat="63.40552633" lon="10.464366">
        <ele>161.698</ele>
        <time>1970-01-01T01:00:00Z</time>
      </trkpt>
      <trkpt lat="63.40552267" lon="10.46433483">
        <ele>161.851</ele>
        <time>1970-01-01T01:00:00Z</time>
      </trkpt>
      <trkpt lat="63.405519" lon="10.46430183">
        <ele>161.851</ele>
        <time>1970-01-01T01:00:00Z</time>
      </trkpt>
      <trkpt lat="63.40551467" lon="10.46426883">
        <ele>162.003</ele>
        <time>1970-01-01T01:00:00Z</time>
      </trkpt>
      <trkpt lat="63.40551067" lon="10.46423633">
        <ele>162.003</ele>
        <time>1970-01-01T01:00:00Z</time>
      </trkpt>
      <trkpt lat="63.4055065" lon="10.46420517">
        <ele>162.156</ele>
        <time>1970-01-01T01:00:00Z</time>
      </trkpt>
      <trkpt lat="63.40550283" lon="10.46417233">
        <ele>162.156</ele>
        <time>1970-01-01T01:00:00Z</time>
      </trkpt>
      <trkpt lat="63.40549867" lon="10.46413933">
        <ele>162.308</ele>
        <time>1970-01-01T01:00:00Z</time>
      </trkpt>
      <trkpt lat="63.40549617" lon="10.46410233">
        <ele>162.308</ele>
        <time>1970-01-01T01:00:00Z</time>
      </trkpt>
      <trkpt lat="63.405493" lon="10.46406817">
        <ele>162.46</ele>
        <time>1970-01-01T01:00:00Z</time>
      </trkpt>
      <trkpt lat="63.40549067" lon="10.4640295">
        <ele>162.46</ele>
        <time>1970-01-01T01:00:00Z</time>
      </trkpt>
      <trkpt lat="63.40548683" lon="10.46399283">
        <ele>162.613</ele>
        <time>1970-01-01T01:00:00Z</time>
      </trkpt>
      <trkpt lat="63.40548367" lon="10.46395433">
        <ele>162.613</ele>
        <time>1970-01-01T01:00:00Z</time>
      </trkpt>
      <trkpt lat="63.40548067" lon="10.46391817">
        <ele>162.765</ele>
        <time>1970-01-01T01:00:00Z</time>
      </trkpt>
      <trkpt lat="63.40547783" lon="10.46388367">
        <ele>162.765</ele>
        <time>1970-01-01T01:00:00Z</time>
      </trkpt>
      <trkpt lat="63.405478" lon="10.46384733">
        <ele>162.918</ele>
        <time>1970-01-01T01:00:00Z</time>
      </trkpt>
      <trkpt lat="63.4054815" lon="10.4638135">
        <ele>162.918</ele>
        <time>1970-01-01T01:00:00Z</time>
      </trkpt>
      <trkpt lat="63.40548867" lon="10.4637835">
        <ele>163.07</ele>
        <time>1970-01-01T01:00:00Z</time>
      </trkpt>
      <trkpt lat="63.405496" lon="10.46376">
        <ele>163.07</ele>
        <time>1970-01-01T01:00:00Z</time>
      </trkpt>
      <trkpt lat="63.40550267" lon="10.46373717">
        <ele>163.222</ele>
        <time>1970-01-01T01:00:00Z</time>
      </trkpt>
      <trkpt lat="63.40550767" lon="10.46371183">
        <ele>163.222</ele>
        <time>1970-01-01T01:00:00Z</time>
      </trkpt>
      <trkpt lat="63.40551133" lon="10.46368317">
        <ele>163.222</ele>
        <time>1970-01-01T01:00:00Z</time>
      </trkpt>
      <trkpt lat="63.40551317" lon="10.46365467">
        <ele>163.222</ele>
        <time>1970-01-01T01:00:00Z</time>
      </trkpt>
      <trkpt lat="63.40551317" lon="10.46362517">
        <ele>163.375</ele>
        <time>1970-01-01T01:00:00Z</time>
      </trkpt>
      <trkpt lat="63.4055115" lon="10.463596">
        <ele>163.375</ele>
        <time>1970-01-01T01:00:00Z</time>
      </trkpt>
      <trkpt lat="63.4055085" lon="10.463566">
        <ele>163.527</ele>
        <time>1970-01-01T01:00:00Z</time>
      </trkpt>
      <trkpt lat="63.405505" lon="10.46353667">
        <ele>163.527</ele>
        <time>1970-01-01T01:00:00Z</time>
      </trkpt>
      <trkpt lat="63.40550117" lon="10.46350583">
        <ele>163.68</ele>
        <time>1970-01-01T01:00:00Z</time>
      </trkpt>
      <trkpt lat="63.405496" lon="10.46347317">
        <ele>163.68</ele>
        <time>1970-01-01T01:00:00Z</time>
      </trkpt>
      <trkpt lat="63.40549033" lon="10.46344017">
        <ele>163.832</ele>
        <time>1970-01-01T01:00:00Z</time>
      </trkpt>
      <trkpt lat="63.40548467" lon="10.463408">
        <ele>163.832</ele>
        <time>1970-01-01T01:00:00Z</time>
      </trkpt>
      <trkpt lat="63.40548" lon="10.46337667">
        <ele>163.832</ele>
        <time>1970-01-01T01:00:00Z</time>
      </trkpt>
      <trkpt lat="63.4054755" lon="10.46334383">
        <ele>163.832</ele>
        <time>1970-01-01T01:00:00Z</time>
      </trkpt>
      <trkpt lat="63.40547067" lon="10.4633095">
        <ele>163.984</ele>
        <time>1970-01-01T01:00:00Z</time>
      </trkpt>
      <trkpt lat="63.40546567" lon="10.46327333">
        <ele>163.984</ele>
        <time>1970-01-01T01:00:00Z</time>
      </trkpt>
      <trkpt lat="63.4054615" lon="10.4632385">
        <ele>164.137</ele>
        <time>1970-01-01T01:00:00Z</time>
      </trkpt>
      <trkpt lat="63.405458" lon="10.4632035">
        <ele>164.137</ele>
        <time>1970-01-01T01:00:00Z</time>
      </trkpt>
      <trkpt lat="63.40545117" lon="10.46317483">
        <ele>164.289</ele>
        <time>1970-01-01T01:00:00Z</time>
      </trkpt>
      <trkpt lat="63.4054435" lon="10.463146">
        <ele>164.289</ele>
        <time>1970-01-01T01:00:00Z</time>
      </trkpt>
      <trkpt lat="63.40543483" lon="10.46311817">
        <ele>164.442</ele>
        <time>1970-01-01T01:00:00Z</time>
      </trkpt>
      <trkpt lat="63.405429" lon="10.46308517">
        <ele>164.442</ele>
        <time>1970-01-01T01:00:00Z</time>
      </trkpt>
      <trkpt lat="63.40542233" lon="10.46305167">
        <ele>164.594</ele>
        <time>1970-01-01T01:00:00Z</time>
      </trkpt>
      <trkpt lat="63.40541567" lon="10.463017">
        <ele>164.594</ele>
        <time>1970-01-01T01:00:00Z</time>
      </trkpt>
      <trkpt lat="63.4054085" lon="10.46298717">
        <ele>164.899</ele>
        <time>1970-01-01T01:00:00Z</time>
      </trkpt>
      <trkpt lat="63.405402" lon="10.46295867">
        <ele>164.899</ele>
        <time>1970-01-01T01:00:00Z</time>
      </trkpt>
      <trkpt lat="63.40539567" lon="10.46293283">
        <ele>165.051</ele>
        <time>1970-01-01T01:00:00Z</time>
      </trkpt>
      <trkpt lat="63.40538967" lon="10.46290483">
        <ele>165.051</ele>
        <time>1970-01-01T01:00:00Z</time>
      </trkpt>
      <trkpt lat="63.40538283" lon="10.4628785">
        <ele>165.356</ele>
        <time>1970-01-01T01:00:00Z</time>
      </trkpt>
      <trkpt lat="63.405376" lon="10.46285017">
        <ele>165.356</ele>
        <time>1970-01-01T01:00:00Z</time>
      </trkpt>
      <trkpt lat="63.4053705" lon="10.46281867">
        <ele>165.508</ele>
        <time>1970-01-01T01:00:00Z</time>
      </trkpt>
      <trkpt lat="63.405367" lon="10.4627845">
        <ele>165.508</ele>
        <time>1970-01-01T01:00:00Z</time>
      </trkpt>
      <trkpt lat="63.4053635" lon="10.46274783">
        <ele>165.661</ele>
        <time>1970-01-01T01:00:00Z</time>
      </trkpt>
      <trkpt lat="63.40535883" lon="10.46271283">
        <ele>165.661</ele>
        <time>1970-01-01T01:00:00Z</time>
      </trkpt>
      <trkpt lat="63.405353" lon="10.46267717">
        <ele>165.813</ele>
        <time>1970-01-01T01:00:00Z</time>
      </trkpt>
      <trkpt lat="63.40534783" lon="10.462644">
        <ele>165.813</ele>
        <time>1970-01-01T01:00:00Z</time>
      </trkpt>
      <trkpt lat="63.4053435" lon="10.462612">
        <ele>165.966</ele>
        <time>1970-01-01T01:00:00Z</time>
      </trkpt>
      <trkpt lat="63.40533983" lon="10.46258133">
        <ele>165.966</ele>
        <time>1970-01-01T01:00:00Z</time>
      </trkpt>
      <trkpt lat="63.40533667" lon="10.46254883">
        <ele>166.118</ele>
        <time>1970-01-01T01:00:00Z</time>
      </trkpt>
      <trkpt lat="63.40533367" lon="10.46251783">
        <ele>166.118</ele>
        <time>1970-01-01T01:00:00Z</time>
      </trkpt>
      <trkpt lat="63.40532883" lon="10.46248667">
        <ele>166.27</ele>
        <time>1970-01-01T01:00:00Z</time>
      </trkpt>
      <trkpt lat="63.40532117" lon="10.46245867">
        <ele>166.27</ele>
        <time>1970-01-01T01:00:00Z</time>
      </trkpt>
      <trkpt lat="63.40531233" lon="10.46242783">
        <ele>166.423</ele>
        <time>1970-01-01T01:00:00Z</time>
      </trkpt>
      <trkpt lat="63.40530383" lon="10.462398">
        <ele>166.423</ele>
        <time>1970-01-01T01:00:00Z</time>
      </trkpt>
      <trkpt lat="63.40529617" lon="10.4623685">
        <ele>166.575</ele>
        <time>1970-01-01T01:00:00Z</time>
      </trkpt>
      <trkpt lat="63.405287" lon="10.46234167">
        <ele>166.575</ele>
        <time>1970-01-01T01:00:00Z</time>
      </trkpt>
      <trkpt lat="63.4052785" lon="10.46231517">
        <ele>166.728</ele>
        <time>1970-01-01T01:00:00Z</time>
      </trkpt>
      <trkpt lat="63.405269" lon="10.46228733">
        <ele>166.728</ele>
        <time>1970-01-01T01:00:00Z</time>
      </trkpt>
      <trkpt lat="63.405259" lon="10.46226">
        <ele>166.88</ele>
        <time>1970-01-01T01:00:00Z</time>
      </trkpt>
      <trkpt lat="63.405247" lon="10.46223283">
        <ele>166.88</ele>
        <time>1970-01-01T01:00:00Z</time>
      </trkpt>
      <trkpt lat="63.40523567" lon="10.46220667">
        <ele>167.032</ele>
        <time>1970-01-01T01:00:00Z</time>
      </trkpt>
      <trkpt lat="63.40522483" lon="10.46218083">
        <ele>167.032</ele>
        <time>1970-01-01T01:00:00Z</time>
      </trkpt>
      <trkpt lat="63.40521467" lon="10.462154">
        <ele>167.032</ele>
        <time>1970-01-01T01:00:00Z</time>
      </trkpt>
      <trkpt lat="63.40520433" lon="10.46212733">
        <ele>167.032</ele>
        <time>1970-01-01T01:00:00Z</time>
      </trkpt>
      <trkpt lat="63.40519633" lon="10.46209783">
        <ele>167.185</ele>
        <time>1970-01-01T01:00:00Z</time>
      </trkpt>
      <trkpt lat="63.40518867" lon="10.4620675">
        <ele>167.185</ele>
        <time>1970-01-01T01:00:00Z</time>
      </trkpt>
      <trkpt lat="63.40518033" lon="10.46203667">
        <ele>167.337</ele>
        <time>1970-01-01T01:00:00Z</time>
      </trkpt>
      <trkpt lat="63.40517083" lon="10.46200533">
        <ele>167.337</ele>
        <time>1970-01-01T01:00:00Z</time>
      </trkpt>
      <trkpt lat="63.40516167" lon="10.46197583">
        <ele>167.49</ele>
        <time>1970-01-01T01:00:00Z</time>
      </trkpt>
      <trkpt lat="63.40515283" lon="10.461948">
        <ele>167.49</ele>
        <time>1970-01-01T01:00:00Z</time>
      </trkpt>
      <trkpt lat="63.40514417" lon="10.46192283">
        <ele>167.642</ele>
        <time>1970-01-01T01:00:00Z</time>
      </trkpt>
      <trkpt lat="63.40513517" lon="10.4618975">
        <ele>167.642</ele>
        <time>1970-01-01T01:00:00Z</time>
      </trkpt>
      <trkpt lat="63.40512617" lon="10.46187233">
        <ele>167.794</ele>
        <time>1970-01-01T01:00:00Z</time>
      </trkpt>
      <trkpt lat="63.40511767" lon="10.4618465">
        <ele>167.794</ele>
        <time>1970-01-01T01:00:00Z</time>
      </trkpt>
      <trkpt lat="63.40510833" lon="10.461821">
        <ele>167.947</ele>
        <time>1970-01-01T01:00:00Z</time>
      </trkpt>
      <trkpt lat="63.40509867" lon="10.461797">
        <ele>167.947</ele>
        <time>1970-01-01T01:00:00Z</time>
      </trkpt>
      <trkpt lat="63.4050865" lon="10.4617735">
        <ele>168.099</ele>
        <time>1970-01-01T01:00:00Z</time>
      </trkpt>
      <trkpt lat="63.405075" lon="10.46174917">
        <ele>168.099</ele>
        <time>1970-01-01T01:00:00Z</time>
      </trkpt>
      <trkpt lat="63.4050645" lon="10.46172067">
        <ele>168.252</ele>
        <time>1970-01-01T01:00:00Z</time>
      </trkpt>
      <trkpt lat="63.40505483" lon="10.46169317">
        <ele>168.252</ele>
        <time>1970-01-01T01:00:00Z</time>
      </trkpt>
      <trkpt lat="63.405044" lon="10.46166683">
        <ele>168.404</ele>
        <time>1970-01-01T01:00:00Z</time>
      </trkpt>
      <trkpt lat="63.405033" lon="10.46164017">
        <ele>168.404</ele>
        <time>1970-01-01T01:00:00Z</time>
      </trkpt>
      <trkpt lat="63.4050215" lon="10.46161383">
        <ele>168.556</ele>
        <time>1970-01-01T01:00:00Z</time>
      </trkpt>
      <trkpt lat="63.4050115" lon="10.46158583">
        <ele>168.556</ele>
        <time>1970-01-01T01:00:00Z</time>
      </trkpt>
      <trkpt lat="63.405001" lon="10.4615605">
        <ele>168.556</ele>
        <time>1970-01-01T01:00:00Z</time>
      </trkpt>
      <trkpt lat="63.4049915" lon="10.4615345">
        <ele>168.556</ele>
        <time>1970-01-01T01:00:00Z</time>
      </trkpt>
      <trkpt lat="63.4049815" lon="10.4615105">
        <ele>168.709</ele>
        <time>1970-01-01T01:00:00Z</time>
      </trkpt>
      <trkpt lat="63.40497133" lon="10.461487">
        <ele>168.709</ele>
        <time>1970-01-01T01:00:00Z</time>
      </trkpt>
      <trkpt lat="63.40496167" lon="10.46146317">
        <ele>168.709</ele>
        <time>1970-01-01T01:00:00Z</time>
      </trkpt>
      <trkpt lat="63.40495233" lon="10.46143933">
        <ele>168.709</ele>
        <time>1970-01-01T01:00:00Z</time>
      </trkpt>
      <trkpt lat="63.40494333" lon="10.46141433">
        <ele>168.861</ele>
        <time>1970-01-01T01:00:00Z</time>
      </trkpt>
      <trkpt lat="63.4049325" lon="10.46139117">
        <ele>168.861</ele>
        <time>1970-01-01T01:00:00Z</time>
      </trkpt>
      <trkpt lat="63.4049205" lon="10.46136883">
        <ele>169.014</ele>
        <time>1970-01-01T01:00:00Z</time>
      </trkpt>
      <trkpt lat="63.40490783" lon="10.46134567">
        <ele>169.014</ele>
        <time>1970-01-01T01:00:00Z</time>
      </trkpt>
      <trkpt lat="63.40489583" lon="10.46132">
        <ele>169.166</ele>
        <time>1970-01-01T01:00:00Z</time>
      </trkpt>
      <trkpt lat="63.4048835" lon="10.46129417">
        <ele>169.166</ele>
        <time>1970-01-01T01:00:00Z</time>
      </trkpt>
      <trkpt lat="63.404871" lon="10.46127017">
        <ele>169.166</ele>
        <time>1970-01-01T01:00:00Z</time>
      </trkpt>
      <trkpt lat="63.40486083" lon="10.46124317">
        <ele>169.166</ele>
        <time>1970-01-01T01:00:00Z</time>
      </trkpt>
      <trkpt lat="63.4048515" lon="10.4612115">
        <ele>169.318</ele>
        <time>1970-01-01T01:00:00Z</time>
      </trkpt>
      <trkpt lat="63.4048435" lon="10.461177">
        <ele>169.318</ele>
        <time>1970-01-01T01:00:00Z</time>
      </trkpt>
      <trkpt lat="63.40483517" lon="10.461144">
        <ele>169.471</ele>
        <time>1970-01-01T01:00:00Z</time>
      </trkpt>
      <trkpt lat="63.40482867" lon="10.4611125">
        <ele>169.471</ele>
        <time>1970-01-01T01:00:00Z</time>
      </trkpt>
      <trkpt lat="63.40482283" lon="10.461082">
        <ele>169.623</ele>
        <time>1970-01-01T01:00:00Z</time>
      </trkpt>
      <trkpt lat="63.40481833" lon="10.4610525">
        <ele>169.623</ele>
        <time>1970-01-01T01:00:00Z</time>
      </trkpt>
      <trkpt lat="63.404815" lon="10.46102283">
        <ele>169.776</ele>
        <time>1970-01-01T01:00:00Z</time>
      </trkpt>
      <trkpt lat="63.40481167" lon="10.460991">
        <ele>169.776</ele>
        <time>1970-01-01T01:00:00Z</time>
      </trkpt>
      <trkpt lat="63.404809" lon="10.46095467">
        <ele>169.928</ele>
        <time>1970-01-01T01:00:00Z</time>
      </trkpt>
      <trkpt lat="63.4048065" lon="10.46091683">
        <ele>169.928</ele>
        <time>1970-01-01T01:00:00Z</time>
      </trkpt>
      <trkpt lat="63.40480833" lon="10.4608765">
        <ele>170.08</ele>
        <time>1970-01-01T01:00:00Z</time>
      </trkpt>
      <trkpt lat="63.40481083" lon="10.460835">
        <ele>170.08</ele>
        <time>1970-01-01T01:00:00Z</time>
      </trkpt>
      <trkpt lat="63.40481633" lon="10.46079367">
        <ele>170.08</ele>
        <time>1970-01-01T01:00:00Z</time>
      </trkpt>
      <trkpt lat="63.40482067" lon="10.46075633">
        <ele>170.08</ele>
        <time>1970-01-01T01:00:00Z</time>
      </trkpt>
      <trkpt lat="63.4048275" lon="10.46072233">
        <ele>170.233</ele>
        <time>1970-01-01T01:00:00Z</time>
      </trkpt>
      <trkpt lat="63.40483533" lon="10.46068933">
        <ele>170.233</ele>
        <time>1970-01-01T01:00:00Z</time>
      </trkpt>
      <trkpt lat="63.4048445" lon="10.4606565">
        <ele>170.385</ele>
        <time>1970-01-01T01:00:00Z</time>
      </trkpt>
      <trkpt lat="63.40485383" lon="10.46062433">
        <ele>170.385</ele>
        <time>1970-01-01T01:00:00Z</time>
      </trkpt>
      <trkpt lat="63.40486217" lon="10.46059333">
        <ele>170.385</ele>
        <time>1970-01-01T01:00:00Z</time>
      </trkpt>
      <trkpt lat="63.40487033" lon="10.4605625">
        <ele>170.385</ele>
        <time>1970-01-01T01:00:00Z</time>
      </trkpt>
      <trkpt lat="63.4048795" lon="10.46053183">
        <ele>170.385</ele>
        <time>1970-01-01T01:00:00Z</time>
      </trkpt>
      <trkpt lat="63.404889" lon="10.46050033">
        <ele>170.385</ele>
        <time>1970-01-01T01:00:00Z</time>
      </trkpt>
      <trkpt lat="63.40489917" lon="10.46046967">
        <ele>170.538</ele>
        <time>1970-01-01T01:00:00Z</time>
      </trkpt>
      <trkpt lat="63.40490883" lon="10.46043617">
        <ele>170.538</ele>
        <time>1970-01-01T01:00:00Z</time>
      </trkpt>
      <trkpt lat="63.404918" lon="10.4604015">
        <ele>170.538</ele>
        <time>1970-01-01T01:00:00Z</time>
      </trkpt>
      <trkpt lat="63.40492717" lon="10.4603695">
        <ele>170.538</ele>
        <time>1970-01-01T01:00:00Z</time>
      </trkpt>
      <trkpt lat="63.40493683" lon="10.46034133">
        <ele>170.69</ele>
        <time>1970-01-01T01:00:00Z</time>
      </trkpt>
      <trkpt lat="63.404948" lon="10.4603155">
        <ele>170.69</ele>
        <time>1970-01-01T01:00:00Z</time>
      </trkpt>
      <trkpt lat="63.40495967" lon="10.46028767">
        <ele>170.69</ele>
        <time>1970-01-01T01:00:00Z</time>
      </trkpt>
      <trkpt lat="63.40497117" lon="10.46026083">
        <ele>170.69</ele>
        <time>1970-01-01T01:00:00Z</time>
      </trkpt>
      <trkpt lat="63.40498117" lon="10.46023433">
        <ele>170.842</ele>
        <time>1970-01-01T01:00:00Z</time>
      </trkpt>
      <trkpt lat="63.40498967" lon="10.46020667">
        <ele>170.842</ele>
        <time>1970-01-01T01:00:00Z</time>
      </trkpt>
      <trkpt lat="63.40499767" lon="10.46017767">
        <ele>170.842</ele>
        <time>1970-01-01T01:00:00Z</time>
      </trkpt>
      <trkpt lat="63.40500617" lon="10.4601495">
        <ele>170.842</ele>
        <time>1970-01-01T01:00:00Z</time>
      </trkpt>
      <trkpt lat="63.40501517" lon="10.4601235">
        <ele>170.995</ele>
        <time>1970-01-01T01:00:00Z</time>
      </trkpt>
      <trkpt lat="63.405024" lon="10.460098">
        <ele>170.995</ele>
        <time>1970-01-01T01:00:00Z</time>
      </trkpt>
      <trkpt lat="63.40503233" lon="10.46007183">
        <ele>170.995</ele>
        <time>1970-01-01T01:00:00Z</time>
      </trkpt>
      <trkpt lat="63.40504017" lon="10.460047">
        <ele>170.995</ele>
        <time>1970-01-01T01:00:00Z</time>
      </trkpt>
      <trkpt lat="63.40504783" lon="10.46002233">
        <ele>171.147</ele>
        <time>1970-01-01T01:00:00Z</time>
      </trkpt>
      <trkpt lat="63.4050555" lon="10.45999767">
        <ele>171.147</ele>
        <time>1970-01-01T01:00:00Z</time>
      </trkpt>
      <trkpt lat="63.40506283" lon="10.45997017">
        <ele>171.147</ele>
        <time>1970-01-01T01:00:00Z</time>
      </trkpt>
      <trkpt lat="63.40506933" lon="10.45993967">
        <ele>171.147</ele>
        <time>1970-01-01T01:00:00Z</time>
      </trkpt>
      <trkpt lat="63.405076" lon="10.45990633">
        <ele>171.3</ele>
        <time>1970-01-01T01:00:00Z</time>
      </trkpt>
      <trkpt lat="63.40508433" lon="10.459872">
        <ele>171.3</ele>
        <time>1970-01-01T01:00:00Z</time>
      </trkpt>
      <trkpt lat="63.40509283" lon="10.45983867">
        <ele>171.452</ele>
        <time>1970-01-01T01:00:00Z</time>
      </trkpt>
      <trkpt lat="63.4051015" lon="10.45980617">
        <ele>171.452</ele>
        <time>1970-01-01T01:00:00Z</time>
      </trkpt>
      <trkpt lat="63.405109" lon="10.45977283">
        <ele>171.604</ele>
        <time>1970-01-01T01:00:00Z</time>
      </trkpt>
      <trkpt lat="63.40511783" lon="10.45974183">
        <ele>171.604</ele>
        <time>1970-01-01T01:00:00Z</time>
      </trkpt>
      <trkpt lat="63.40512617" lon="10.459712">
        <ele>171.604</ele>
        <time>1970-01-01T01:00:00Z</time>
      </trkpt>
      <trkpt lat="63.40513383" lon="10.45968317">
        <ele>171.604</ele>
        <time>1970-01-01T01:00:00Z</time>
      </trkpt>
      <trkpt lat="63.40514067" lon="10.45965283">
        <ele>171.757</ele>
        <time>1970-01-01T01:00:00Z</time>
      </trkpt>
      <trkpt lat="63.4051475" lon="10.45962283">
        <ele>171.757</ele>
        <time>1970-01-01T01:00:00Z</time>
      </trkpt>
      <trkpt lat="63.40515367" lon="10.45959217">
        <ele>171.909</ele>
        <time>1970-01-01T01:00:00Z</time>
      </trkpt>
      <trkpt lat="63.405159" lon="10.459559">
        <ele>171.909</ele>
        <time>1970-01-01T01:00:00Z</time>
      </trkpt>
      <trkpt lat="63.405164" lon="10.459523">
        <ele>172.062</ele>
        <time>1970-01-01T01:00:00Z</time>
      </trkpt>
      <trkpt lat="63.40516917" lon="10.45948717">
        <ele>172.062</ele>
        <time>1970-01-01T01:00:00Z</time>
      </trkpt>
      <trkpt lat="63.40517383" lon="10.45945233">
        <ele>172.062</ele>
        <time>1970-01-01T01:00:00Z</time>
      </trkpt>
      <trkpt lat="63.40517767" lon="10.459421">
        <ele>172.062</ele>
        <time>1970-01-01T01:00:00Z</time>
      </trkpt>
      <trkpt lat="63.40518233" lon="10.4593905">
        <ele>172.214</ele>
        <time>1970-01-01T01:00:00Z</time>
      </trkpt>
      <trkpt lat="63.4051875" lon="10.45935917">
        <ele>172.214</ele>
        <time>1970-01-01T01:00:00Z</time>
      </trkpt>
      <trkpt lat="63.40519317" lon="10.459326">
        <ele>172.366</ele>
        <time>1970-01-01T01:00:00Z</time>
      </trkpt>
      <trkpt lat="63.40519833" lon="10.4592965">
        <ele>172.366</ele>
        <time>1970-01-01T01:00:00Z</time>
      </trkpt>
      <trkpt lat="63.40520433" lon="10.459269">
        <ele>172.366</ele>
        <time>1970-01-01T01:00:00Z</time>
      </trkpt>
      <trkpt lat="63.40520867" lon="10.45924033">
        <ele>172.366</ele>
        <time>1970-01-01T01:00:00Z</time>
      </trkpt>
      <trkpt lat="63.405212" lon="10.45920867">
        <ele>172.519</ele>
        <time>1970-01-01T01:00:00Z</time>
      </trkpt>
      <trkpt lat="63.4052145" lon="10.459176">
        <ele>172.519</ele>
        <time>1970-01-01T01:00:00Z</time>
      </trkpt>
      <trkpt lat="63.40521783" lon="10.4591445">
        <ele>172.519</ele>
        <time>1970-01-01T01:00:00Z</time>
      </trkpt>
      <trkpt lat="63.40522183" lon="10.45911233">
        <ele>172.519</ele>
        <time>1970-01-01T01:00:00Z</time>
      </trkpt>
      <trkpt lat="63.4052265" lon="10.45907983">
        <ele>172.671</ele>
        <time>1970-01-01T01:00:00Z</time>
      </trkpt>
      <trkpt lat="63.40523117" lon="10.4590475">
        <ele>172.671</ele>
        <time>1970-01-01T01:00:00Z</time>
      </trkpt>
      <trkpt lat="63.4052355" lon="10.45901517">
        <ele>172.671</ele>
        <time>1970-01-01T01:00:00Z</time>
      </trkpt>
      <trkpt lat="63.40523983" lon="10.45898167">
        <ele>172.671</ele>
        <time>1970-01-01T01:00:00Z</time>
      </trkpt>
      <trkpt lat="63.40524517" lon="10.45895033">
        <ele>172.671</ele>
        <time>1970-01-01T01:00:00Z</time>
      </trkpt>
      <trkpt lat="63.40525067" lon="10.45891867">
        <ele>172.671</ele>
        <time>1970-01-01T01:00:00Z</time>
      </trkpt>
      <trkpt lat="63.40525567" lon="10.458888">
        <ele>172.824</ele>
        <time>1970-01-01T01:00:00Z</time>
      </trkpt>
      <trkpt lat="63.4052595" lon="10.458856">
        <ele>172.824</ele>
        <time>1970-01-01T01:00:00Z</time>
      </trkpt>
      <trkpt lat="63.40526267" lon="10.45882183">
        <ele>172.824</ele>
        <time>1970-01-01T01:00:00Z</time>
      </trkpt>
      <trkpt lat="63.4052665" lon="10.45878767">
        <ele>172.824</ele>
        <time>1970-01-01T01:00:00Z</time>
      </trkpt>
      <trkpt lat="63.40526967" lon="10.45875117">
        <ele>172.824</ele>
        <time>1970-01-01T01:00:00Z</time>
      </trkpt>
      <trkpt lat="63.40527267" lon="10.45871583">
        <ele>172.824</ele>
        <time>1970-01-01T01:00:00Z</time>
      </trkpt>
      <trkpt lat="63.40527567" lon="10.45868033">
        <ele>172.976</ele>
        <time>1970-01-01T01:00:00Z</time>
      </trkpt>
      <trkpt lat="63.40527867" lon="10.45864433">
        <ele>172.976</ele>
        <time>1970-01-01T01:00:00Z</time>
      </trkpt>
      <trkpt lat="63.40528133" lon="10.45860883">
        <ele>172.976</ele>
        <time>1970-01-01T01:00:00Z</time>
      </trkpt>
      <trkpt lat="63.405284" lon="10.45857283">
        <ele>172.976</ele>
        <time>1970-01-01T01:00:00Z</time>
      </trkpt>
      <trkpt lat="63.405287" lon="10.45853633">
        <ele>172.976</ele>
        <time>1970-01-01T01:00:00Z</time>
      </trkpt>
      <trkpt lat="63.40529067" lon="10.45850033">
        <ele>172.976</ele>
        <time>1970-01-01T01:00:00Z</time>
      </trkpt>
      <trkpt lat="63.4052935" lon="10.45846533">
        <ele>173.128</ele>
        <time>1970-01-01T01:00:00Z</time>
      </trkpt>
      <trkpt lat="63.40529633" lon="10.45843233">
        <ele>173.128</ele>
        <time>1970-01-01T01:00:00Z</time>
      </trkpt>
      <trkpt lat="63.40529983" lon="10.45839917">
        <ele>173.128</ele>
        <time>1970-01-01T01:00:00Z</time>
      </trkpt>
      <trkpt lat="63.405304" lon="10.45836583">
        <ele>173.128</ele>
        <time>1970-01-01T01:00:00Z</time>
      </trkpt>
      <trkpt lat="63.40530883" lon="10.45833183">
        <ele>173.128</ele>
        <time>1970-01-01T01:00:00Z</time>
      </trkpt>
      <trkpt lat="63.40531317" lon="10.45829683">
        <ele>173.128</ele>
        <time>1970-01-01T01:00:00Z</time>
      </trkpt>
      <trkpt lat="63.4053185" lon="10.45826217">
        <ele>173.128</ele>
        <time>1970-01-01T01:00:00Z</time>
      </trkpt>
      <trkpt lat="63.40532433" lon="10.45822867">
        <ele>173.128</ele>
        <time>1970-01-01T01:00:00Z</time>
      </trkpt>
      <trkpt lat="63.4053295" lon="10.4581975">
        <ele>173.128</ele>
        <time>1970-01-01T01:00:00Z</time>
      </trkpt>
      <trkpt lat="63.4053335" lon="10.458168">
        <ele>173.128</ele>
        <time>1970-01-01T01:00:00Z</time>
      </trkpt>
      <trkpt lat="63.405337" lon="10.45813817">
        <ele>173.128</ele>
        <time>1970-01-01T01:00:00Z</time>
      </trkpt>
      <trkpt lat="63.405341" lon="10.4581085">
        <ele>173.128</ele>
        <time>1970-01-01T01:00:00Z</time>
      </trkpt>
      <trkpt lat="63.40534533" lon="10.45807883">
        <ele>173.128</ele>
        <time>1970-01-01T01:00:00Z</time>
      </trkpt>
      <trkpt lat="63.4053495" lon="10.4580475">
        <ele>173.128</ele>
        <time>1970-01-01T01:00:00Z</time>
      </trkpt>
      <trkpt lat="63.40535333" lon="10.45801433">
        <ele>172.976</ele>
        <time>1970-01-01T01:00:00Z</time>
      </trkpt>
      <trkpt lat="63.405357" lon="10.4579765">
        <ele>172.976</ele>
        <time>1970-01-01T01:00:00Z</time>
      </trkpt>
      <trkpt lat="63.40535917" lon="10.457942">
        <ele>172.976</ele>
        <time>1970-01-01T01:00:00Z</time>
      </trkpt>
      <trkpt lat="63.40536217" lon="10.45790917">
        <ele>172.976</ele>
        <time>1970-01-01T01:00:00Z</time>
      </trkpt>
      <trkpt lat="63.40536583" lon="10.4578775">
        <ele>172.976</ele>
        <time>1970-01-01T01:00:00Z</time>
      </trkpt>
      <trkpt lat="63.40537133" lon="10.457841">
        <ele>172.976</ele>
        <time>1970-01-01T01:00:00Z</time>
      </trkpt>
      <trkpt lat="63.40537633" lon="10.4578035">
        <ele>172.976</ele>
        <time>1970-01-01T01:00:00Z</time>
      </trkpt>
      <trkpt lat="63.40538067" lon="10.45776733">
        <ele>172.976</ele>
        <time>1970-01-01T01:00:00Z</time>
      </trkpt>
      <trkpt lat="63.40538433" lon="10.457733">
        <ele>172.976</ele>
        <time>1970-01-01T01:00:00Z</time>
      </trkpt>
      <trkpt lat="63.40538767" lon="10.45769867">
        <ele>172.976</ele>
        <time>1970-01-01T01:00:00Z</time>
      </trkpt>
      <trkpt lat="63.40539067" lon="10.45766567">
        <ele>172.976</ele>
        <time>1970-01-01T01:00:00Z</time>
      </trkpt>
      <trkpt lat="63.40539367" lon="10.4576345">
        <ele>172.976</ele>
        <time>1970-01-01T01:00:00Z</time>
      </trkpt>
      <trkpt lat="63.40539617" lon="10.457604">
        <ele>172.976</ele>
        <time>1970-01-01T01:00:00Z</time>
      </trkpt>
      <trkpt lat="63.4053985" lon="10.45757233">
        <ele>172.976</ele>
        <time>1970-01-01T01:00:00Z</time>
      </trkpt>
      <trkpt lat="63.4054" lon="10.457539">
        <ele>172.824</ele>
        <time>1970-01-01T01:00:00Z</time>
      </trkpt>
      <trkpt lat="63.40540133" lon="10.45750783">
        <ele>172.824</ele>
        <time>1970-01-01T01:00:00Z</time>
      </trkpt>
      <trkpt lat="63.40540283" lon="10.45747917">
        <ele>172.824</ele>
        <time>1970-01-01T01:00:00Z</time>
      </trkpt>
      <trkpt lat="63.40540583" lon="10.45745183">
        <ele>172.824</ele>
        <time>1970-01-01T01:00:00Z</time>
      </trkpt>
      <trkpt lat="63.40541017" lon="10.457422">
        <ele>172.824</ele>
        <time>1970-01-01T01:00:00Z</time>
      </trkpt>
      <trkpt lat="63.4054155" lon="10.45739033">
        <ele>172.824</ele>
        <time>1970-01-01T01:00:00Z</time>
      </trkpt>
      <trkpt lat="63.40542" lon="10.45735867">
        <ele>172.824</ele>
        <time>1970-01-01T01:00:00Z</time>
      </trkpt>
      <trkpt lat="63.40542383" lon="10.45732633">
        <ele>172.824</ele>
        <time>1970-01-01T01:00:00Z</time>
      </trkpt>
      <trkpt lat="63.40542733" lon="10.45729417">
        <ele>172.671</ele>
        <time>1970-01-01T01:00:00Z</time>
      </trkpt>
      <trkpt lat="63.405431" lon="10.457262">
        <ele>172.671</ele>
        <time>1970-01-01T01:00:00Z</time>
      </trkpt>
      <trkpt lat="63.405435" lon="10.45722983">
        <ele>172.671</ele>
        <time>1970-01-01T01:00:00Z</time>
      </trkpt>
      <trkpt lat="63.40543883" lon="10.45719633">
        <ele>172.671</ele>
        <time>1970-01-01T01:00:00Z</time>
      </trkpt>
      <trkpt lat="63.40544283" lon="10.45716283">
        <ele>172.671</ele>
        <time>1970-01-01T01:00:00Z</time>
      </trkpt>
      <trkpt lat="63.40544617" lon="10.45712933">
        <ele>172.671</ele>
        <time>1970-01-01T01:00:00Z</time>
      </trkpt>
      <trkpt lat="63.40544883" lon="10.45709733">
        <ele>172.671</ele>
        <time>1970-01-01T01:00:00Z</time>
      </trkpt>
      <trkpt lat="63.40545117" lon="10.45706633">
        <ele>172.671</ele>
        <time>1970-01-01T01:00:00Z</time>
      </trkpt>
      <trkpt lat="63.405454" lon="10.45703567">
        <ele>172.519</ele>
        <time>1970-01-01T01:00:00Z</time>
      </trkpt>
      <trkpt lat="63.40545817" lon="10.45700483">
        <ele>172.519</ele>
        <time>1970-01-01T01:00:00Z</time>
      </trkpt>
      <trkpt lat="63.40546167" lon="10.45697217">
        <ele>172.519</ele>
        <time>1970-01-01T01:00:00Z</time>
      </trkpt>
      <trkpt lat="63.4054655" lon="10.45693883">
        <ele>172.519</ele>
        <time>1970-01-01T01:00:00Z</time>
      </trkpt>
      <trkpt lat="63.4054695" lon="10.456904">
        <ele>172.366</ele>
        <time>1970-01-01T01:00:00Z</time>
      </trkpt>
      <trkpt lat="63.4054735" lon="10.45686883">
        <ele>172.366</ele>
        <time>1970-01-01T01:00:00Z</time>
      </trkpt>
      <trkpt lat="63.40547833" lon="10.45683317">
        <ele>172.366</ele>
        <time>1970-01-01T01:00:00Z</time>
      </trkpt>
      <trkpt lat="63.40548267" lon="10.456797">
        <ele>172.366</ele>
        <time>1970-01-01T01:00:00Z</time>
      </trkpt>
      <trkpt lat="63.4054875" lon="10.4567605">
        <ele>172.214</ele>
        <time>1970-01-01T01:00:00Z</time>
      </trkpt>
      <trkpt lat="63.40549217" lon="10.4567255">
        <ele>172.214</ele>
        <time>1970-01-01T01:00:00Z</time>
      </trkpt>
      <trkpt lat="63.40549567" lon="10.45669233">
        <ele>172.214</ele>
        <time>1970-01-01T01:00:00Z</time>
      </trkpt>
      <trkpt lat="63.40549933" lon="10.4566605">
        <ele>172.214</ele>
        <time>1970-01-01T01:00:00Z</time>
      </trkpt>
      <trkpt lat="63.40550267" lon="10.45662933">
        <ele>172.062</ele>
        <time>1970-01-01T01:00:00Z</time>
      </trkpt>
      <trkpt lat="63.405506" lon="10.45659733">
        <ele>172.062</ele>
        <time>1970-01-01T01:00:00Z</time>
      </trkpt>
      <trkpt lat="63.40550917" lon="10.45656417">
        <ele>172.062</ele>
        <time>1970-01-01T01:00:00Z</time>
      </trkpt>
      <trkpt lat="63.40551183" lon="10.4565305">
        <ele>172.062</ele>
        <time>1970-01-01T01:00:00Z</time>
      </trkpt>
      <trkpt lat="63.40551533" lon="10.45649717">
        <ele>171.909</ele>
        <time>1970-01-01T01:00:00Z</time>
      </trkpt>
      <trkpt lat="63.40551917" lon="10.45646517">
        <ele>171.909</ele>
        <time>1970-01-01T01:00:00Z</time>
      </trkpt>
      <trkpt lat="63.40552317" lon="10.456433">
        <ele>171.909</ele>
        <time>1970-01-01T01:00:00Z</time>
      </trkpt>
      <trkpt lat="63.40552717" lon="10.4563995">
        <ele>171.909</ele>
        <time>1970-01-01T01:00:00Z</time>
      </trkpt>
      <trkpt lat="63.40553183" lon="10.456367">
        <ele>171.909</ele>
        <time>1970-01-01T01:00:00Z</time>
      </trkpt>
      <trkpt lat="63.40553717" lon="10.45633783">
        <ele>171.909</ele>
        <time>1970-01-01T01:00:00Z</time>
      </trkpt>
      <trkpt lat="63.40554167" lon="10.4563095">
        <ele>171.757</ele>
        <time>1970-01-01T01:00:00Z</time>
      </trkpt>
      <trkpt lat="63.4055455" lon="10.45627967">
        <ele>171.757</ele>
        <time>1970-01-01T01:00:00Z</time>
      </trkpt>
      <trkpt lat="63.40554983" lon="10.45624733">
        <ele>171.757</ele>
        <time>1970-01-01T01:00:00Z</time>
      </trkpt>
      <trkpt lat="63.40555483" lon="10.45621517">
        <ele>171.757</ele>
        <time>1970-01-01T01:00:00Z</time>
      </trkpt>
      <trkpt lat="63.4055605" lon="10.456184">
        <ele>171.604</ele>
        <time>1970-01-01T01:00:00Z</time>
      </trkpt>
      <trkpt lat="63.405566" lon="10.45615183">
        <ele>171.604</ele>
        <time>1970-01-01T01:00:00Z</time>
      </trkpt>
      <trkpt lat="63.405571" lon="10.45612">
        <ele>171.604</ele>
        <time>1970-01-01T01:00:00Z</time>
      </trkpt>
      <trkpt lat="63.40557617" lon="10.4560885">
        <ele>171.604</ele>
        <time>1970-01-01T01:00:00Z</time>
      </trkpt>
      <trkpt lat="63.40558133" lon="10.45605933">
        <ele>171.452</ele>
        <time>1970-01-01T01:00:00Z</time>
      </trkpt>
      <trkpt lat="63.40558683" lon="10.45603067">
        <ele>171.452</ele>
        <time>1970-01-01T01:00:00Z</time>
      </trkpt>
      <trkpt lat="63.405592" lon="10.45600367">
        <ele>171.3</ele>
        <time>1970-01-01T01:00:00Z</time>
      </trkpt>
      <trkpt lat="63.405597" lon="10.45597533">
        <ele>171.3</ele>
        <time>1970-01-01T01:00:00Z</time>
      </trkpt>
      <trkpt lat="63.40560283" lon="10.45594683">
        <ele>171.3</ele>
        <time>1970-01-01T01:00:00Z</time>
      </trkpt>
      <trkpt lat="63.40560883" lon="10.4559165">
        <ele>171.3</ele>
        <time>1970-01-01T01:00:00Z</time>
      </trkpt>
      <trkpt lat="63.4056145" lon="10.45588483">
        <ele>171.147</ele>
        <time>1970-01-01T01:00:00Z</time>
      </trkpt>
      <trkpt lat="63.40561917" lon="10.45585333">
        <ele>171.147</ele>
        <time>1970-01-01T01:00:00Z</time>
      </trkpt>
      <trkpt lat="63.4056235" lon="10.455821">
        <ele>170.995</ele>
        <time>1970-01-01T01:00:00Z</time>
      </trkpt>
      <trkpt lat="63.405628" lon="10.45578883">
        <ele>170.995</ele>
        <time>1970-01-01T01:00:00Z</time>
      </trkpt>
      <trkpt lat="63.405633" lon="10.45575483">
        <ele>170.842</ele>
        <time>1970-01-01T01:00:00Z</time>
      </trkpt>
      <trkpt lat="63.4056385" lon="10.4557215">
        <ele>170.842</ele>
        <time>1970-01-01T01:00:00Z</time>
      </trkpt>
      <trkpt lat="63.40564433" lon="10.45569067">
        <ele>170.842</ele>
        <time>1970-01-01T01:00:00Z</time>
      </trkpt>
      <trkpt lat="63.40565067" lon="10.45565983">
        <ele>170.842</ele>
        <time>1970-01-01T01:00:00Z</time>
      </trkpt>
      <trkpt lat="63.40565783" lon="10.45563167">
        <ele>170.69</ele>
        <time>1970-01-01T01:00:00Z</time>
      </trkpt>
      <trkpt lat="63.4056665" lon="10.45560367">
        <ele>170.69</ele>
        <time>1970-01-01T01:00:00Z</time>
      </trkpt>
      <trkpt lat="63.40567717" lon="10.4555785">
        <ele>170.69</ele>
        <time>1970-01-01T01:00:00Z</time>
      </trkpt>
      <trkpt lat="63.405689" lon="10.4555535">
        <ele>170.69</ele>
        <time>1970-01-01T01:00:00Z</time>
      </trkpt>
      <trkpt lat="63.40570167" lon="10.45553">
        <ele>170.538</ele>
        <time>1970-01-01T01:00:00Z</time>
      </trkpt>
      <trkpt lat="63.4057155" lon="10.45550883">
        <ele>170.538</ele>
        <time>1970-01-01T01:00:00Z</time>
      </trkpt>
      <trkpt lat="63.40572967" lon="10.45548917">
        <ele>170.538</ele>
        <time>1970-01-01T01:00:00Z</time>
      </trkpt>
      <trkpt lat="63.40574433" lon="10.45547317">
        <ele>170.538</ele>
        <time>1970-01-01T01:00:00Z</time>
      </trkpt>
      <trkpt lat="63.405758" lon="10.45545983">
        <ele>170.538</ele>
        <time>1970-01-01T01:00:00Z</time>
      </trkpt>
      <trkpt lat="63.405772" lon="10.45545083">
        <ele>170.538</ele>
        <time>1970-01-01T01:00:00Z</time>
      </trkpt>
      <trkpt lat="63.40578667" lon="10.455443">
        <ele>170.385</ele>
        <time>1970-01-01T01:00:00Z</time>
      </trkpt>
      <trkpt lat="63.40580117" lon="10.45543583">
        <ele>170.385</ele>
        <time>1970-01-01T01:00:00Z</time>
      </trkpt>
      <trkpt lat="63.40581683" lon="10.45542933">
        <ele>170.385</ele>
        <time>1970-01-01T01:00:00Z</time>
      </trkpt>
      <trkpt lat="63.40583217" lon="10.45542433">
        <ele>170.385</ele>
        <time>1970-01-01T01:00:00Z</time>
      </trkpt>
      <trkpt lat="63.40584733" lon="10.45541933">
        <ele>170.233</ele>
        <time>1970-01-01T01:00:00Z</time>
      </trkpt>
      <trkpt lat="63.40586217" lon="10.4554125">
        <ele>170.233</ele>
        <time>1970-01-01T01:00:00Z</time>
      </trkpt>
      <trkpt lat="63.40587767" lon="10.45540483">
        <ele>170.233</ele>
        <time>1970-01-01T01:00:00Z</time>
      </trkpt>
      <trkpt lat="63.40589383" lon="10.45539767">
        <ele>170.233</ele>
        <time>1970-01-01T01:00:00Z</time>
      </trkpt>
      <trkpt lat="63.40590983" lon="10.455391">
        <ele>170.233</ele>
        <time>1970-01-01T01:00:00Z</time>
      </trkpt>
      <trkpt lat="63.40592583" lon="10.45538417">
        <ele>170.233</ele>
        <time>1970-01-01T01:00:00Z</time>
      </trkpt>
      <trkpt lat="63.40594217" lon="10.45537783">
        <ele>170.08</ele>
        <time>1970-01-01T01:00:00Z</time>
      </trkpt>
      <trkpt lat="63.40595817" lon="10.455372">
        <ele>170.08</ele>
        <time>1970-01-01T01:00:00Z</time>
      </trkpt>
      <trkpt lat="63.40597333" lon="10.455365">
        <ele>170.08</ele>
        <time>1970-01-01T01:00:00Z</time>
      </trkpt>
      <trkpt lat="63.405988" lon="10.45535533">
        <ele>170.08</ele>
        <time>1970-01-01T01:00:00Z</time>
      </trkpt>
      <trkpt lat="63.406001" lon="10.45534117">
        <ele>170.08</ele>
        <time>1970-01-01T01:00:00Z</time>
      </trkpt>
      <trkpt lat="63.40601283" lon="10.45532567">
        <ele>170.08</ele>
        <time>1970-01-01T01:00:00Z</time>
      </trkpt>
      <trkpt lat="63.40602383" lon="10.45530933">
        <ele>170.08</ele>
        <time>1970-01-01T01:00:00Z</time>
      </trkpt>
      <trkpt lat="63.406035" lon="10.4552945">
        <ele>170.08</ele>
        <time>1970-01-01T01:00:00Z</time>
      </trkpt>
      <trkpt lat="63.4060455" lon="10.45528">
        <ele>170.08</ele>
        <time>1970-01-01T01:00:00Z</time>
      </trkpt>
      <trkpt lat="63.4060565" lon="10.45526733">
        <ele>170.08</ele>
        <time>1970-01-01T01:00:00Z</time>
      </trkpt>
      <trkpt lat="63.40606633" lon="10.4552545">
        <ele>170.08</ele>
        <time>1970-01-01T01:00:00Z</time>
      </trkpt>
      <trkpt lat="63.4060755" lon="10.45524017">
        <ele>170.08</ele>
        <time>1970-01-01T01:00:00Z</time>
      </trkpt>
      <trkpt lat="63.406084" lon="10.45522583">
        <ele>170.08</ele>
        <time>1970-01-01T01:00:00Z</time>
      </trkpt>
      <trkpt lat="63.40609233" lon="10.45521017">
        <ele>170.08</ele>
        <time>1970-01-01T01:00:00Z</time>
      </trkpt>
      <trkpt lat="63.4061035" lon="10.45519717">
        <ele>170.08</ele>
        <time>1970-01-01T01:00:00Z</time>
      </trkpt>
      <trkpt lat="63.40611517" lon="10.4551835">
        <ele>170.08</ele>
        <time>1970-01-01T01:00:00Z</time>
      </trkpt>
      <trkpt lat="63.40612783" lon="10.45516933">
        <ele>170.233</ele>
        <time>1970-01-01T01:00:00Z</time>
      </trkpt>
      <trkpt lat="63.40613983" lon="10.45515483">
        <ele>170.233</ele>
        <time>1970-01-01T01:00:00Z</time>
      </trkpt>
      <trkpt lat="63.4061515" lon="10.4551405">
        <ele>170.233</ele>
        <time>1970-01-01T01:00:00Z</time>
      </trkpt>
      <trkpt lat="63.4061635" lon="10.45513">
        <ele>170.233</ele>
        <time>1970-01-01T01:00:00Z</time>
      </trkpt>
      <trkpt lat="63.40617467" lon="10.4551185">
        <ele>170.233</ele>
        <time>1970-01-01T01:00:00Z</time>
      </trkpt>
      <trkpt lat="63.4061845" lon="10.45510633">
        <ele>170.233</ele>
        <time>1970-01-01T01:00:00Z</time>
      </trkpt>
      <trkpt lat="63.4061935" lon="10.45508733">
        <ele>170.233</ele>
        <time>1970-01-01T01:00:00Z</time>
      </trkpt>
      <trkpt lat="63.4062035" lon="10.4550665">
        <ele>170.233</ele>
        <time>1970-01-01T01:00:00Z</time>
      </trkpt>
      <trkpt lat="63.40621533" lon="10.455046">
        <ele>170.233</ele>
        <time>1970-01-01T01:00:00Z</time>
      </trkpt>
      <trkpt lat="63.40623" lon="10.4550335">
        <ele>170.233</ele>
        <time>1970-01-01T01:00:00Z</time>
      </trkpt>
      <trkpt lat="63.40624517" lon="10.45502067">
        <ele>170.08</ele>
        <time>1970-01-01T01:00:00Z</time>
      </trkpt>
      <trkpt lat="63.40625833" lon="10.455008">
        <ele>170.08</ele>
        <time>1970-01-01T01:00:00Z</time>
      </trkpt>
      <trkpt lat="63.40627033" lon="10.45499067">
        <ele>169.928</ele>
        <time>1970-01-01T01:00:00Z</time>
      </trkpt>
      <trkpt lat="63.4062825" lon="10.454975">
        <ele>169.928</ele>
        <time>1970-01-01T01:00:00Z</time>
      </trkpt>
      <trkpt lat="63.40629617" lon="10.45495783">
        <ele>169.776</ele>
        <time>1970-01-01T01:00:00Z</time>
      </trkpt>
      <trkpt lat="63.40631" lon="10.45493317">
        <ele>169.776</ele>
        <time>1970-01-01T01:00:00Z</time>
      </trkpt>
      <trkpt lat="63.40632367" lon="10.45490367">
        <ele>169.471</ele>
        <time>1970-01-01T01:00:00Z</time>
      </trkpt>
      <trkpt lat="63.40633833" lon="10.45487317">
        <ele>169.471</ele>
        <time>1970-01-01T01:00:00Z</time>
      </trkpt>
      <trkpt lat="63.40635317" lon="10.45485133">
        <ele>169.318</ele>
        <time>1970-01-01T01:00:00Z</time>
      </trkpt>
      <trkpt lat="63.40636717" lon="10.45482733">
        <ele>169.318</ele>
        <time>1970-01-01T01:00:00Z</time>
      </trkpt>
      <trkpt lat="63.406378" lon="10.4548005">
        <ele>169.014</ele>
        <time>1970-01-01T01:00:00Z</time>
      </trkpt>
      <trkpt lat="63.40638817" lon="10.45477217">
        <ele>169.014</ele>
        <time>1970-01-01T01:00:00Z</time>
      </trkpt>
      <trkpt lat="63.40640017" lon="10.4547475">
        <ele>168.861</ele>
        <time>1970-01-01T01:00:00Z</time>
      </trkpt>
      <trkpt lat="63.406411" lon="10.45472633">
        <ele>168.861</ele>
        <time>1970-01-01T01:00:00Z</time>
      </trkpt>
      <trkpt lat="63.40642033" lon="10.454705">
        <ele>168.556</ele>
        <time>1970-01-01T01:00:00Z</time>
      </trkpt>
      <trkpt lat="63.406428" lon="10.454684">
        <ele>168.556</ele>
        <time>1970-01-01T01:00:00Z</time>
      </trkpt>
      <trkpt lat="63.40643883" lon="10.4546605">
        <ele>168.404</ele>
        <time>1970-01-01T01:00:00Z</time>
      </trkpt>
      <trkpt lat="63.40645" lon="10.454639">
        <ele>168.404</ele>
        <time>1970-01-01T01:00:00Z</time>
      </trkpt>
      <trkpt lat="63.40646217" lon="10.45461767">
        <ele>168.099</ele>
        <time>1970-01-01T01:00:00Z</time>
      </trkpt>
      <trkpt lat="63.4064725" lon="10.4545975">
        <ele>168.099</ele>
        <time>1970-01-01T01:00:00Z</time>
      </trkpt>
      <trkpt lat="63.406483" lon="10.45457467">
        <ele>167.947</ele>
        <time>1970-01-01T01:00:00Z</time>
      </trkpt>
      <trkpt lat="63.40649233" lon="10.45455217">
        <ele>167.947</ele>
        <time>1970-01-01T01:00:00Z</time>
      </trkpt>
      <trkpt lat="63.4065035" lon="10.4545325">
        <ele>167.642</ele>
        <time>1970-01-01T01:00:00Z</time>
      </trkpt>
      <trkpt lat="63.4065165" lon="10.45451333">
        <ele>167.642</ele>
        <time>1970-01-01T01:00:00Z</time>
      </trkpt>
      <trkpt lat="63.406531" lon="10.45449567">
        <ele>167.337</ele>
        <time>1970-01-01T01:00:00Z</time>
      </trkpt>
      <trkpt lat="63.4065455" lon="10.4544765">
        <ele>167.337</ele>
        <time>1970-01-01T01:00:00Z</time>
      </trkpt>
      <trkpt lat="63.40655833" lon="10.45445617">
        <ele>167.185</ele>
        <time>1970-01-01T01:00:00Z</time>
      </trkpt>
      <trkpt lat="63.40657117" lon="10.4544355">
        <ele>167.185</ele>
        <time>1970-01-01T01:00:00Z</time>
      </trkpt>
      <trkpt lat="63.406583" lon="10.454416">
        <ele>166.88</ele>
        <time>1970-01-01T01:00:00Z</time>
      </trkpt>
      <trkpt lat="63.40659617" lon="10.45439817">
        <ele>166.88</ele>
        <time>1970-01-01T01:00:00Z</time>
      </trkpt>
      <trkpt lat="63.40660833" lon="10.45438083">
        <ele>166.728</ele>
        <time>1970-01-01T01:00:00Z</time>
      </trkpt>
      <trkpt lat="63.40662167" lon="10.454362">
        <ele>166.728</ele>
        <time>1970-01-01T01:00:00Z</time>
      </trkpt>
      <trkpt lat="63.40663433" lon="10.45434417">
        <ele>166.423</ele>
        <time>1970-01-01T01:00:00Z</time>
      </trkpt>
      <trkpt lat="63.40664683" lon="10.45432583">
        <ele>166.423</ele>
        <time>1970-01-01T01:00:00Z</time>
      </trkpt>
      <trkpt lat="63.40665817" lon="10.454309">
        <ele>166.118</ele>
        <time>1970-01-01T01:00:00Z</time>
      </trkpt>
      <trkpt lat="63.40666933" lon="10.454291">
        <ele>166.118</ele>
        <time>1970-01-01T01:00:00Z</time>
      </trkpt>
      <trkpt lat="63.40668117" lon="10.45427233">
        <ele>165.813</ele>
        <time>1970-01-01T01:00:00Z</time>
      </trkpt>
      <trkpt lat="63.4066925" lon="10.45425283">
        <ele>165.813</ele>
        <time>1970-01-01T01:00:00Z</time>
      </trkpt>
      <trkpt lat="63.40670367" lon="10.45423183">
        <ele>165.508</ele>
        <time>1970-01-01T01:00:00Z</time>
      </trkpt>
      <trkpt lat="63.406714" lon="10.45421267">
        <ele>165.508</ele>
        <time>1970-01-01T01:00:00Z</time>
      </trkpt>
      <trkpt lat="63.406725" lon="10.45419117">
        <ele>165.204</ele>
        <time>1970-01-01T01:00:00Z</time>
      </trkpt>
      <trkpt lat="63.40673617" lon="10.45416767">
        <ele>165.204</ele>
        <time>1970-01-01T01:00:00Z</time>
      </trkpt>
      <trkpt lat="63.40674833" lon="10.45414417">
        <ele>164.746</ele>
        <time>1970-01-01T01:00:00Z</time>
      </trkpt>
      <trkpt lat="63.40676117" lon="10.45412">
        <ele>164.746</ele>
        <time>1970-01-01T01:00:00Z</time>
      </trkpt>
      <trkpt lat="63.40677683" lon="10.45409817">
        <ele>164.442</ele>
        <time>1970-01-01T01:00:00Z</time>
      </trkpt>
      <trkpt lat="63.40679367" lon="10.45407783">
        <ele>164.442</ele>
        <time>1970-01-01T01:00:00Z</time>
      </trkpt>
      <trkpt lat="63.40680967" lon="10.45406267">
        <ele>164.137</ele>
        <time>1970-01-01T01:00:00Z</time>
      </trkpt>
      <trkpt lat="63.406825" lon="10.4540495">
        <ele>164.137</ele>
        <time>1970-01-01T01:00:00Z</time>
      </trkpt>
      <trkpt lat="63.4068385" lon="10.45403467">
        <ele>163.832</ele>
        <time>1970-01-01T01:00:00Z</time>
      </trkpt>
      <trkpt lat="63.406853" lon="10.4540185">
        <ele>163.832</ele>
        <time>1970-01-01T01:00:00Z</time>
      </trkpt>
      <trkpt lat="63.40686617" lon="10.45400283">
        <ele>163.527</ele>
        <time>1970-01-01T01:00:00Z</time>
      </trkpt>
      <trkpt lat="63.40687967" lon="10.45398783">
        <ele>163.527</ele>
        <time>1970-01-01T01:00:00Z</time>
      </trkpt>
      <trkpt lat="63.40689283" lon="10.45397517">
        <ele>163.375</ele>
        <time>1970-01-01T01:00:00Z</time>
      </trkpt>
      <trkpt lat="63.40690583" lon="10.453965">
        <ele>163.375</ele>
        <time>1970-01-01T01:00:00Z</time>
      </trkpt>
      <trkpt lat="63.40691933" lon="10.4539545">
        <ele>163.07</ele>
        <time>1970-01-01T01:00:00Z</time>
      </trkpt>
      <trkpt lat="63.40693483" lon="10.453943">
        <ele>163.07</ele>
        <time>1970-01-01T01:00:00Z</time>
      </trkpt>
      <trkpt lat="63.406951" lon="10.45393183">
        <ele>162.765</ele>
        <time>1970-01-01T01:00:00Z</time>
      </trkpt>
      <trkpt lat="63.40696817" lon="10.453922">
        <ele>162.765</ele>
        <time>1970-01-01T01:00:00Z</time>
      </trkpt>
      <trkpt lat="63.40698483" lon="10.45391617">
        <ele>162.46</ele>
        <time>1970-01-01T01:00:00Z</time>
      </trkpt>
      <trkpt lat="63.40700133" lon="10.453911">
        <ele>162.46</ele>
        <time>1970-01-01T01:00:00Z</time>
      </trkpt>
      <trkpt lat="63.4070175" lon="10.453911">
        <ele>162.156</ele>
        <time>1970-01-01T01:00:00Z</time>
      </trkpt>
      <trkpt lat="63.40703267" lon="10.453911">
        <ele>162.156</ele>
        <time>1970-01-01T01:00:00Z</time>
      </trkpt>
      <trkpt lat="63.40704767" lon="10.45391283">
        <ele>161.851</ele>
        <time>1970-01-01T01:00:00Z</time>
      </trkpt>
      <trkpt lat="63.40706133" lon="10.45391267">
        <ele>161.851</ele>
        <time>1970-01-01T01:00:00Z</time>
      </trkpt>
      <trkpt lat="63.40707483" lon="10.45391117">
        <ele>161.546</ele>
        <time>1970-01-01T01:00:00Z</time>
      </trkpt>
      <trkpt lat="63.40708817" lon="10.45390833">
        <ele>161.546</ele>
        <time>1970-01-01T01:00:00Z</time>
      </trkpt>
      <trkpt lat="63.40710167" lon="10.4539065">
        <ele>161.394</ele>
        <time>1970-01-01T01:00:00Z</time>
      </trkpt>
      <trkpt lat="63.40711467" lon="10.45390567">
        <ele>161.394</ele>
        <time>1970-01-01T01:00:00Z</time>
      </trkpt>
      <trkpt lat="63.40712833" lon="10.453906">
        <ele>161.089</ele>
        <time>1970-01-01T01:00:00Z</time>
      </trkpt>
      <trkpt lat="63.407142" lon="10.45390833">
        <ele>161.089</ele>
        <time>1970-01-01T01:00:00Z</time>
      </trkpt>
      <trkpt lat="63.407156" lon="10.45391217">
        <ele>160.784</ele>
        <time>1970-01-01T01:00:00Z</time>
      </trkpt>
      <trkpt lat="63.407169" lon="10.453917">
        <ele>160.784</ele>
        <time>1970-01-01T01:00:00Z</time>
      </trkpt>
      <trkpt lat="63.40718133" lon="10.45392117">
        <ele>160.632</ele>
        <time>1970-01-01T01:00:00Z</time>
      </trkpt>
      <trkpt lat="63.407195" lon="10.4539285">
        <ele>160.632</ele>
        <time>1970-01-01T01:00:00Z</time>
      </trkpt>
      <trkpt lat="63.40720767" lon="10.45393717">
        <ele>160.327</ele>
        <time>1970-01-01T01:00:00Z</time>
      </trkpt>
      <trkpt lat="63.40722217" lon="10.453948">
        <ele>160.327</ele>
        <time>1970-01-01T01:00:00Z</time>
      </trkpt>
      <trkpt lat="63.40723483" lon="10.45395433">
        <ele>160.022</ele>
        <time>1970-01-01T01:00:00Z</time>
      </trkpt>
      <trkpt lat="63.4072485" lon="10.45396167">
        <ele>160.022</ele>
        <time>1970-01-01T01:00:00Z</time>
      </trkpt>
      <trkpt lat="63.40726133" lon="10.453967">
        <ele>159.87</ele>
        <time>1970-01-01T01:00:00Z</time>
      </trkpt>
      <trkpt lat="63.4072745" lon="10.453974">
        <ele>159.87</ele>
        <time>1970-01-01T01:00:00Z</time>
      </trkpt>
      <trkpt lat="63.407287" lon="10.45397617">
        <ele>159.565</ele>
        <time>1970-01-01T01:00:00Z</time>
      </trkpt>
      <trkpt lat="63.40729967" lon="10.45397733">
        <ele>159.565</ele>
        <time>1970-01-01T01:00:00Z</time>
      </trkpt>
      <trkpt lat="63.40731317" lon="10.4539805">
        <ele>159.26</ele>
        <time>1970-01-01T01:00:00Z</time>
      </trkpt>
      <trkpt lat="63.40732767" lon="10.453986">
        <ele>159.26</ele>
        <time>1970-01-01T01:00:00Z</time>
      </trkpt>
      <trkpt lat="63.4073425" lon="10.453995">
        <ele>159.108</ele>
        <time>1970-01-01T01:00:00Z</time>
      </trkpt>
      <trkpt lat="63.40735767" lon="10.45400467">
        <ele>159.108</ele>
        <time>1970-01-01T01:00:00Z</time>
      </trkpt>
      <trkpt lat="63.4073735" lon="10.45401867">
        <ele>158.803</ele>
        <time>1970-01-01T01:00:00Z</time>
      </trkpt>
      <trkpt lat="63.40738817" lon="10.454033">
        <ele>158.803</ele>
        <time>1970-01-01T01:00:00Z</time>
      </trkpt>
      <trkpt lat="63.407402" lon="10.4540435">
        <ele>158.65</ele>
        <time>1970-01-01T01:00:00Z</time>
      </trkpt>
      <trkpt lat="63.40741533" lon="10.45405067">
        <ele>158.65</ele>
        <time>1970-01-01T01:00:00Z</time>
      </trkpt>
      <trkpt lat="63.407429" lon="10.454055">
        <ele>158.346</ele>
        <time>1970-01-01T01:00:00Z</time>
      </trkpt>
      <trkpt lat="63.40744267" lon="10.45405967">
        <ele>158.346</ele>
        <time>1970-01-01T01:00:00Z</time>
      </trkpt>
      <trkpt lat="63.40745667" lon="10.45406667">
        <ele>158.041</ele>
        <time>1970-01-01T01:00:00Z</time>
      </trkpt>
      <trkpt lat="63.40747167" lon="10.45407217">
        <ele>158.041</ele>
        <time>1970-01-01T01:00:00Z</time>
      </trkpt>
      <trkpt lat="63.40748733" lon="10.45407767">
        <ele>157.888</ele>
        <time>1970-01-01T01:00:00Z</time>
      </trkpt>
      <trkpt lat="63.40750317" lon="10.45408167">
        <ele>157.888</ele>
        <time>1970-01-01T01:00:00Z</time>
      </trkpt>
      <trkpt lat="63.4075175" lon="10.454088">
        <ele>157.584</ele>
        <time>1970-01-01T01:00:00Z</time>
      </trkpt>
      <trkpt lat="63.40753133" lon="10.45409133">
        <ele>157.584</ele>
        <time>1970-01-01T01:00:00Z</time>
      </trkpt>
      <trkpt lat="63.40754467" lon="10.454094">
        <ele>157.279</ele>
        <time>1970-01-01T01:00:00Z</time>
      </trkpt>
      <trkpt lat="63.40755783" lon="10.454098">
        <ele>157.279</ele>
        <time>1970-01-01T01:00:00Z</time>
      </trkpt>
      <trkpt lat="63.40757033" lon="10.4541035">
        <ele>157.126</ele>
        <time>1970-01-01T01:00:00Z</time>
      </trkpt>
      <trkpt lat="63.40758317" lon="10.45411033">
        <ele>157.126</ele>
        <time>1970-01-01T01:00:00Z</time>
      </trkpt>
      <trkpt lat="63.40759717" lon="10.4541145">
        <ele>156.822</ele>
        <time>1970-01-01T01:00:00Z</time>
      </trkpt>
      <trkpt lat="63.407614" lon="10.454121">
        <ele>156.822</ele>
        <time>1970-01-01T01:00:00Z</time>
      </trkpt>
      <trkpt lat="63.4076305" lon="10.45412633">
        <ele>156.669</ele>
        <time>1970-01-01T01:00:00Z</time>
      </trkpt>
      <trkpt lat="63.40764733" lon="10.4541315">
        <ele>156.669</ele>
        <time>1970-01-01T01:00:00Z</time>
      </trkpt>
      <trkpt lat="63.40766217" lon="10.45413267">
        <ele>156.364</ele>
        <time>1970-01-01T01:00:00Z</time>
      </trkpt>
      <trkpt lat="63.4076775" lon="10.45413233">
        <ele>156.364</ele>
        <time>1970-01-01T01:00:00Z</time>
      </trkpt>
      <trkpt lat="63.4076925" lon="10.45413217">
        <ele>156.212</ele>
        <time>1970-01-01T01:00:00Z</time>
      </trkpt>
      <trkpt lat="63.40770733" lon="10.45412883">
        <ele>156.212</ele>
        <time>1970-01-01T01:00:00Z</time>
      </trkpt>
      <trkpt lat="63.40772233" lon="10.45412667">
        <ele>156.059</ele>
        <time>1970-01-01T01:00:00Z</time>
      </trkpt>
      <trkpt lat="63.40773783" lon="10.4541235">
        <ele>156.059</ele>
        <time>1970-01-01T01:00:00Z</time>
      </trkpt>
      <trkpt lat="63.4077525" lon="10.45412133">
        <ele>155.755</ele>
        <time>1970-01-01T01:00:00Z</time>
      </trkpt>
      <trkpt lat="63.40776733" lon="10.45411717">
        <ele>155.755</ele>
        <time>1970-01-01T01:00:00Z</time>
      </trkpt>
      <trkpt lat="63.40778283" lon="10.4541125">
        <ele>155.602</ele>
        <time>1970-01-01T01:00:00Z</time>
      </trkpt>
      <trkpt lat="63.40779917" lon="10.45411117">
        <ele>155.602</ele>
        <time>1970-01-01T01:00:00Z</time>
      </trkpt>
      <trkpt lat="63.40781517" lon="10.4541105">
        <ele>155.45</ele>
        <time>1970-01-01T01:00:00Z</time>
      </trkpt>
      <trkpt lat="63.40782983" lon="10.454112">
        <ele>155.45</ele>
        <time>1970-01-01T01:00:00Z</time>
      </trkpt>
      <trkpt lat="63.40784517" lon="10.45411333">
        <ele>155.297</ele>
        <time>1970-01-01T01:00:00Z</time>
      </trkpt>
      <trkpt lat="63.4078605" lon="10.4541135">
        <ele>155.297</ele>
        <time>1970-01-01T01:00:00Z</time>
      </trkpt>
      <trkpt lat="63.40787567" lon="10.45411133">
        <ele>154.993</ele>
        <time>1970-01-01T01:00:00Z</time>
      </trkpt>
      <trkpt lat="63.4078905" lon="10.45410717">
        <ele>154.993</ele>
        <time>1970-01-01T01:00:00Z</time>
      </trkpt>
      <trkpt lat="63.4079045" lon="10.45410267">
        <ele>154.84</ele>
        <time>1970-01-01T01:00:00Z</time>
      </trkpt>
      <trkpt lat="63.40791733" lon="10.4540995">
        <ele>154.84</ele>
        <time>1970-01-01T01:00:00Z</time>
      </trkpt>
      <trkpt lat="63.407929" lon="10.45409733">
        <ele>154.688</ele>
        <time>1970-01-01T01:00:00Z</time>
      </trkpt>
      <trkpt lat="63.407941" lon="10.454096">
        <ele>154.688</ele>
        <time>1970-01-01T01:00:00Z</time>
      </trkpt>
      <trkpt lat="63.407953" lon="10.454095">
        <ele>154.535</ele>
        <time>1970-01-01T01:00:00Z</time>
      </trkpt>
      <trkpt lat="63.40796583" lon="10.45409567">
        <ele>154.535</ele>
        <time>1970-01-01T01:00:00Z</time>
      </trkpt>
      <trkpt lat="63.40797917" lon="10.4540965">
        <ele>154.231</ele>
        <time>1970-01-01T01:00:00Z</time>
      </trkpt>
      <trkpt lat="63.40799317" lon="10.45409467">
        <ele>154.231</ele>
        <time>1970-01-01T01:00:00Z</time>
      </trkpt>
      <trkpt lat="63.40800683" lon="10.45408983">
        <ele>154.078</ele>
        <time>1970-01-01T01:00:00Z</time>
      </trkpt>
      <trkpt lat="63.4080215" lon="10.45408467">
        <ele>154.078</ele>
        <time>1970-01-01T01:00:00Z</time>
      </trkpt>
      <trkpt lat="63.40803783" lon="10.45408167">
        <ele>153.926</ele>
        <time>1970-01-01T01:00:00Z</time>
      </trkpt>
      <trkpt lat="63.40805483" lon="10.45407967">
        <ele>153.926</ele>
        <time>1970-01-01T01:00:00Z</time>
      </trkpt>
      <trkpt lat="63.408071" lon="10.4540775">
        <ele>153.621</ele>
        <time>1970-01-01T01:00:00Z</time>
      </trkpt>
      <trkpt lat="63.408086" lon="10.45407317">
        <ele>153.621</ele>
        <time>1970-01-01T01:00:00Z</time>
      </trkpt>
      <trkpt lat="63.40810083" lon="10.45407017">
        <ele>153.469</ele>
        <time>1970-01-01T01:00:00Z</time>
      </trkpt>
      <trkpt lat="63.40811517" lon="10.454067">
        <ele>153.469</ele>
        <time>1970-01-01T01:00:00Z</time>
      </trkpt>
      <trkpt lat="63.40812967" lon="10.45406483">
        <ele>153.164</ele>
        <time>1970-01-01T01:00:00Z</time>
      </trkpt>
      <trkpt lat="63.40814367" lon="10.45406367">
        <ele>153.164</ele>
        <time>1970-01-01T01:00:00Z</time>
      </trkpt>
      <trkpt lat="63.40815767" lon="10.4540635">
        <ele>152.859</ele>
        <time>1970-01-01T01:00:00Z</time>
      </trkpt>
      <trkpt lat="63.4081715" lon="10.4540635">
        <ele>152.859</ele>
        <time>1970-01-01T01:00:00Z</time>
      </trkpt>
      <trkpt lat="63.40818667" lon="10.45406067">
        <ele>152.707</ele>
        <time>1970-01-01T01:00:00Z</time>
      </trkpt>
      <trkpt lat="63.40820117" lon="10.454056">
        <ele>152.707</ele>
        <time>1970-01-01T01:00:00Z</time>
      </trkpt>
      <trkpt lat="63.40821617" lon="10.45405217">
        <ele>152.402</ele>
        <time>1970-01-01T01:00:00Z</time>
      </trkpt>
      <trkpt lat="63.40823183" lon="10.454047">
        <ele>152.402</ele>
        <time>1970-01-01T01:00:00Z</time>
      </trkpt>
      <trkpt lat="63.4082485" lon="10.45404417">
        <ele>152.097</ele>
        <time>1970-01-01T01:00:00Z</time>
      </trkpt>
      <trkpt lat="63.40826533" lon="10.45404067">
        <ele>152.097</ele>
        <time>1970-01-01T01:00:00Z</time>
      </trkpt>
      <trkpt lat="63.40828133" lon="10.4540365">
        <ele>151.792</ele>
        <time>1970-01-01T01:00:00Z</time>
      </trkpt>
      <trkpt lat="63.40829633" lon="10.45402933">
        <ele>151.792</ele>
        <time>1970-01-01T01:00:00Z</time>
      </trkpt>
      <trkpt lat="63.40831117" lon="10.45402217">
        <ele>151.487</ele>
        <time>1970-01-01T01:00:00Z</time>
      </trkpt>
      <trkpt lat="63.40832517" lon="10.45401817">
        <ele>151.487</ele>
        <time>1970-01-01T01:00:00Z</time>
      </trkpt>
      <trkpt lat="63.4083395" lon="10.45401867">
        <ele>151.183</ele>
        <time>1970-01-01T01:00:00Z</time>
      </trkpt>
      <trkpt lat="63.40835333" lon="10.454019">
        <ele>151.183</ele>
        <time>1970-01-01T01:00:00Z</time>
      </trkpt>
      <trkpt lat="63.40836867" lon="10.454022">
        <ele>150.878</ele>
        <time>1970-01-01T01:00:00Z</time>
      </trkpt>
      <trkpt lat="63.4083825" lon="10.4540215">
        <ele>150.878</ele>
        <time>1970-01-01T01:00:00Z</time>
      </trkpt>
      <trkpt lat="63.40839617" lon="10.4540235">
        <ele>150.573</ele>
        <time>1970-01-01T01:00:00Z</time>
      </trkpt>
      <trkpt lat="63.4084095" lon="10.454024">
        <ele>150.573</ele>
        <time>1970-01-01T01:00:00Z</time>
      </trkpt>
      <trkpt lat="63.40842567" lon="10.454024">
        <ele>150.268</ele>
        <time>1970-01-01T01:00:00Z</time>
      </trkpt>
      <trkpt lat="63.408443" lon="10.45402267">
        <ele>150.268</ele>
        <time>1970-01-01T01:00:00Z</time>
      </trkpt>
      <trkpt lat="63.40846133" lon="10.45402667">
        <ele>149.963</ele>
        <time>1970-01-01T01:00:00Z</time>
      </trkpt>
      <trkpt lat="63.40847833" lon="10.45403433">
        <ele>149.963</ele>
        <time>1970-01-01T01:00:00Z</time>
      </trkpt>
      <trkpt lat="63.40849383" lon="10.4540425">
        <ele>149.659</ele>
        <time>1970-01-01T01:00:00Z</time>
      </trkpt>
      <trkpt lat="63.40850717" lon="10.45404467">
        <ele>149.659</ele>
        <time>1970-01-01T01:00:00Z</time>
      </trkpt>
      <trkpt lat="63.4085205" lon="10.45404733">
        <ele>149.354</ele>
        <time>1970-01-01T01:00:00Z</time>
      </trkpt>
      <trkpt lat="63.4085345" lon="10.45405067">
        <ele>149.354</ele>
        <time>1970-01-01T01:00:00Z</time>
      </trkpt>
      <trkpt lat="63.4085495" lon="10.45405667">
        <ele>149.049</ele>
        <time>1970-01-01T01:00:00Z</time>
      </trkpt>
      <trkpt lat="63.408564" lon="10.45406467">
        <ele>149.049</ele>
        <time>1970-01-01T01:00:00Z</time>
      </trkpt>
      <trkpt lat="63.40857817" lon="10.454076">
        <ele>148.744</ele>
        <time>1970-01-01T01:00:00Z</time>
      </trkpt>
      <trkpt lat="63.40859083" lon="10.454088">
        <ele>148.744</ele>
        <time>1970-01-01T01:00:00Z</time>
      </trkpt>
      <trkpt lat="63.40860483" lon="10.45410567">
        <ele>148.439</ele>
        <time>1970-01-01T01:00:00Z</time>
      </trkpt>
      <trkpt lat="63.4086175" lon="10.4541205">
        <ele>148.439</ele>
        <time>1970-01-01T01:00:00Z</time>
      </trkpt>
      <trkpt lat="63.408632" lon="10.45413683">
        <ele>148.135</ele>
        <time>1970-01-01T01:00:00Z</time>
      </trkpt>
      <trkpt lat="63.40864417" lon="10.45414667">
        <ele>148.135</ele>
        <time>1970-01-01T01:00:00Z</time>
      </trkpt>
      <trkpt lat="63.40865617" lon="10.45416033">
        <ele>147.982</ele>
        <time>1970-01-01T01:00:00Z</time>
      </trkpt>
      <trkpt lat="63.408668" lon="10.45417967">
        <ele>147.982</ele>
        <time>1970-01-01T01:00:00Z</time>
      </trkpt>
      <trkpt lat="63.40867967" lon="10.45420217">
        <ele>147.677</ele>
        <time>1970-01-01T01:00:00Z</time>
      </trkpt>
      <trkpt lat="63.40869233" lon="10.454225">
        <ele>147.677</ele>
        <time>1970-01-01T01:00:00Z</time>
      </trkpt>
      <trkpt lat="63.408704" lon="10.45424383">
        <ele>147.373</ele>
        <time>1970-01-01T01:00:00Z</time>
      </trkpt>
      <trkpt lat="63.4087165" lon="10.45426283">
        <ele>147.373</ele>
        <time>1970-01-01T01:00:00Z</time>
      </trkpt>
      <trkpt lat="63.4087285" lon="10.45428267">
        <ele>147.22</ele>
        <time>1970-01-01T01:00:00Z</time>
      </trkpt>
      <trkpt lat="63.40874033" lon="10.454304">
        <ele>147.22</ele>
        <time>1970-01-01T01:00:00Z</time>
      </trkpt>
      <trkpt lat="63.40875233" lon="10.45432667">
        <ele>146.915</ele>
        <time>1970-01-01T01:00:00Z</time>
      </trkpt>
      <trkpt lat="63.4087635" lon="10.454348">
        <ele>146.915</ele>
        <time>1970-01-01T01:00:00Z</time>
      </trkpt>
      <trkpt lat="63.40877467" lon="10.454368">
        <ele>146.763</ele>
        <time>1970-01-01T01:00:00Z</time>
      </trkpt>
      <trkpt lat="63.40878533" lon="10.45438733">
        <ele>146.763</ele>
        <time>1970-01-01T01:00:00Z</time>
      </trkpt>
      <trkpt lat="63.40879583" lon="10.45440783">
        <ele>146.611</ele>
        <time>1970-01-01T01:00:00Z</time>
      </trkpt>
      <trkpt lat="63.40880567" lon="10.45442683">
        <ele>146.611</ele>
        <time>1970-01-01T01:00:00Z</time>
      </trkpt>
      <trkpt lat="63.40881583" lon="10.454443">
        <ele>146.458</ele>
        <time>1970-01-01T01:00:00Z</time>
      </trkpt>
      <trkpt lat="63.4088265" lon="10.45445867">
        <ele>146.458</ele>
        <time>1970-01-01T01:00:00Z</time>
      </trkpt>
      <trkpt lat="63.40883783" lon="10.45448067">
        <ele>146.153</ele>
        <time>1970-01-01T01:00:00Z</time>
      </trkpt>
      <trkpt lat="63.40884867" lon="10.454508">
        <ele>146.153</ele>
        <time>1970-01-01T01:00:00Z</time>
      </trkpt>
      <trkpt lat="63.40885883" lon="10.45453633">
        <ele>146.001</ele>
        <time>1970-01-01T01:00:00Z</time>
      </trkpt>
      <trkpt lat="63.40886783" lon="10.45455567">
        <ele>146.001</ele>
        <time>1970-01-01T01:00:00Z</time>
      </trkpt>
      <trkpt lat="63.40887667" lon="10.45457283">
        <ele>145.849</ele>
        <time>1970-01-01T01:00:00Z</time>
      </trkpt>
      <trkpt lat="63.40888583" lon="10.45459033">
        <ele>145.849</ele>
        <time>1970-01-01T01:00:00Z</time>
      </trkpt>
      <trkpt lat="63.408895" lon="10.45461433">
        <ele>145.849</ele>
        <time>1970-01-01T01:00:00Z</time>
      </trkpt>
      <trkpt lat="63.40890467" lon="10.45464133">
        <ele>145.849</ele>
        <time>1970-01-01T01:00:00Z</time>
      </trkpt>
      <trkpt lat="63.40891383" lon="10.45466767">
        <ele>145.696</ele>
        <time>1970-01-01T01:00:00Z</time>
      </trkpt>
      <trkpt lat="63.40892367" lon="10.454697">
        <ele>145.696</ele>
        <time>1970-01-01T01:00:00Z</time>
      </trkpt>
      <trkpt lat="63.40893317" lon="10.45472817">
        <ele>145.696</ele>
        <time>1970-01-01T01:00:00Z</time>
      </trkpt>
      <trkpt lat="63.40894367" lon="10.45475933">
        <ele>145.696</ele>
        <time>1970-01-01T01:00:00Z</time>
      </trkpt>
      <trkpt lat="63.408955" lon="10.45478867">
        <ele>145.544</ele>
        <time>1970-01-01T01:00:00Z</time>
      </trkpt>
      <trkpt lat="63.40896617" lon="10.45481333">
        <ele>145.544</ele>
        <time>1970-01-01T01:00:00Z</time>
      </trkpt>
      <trkpt lat="63.40897667" lon="10.45483767">
        <ele>145.544</ele>
        <time>1970-01-01T01:00:00Z</time>
      </trkpt>
      <trkpt lat="63.4089865" lon="10.45485783">
        <ele>145.544</ele>
        <time>1970-01-01T01:00:00Z</time>
      </trkpt>
      <trkpt lat="63.40899633" lon="10.4548765">
        <ele>145.544</ele>
        <time>1970-01-01T01:00:00Z</time>
      </trkpt>
      <trkpt lat="63.40900717" lon="10.45489483">
        <ele>145.544</ele>
        <time>1970-01-01T01:00:00Z</time>
      </trkpt>
      <trkpt lat="63.40901783" lon="10.454913">
        <ele>145.544</ele>
        <time>1970-01-01T01:00:00Z</time>
      </trkpt>
      <trkpt lat="63.40902833" lon="10.4549305">
        <ele>145.544</ele>
        <time>1970-01-01T01:00:00Z</time>
      </trkpt>
      <trkpt lat="63.40904133" lon="10.45494783">
        <ele>145.544</ele>
        <time>1970-01-01T01:00:00Z</time>
      </trkpt>
      <trkpt lat="63.40905483" lon="10.45496517">
        <ele>145.544</ele>
        <time>1970-01-01T01:00:00Z</time>
      </trkpt>
      <trkpt lat="63.40906983" lon="10.45498933">
        <ele>145.696</ele>
        <time>1970-01-01T01:00:00Z</time>
      </trkpt>
      <trkpt lat="63.40908217" lon="10.45501283">
        <ele>145.696</ele>
        <time>1970-01-01T01:00:00Z</time>
      </trkpt>
      <trkpt lat="63.40909433" lon="10.45504017">
        <ele>145.696</ele>
        <time>1970-01-01T01:00:00Z</time>
      </trkpt>
      <trkpt lat="63.4091065" lon="10.45506267">
        <ele>145.696</ele>
        <time>1970-01-01T01:00:00Z</time>
      </trkpt>
      <trkpt lat="63.40912067" lon="10.45509217">
        <ele>145.696</ele>
        <time>1970-01-01T01:00:00Z</time>
      </trkpt>
      <trkpt lat="63.409135" lon="10.455122">
        <ele>145.696</ele>
        <time>1970-01-01T01:00:00Z</time>
      </trkpt>
      <trkpt lat="63.409149" lon="10.45515517">
        <ele>145.849</ele>
        <time>1970-01-01T01:00:00Z</time>
      </trkpt>
      <trkpt lat="63.409161" lon="10.4551865">
        <ele>145.849</ele>
        <time>1970-01-01T01:00:00Z</time>
      </trkpt>
      <trkpt lat="63.40917233" lon="10.45521533">
        <ele>146.001</ele>
        <time>1970-01-01T01:00:00Z</time>
      </trkpt>
      <trkpt lat="63.40918317" lon="10.45524117">
        <ele>146.001</ele>
        <time>1970-01-01T01:00:00Z</time>
      </trkpt>
      <trkpt lat="63.4091945" lon="10.45526517">
        <ele>146.001</ele>
        <time>1970-01-01T01:00:00Z</time>
      </trkpt>
      <trkpt lat="63.40920633" lon="10.4552905">
        <ele>146.001</ele>
        <time>1970-01-01T01:00:00Z</time>
      </trkpt>
      <trkpt lat="63.40921933" lon="10.45531567">
        <ele>146.153</ele>
        <time>1970-01-01T01:00:00Z</time>
      </trkpt>
      <trkpt lat="63.40923183" lon="10.45533933">
        <ele>146.153</ele>
        <time>1970-01-01T01:00:00Z</time>
      </trkpt>
      <trkpt lat="63.4092435" lon="10.45536117">
        <ele>146.306</ele>
        <time>1970-01-01T01:00:00Z</time>
      </trkpt>
      <trkpt lat="63.409253" lon="10.45538017">
        <ele>146.306</ele>
        <time>1970-01-01T01:00:00Z</time>
      </trkpt>
      <trkpt lat="63.4092615" lon="10.455393">
        <ele>146.306</ele>
        <time>1970-01-01T01:00:00Z</time>
      </trkpt>
      <trkpt lat="63.40927117" lon="10.45539767">
        <ele>146.306</ele>
        <time>1970-01-01T01:00:00Z</time>
      </trkpt>
      <trkpt lat="63.40928233" lon="10.45539167">
        <ele>146.458</ele>
        <time>1970-01-01T01:00:00Z</time>
      </trkpt>
      <trkpt lat="63.40929483" lon="10.4553785">
        <ele>146.458</ele>
        <time>1970-01-01T01:00:00Z</time>
      </trkpt>
      <trkpt lat="63.409306" lon="10.45535883">
        <ele>146.611</ele>
        <time>1970-01-01T01:00:00Z</time>
      </trkpt>
      <trkpt lat="63.409318" lon="10.455343">
        <ele>146.611</ele>
        <time>1970-01-01T01:00:00Z</time>
      </trkpt>
      <trkpt lat="63.40933" lon="10.45532633">
        <ele>146.611</ele>
        <time>1970-01-01T01:00:00Z</time>
      </trkpt>
      <trkpt lat="63.40934367" lon="10.4553115">
        <ele>146.611</ele>
        <time>1970-01-01T01:00:00Z</time>
      </trkpt>
      <trkpt lat="63.40935667" lon="10.45529167">
        <ele>146.763</ele>
        <time>1970-01-01T01:00:00Z</time>
      </trkpt>
      <trkpt lat="63.40936983" lon="10.45527283">
        <ele>146.763</ele>
        <time>1970-01-01T01:00:00Z</time>
      </trkpt>
      <trkpt lat="63.4093835" lon="10.45525433">
        <ele>146.763</ele>
        <time>1970-01-01T01:00:00Z</time>
      </trkpt>
      <trkpt lat="63.40939633" lon="10.45523783">
        <ele>146.763</ele>
        <time>1970-01-01T01:00:00Z</time>
      </trkpt>
      <trkpt lat="63.40940883" lon="10.45522083">
        <ele>146.763</ele>
        <time>1970-01-01T01:00:00Z</time>
      </trkpt>
      <trkpt lat="63.4094205" lon="10.45520333">
        <ele>146.763</ele>
        <time>1970-01-01T01:00:00Z</time>
      </trkpt>
      <trkpt lat="63.409432" lon="10.45518667">
        <ele>146.763</ele>
        <time>1970-01-01T01:00:00Z</time>
      </trkpt>
      <trkpt lat="63.40944483" lon="10.4551705">
        <ele>146.763</ele>
        <time>1970-01-01T01:00:00Z</time>
      </trkpt>
      <trkpt lat="63.40945767" lon="10.4551585">
        <ele>146.763</ele>
        <time>1970-01-01T01:00:00Z</time>
      </trkpt>
      <trkpt lat="63.40947283" lon="10.455146">
        <ele>146.763</ele>
        <time>1970-01-01T01:00:00Z</time>
      </trkpt>
      <trkpt lat="63.4094875" lon="10.45513633">
        <ele>146.611</ele>
        <time>1970-01-01T01:00:00Z</time>
      </trkpt>
      <trkpt lat="63.40950233" lon="10.45512467">
        <ele>146.611</ele>
        <time>1970-01-01T01:00:00Z</time>
      </trkpt>
      <trkpt lat="63.409516" lon="10.45511467">
        <ele>146.458</ele>
        <time>1970-01-01T01:00:00Z</time>
      </trkpt>
      <trkpt lat="63.40953033" lon="10.455109">
        <ele>146.458</ele>
        <time>1970-01-01T01:00:00Z</time>
      </trkpt>
      <trkpt lat="63.40954567" lon="10.4551075">
        <ele>146.306</ele>
        <time>1970-01-01T01:00:00Z</time>
      </trkpt>
      <trkpt lat="63.40956083" lon="10.4551095">
        <ele>146.306</ele>
        <time>1970-01-01T01:00:00Z</time>
      </trkpt>
      <trkpt lat="63.4095755" lon="10.45511217">
        <ele>146.153</ele>
        <time>1970-01-01T01:00:00Z</time>
      </trkpt>
      <trkpt lat="63.40958983" lon="10.45512367">
        <ele>146.153</ele>
        <time>1970-01-01T01:00:00Z</time>
      </trkpt>
      <trkpt lat="63.40960267" lon="10.45513833">
        <ele>146.001</ele>
        <time>1970-01-01T01:00:00Z</time>
      </trkpt>
      <trkpt lat="63.409615" lon="10.4551545">
        <ele>146.001</ele>
        <time>1970-01-01T01:00:00Z</time>
      </trkpt>
      <trkpt lat="63.4096275" lon="10.455165">
        <ele>145.849</ele>
        <time>1970-01-01T01:00:00Z</time>
      </trkpt>
      <trkpt lat="63.40964117" lon="10.45517317">
        <ele>145.849</ele>
        <time>1970-01-01T01:00:00Z</time>
      </trkpt>
      <trkpt lat="63.40965617" lon="10.45518083">
        <ele>145.544</ele>
        <time>1970-01-01T01:00:00Z</time>
      </trkpt>
      <trkpt lat="63.4096725" lon="10.45518783">
        <ele>145.544</ele>
        <time>1970-01-01T01:00:00Z</time>
      </trkpt>
      <trkpt lat="63.40969067" lon="10.45519467">
        <ele>145.391</ele>
        <time>1970-01-01T01:00:00Z</time>
      </trkpt>
      <trkpt lat="63.40970833" lon="10.4552015">
        <ele>145.391</ele>
        <time>1970-01-01T01:00:00Z</time>
      </trkpt>
      <trkpt lat="63.40972567" lon="10.45520667">
        <ele>145.239</ele>
        <time>1970-01-01T01:00:00Z</time>
      </trkpt>
      <trkpt lat="63.40974233" lon="10.455208">
        <ele>145.239</ele>
        <time>1970-01-01T01:00:00Z</time>
      </trkpt>
      <trkpt lat="63.409759" lon="10.45520633">
        <ele>144.934</ele>
        <time>1970-01-01T01:00:00Z</time>
      </trkpt>
      <trkpt lat="63.40977483" lon="10.4552035">
        <ele>144.934</ele>
        <time>1970-01-01T01:00:00Z</time>
      </trkpt>
      <trkpt lat="63.40978967" lon="10.45520167">
        <ele>144.782</ele>
        <time>1970-01-01T01:00:00Z</time>
      </trkpt>
      <trkpt lat="63.4098035" lon="10.45519917">
        <ele>144.782</ele>
        <time>1970-01-01T01:00:00Z</time>
      </trkpt>
      <trkpt lat="63.40981733" lon="10.45519583">
        <ele>144.629</ele>
        <time>1970-01-01T01:00:00Z</time>
      </trkpt>
      <trkpt lat="63.40983067" lon="10.45519133">
        <ele>144.629</ele>
        <time>1970-01-01T01:00:00Z</time>
      </trkpt>
      <trkpt lat="63.40984483" lon="10.45518367">
        <ele>144.325</ele>
        <time>1970-01-01T01:00:00Z</time>
      </trkpt>
      <trkpt lat="63.40985883" lon="10.45517767">
        <ele>144.325</ele>
        <time>1970-01-01T01:00:00Z</time>
      </trkpt>
      <trkpt lat="63.40987333" lon="10.45517483">
        <ele>144.172</ele>
        <time>1970-01-01T01:00:00Z</time>
      </trkpt>
      <trkpt lat="63.40988717" lon="10.45517567">
        <ele>144.172</ele>
        <time>1970-01-01T01:00:00Z</time>
      </trkpt>
      <trkpt lat="63.409901" lon="10.45518017">
        <ele>144.02</ele>
        <time>1970-01-01T01:00:00Z</time>
      </trkpt>
      <trkpt lat="63.40991417" lon="10.45518583">
        <ele>144.02</ele>
        <time>1970-01-01T01:00:00Z</time>
      </trkpt>
      <trkpt lat="63.40992633" lon="10.45519417">
        <ele>143.867</ele>
        <time>1970-01-01T01:00:00Z</time>
      </trkpt>
      <trkpt lat="63.40993683" lon="10.45520233">
        <ele>143.867</ele>
        <time>1970-01-01T01:00:00Z</time>
      </trkpt>
      <trkpt lat="63.4099475" lon="10.45521733">
        <ele>143.715</ele>
        <time>1970-01-01T01:00:00Z</time>
      </trkpt>
      <trkpt lat="63.40995783" lon="10.45523533">
        <ele>143.715</ele>
        <time>1970-01-01T01:00:00Z</time>
      </trkpt>
      <trkpt lat="63.40996833" lon="10.45525683">
        <ele>143.41</ele>
        <time>1970-01-01T01:00:00Z</time>
      </trkpt>
      <trkpt lat="63.40997617" lon="10.4552815">
        <ele>143.41</ele>
        <time>1970-01-01T01:00:00Z</time>
      </trkpt>
      <trkpt lat="63.40998183" lon="10.45531317">
        <ele>143.258</ele>
        <time>1970-01-01T01:00:00Z</time>
      </trkpt>
      <trkpt lat="63.40998467" lon="10.45535033">
        <ele>143.258</ele>
        <time>1970-01-01T01:00:00Z</time>
      </trkpt>
      <trkpt lat="63.4099855" lon="10.45538633">
        <ele>143.105</ele>
        <time>1970-01-01T01:00:00Z</time>
      </trkpt>
      <trkpt lat="63.40998583" lon="10.45542217">
        <ele>143.105</ele>
        <time>1970-01-01T01:00:00Z</time>
      </trkpt>
      <trkpt lat="63.4099845" lon="10.4554545">
        <ele>142.801</ele>
        <time>1970-01-01T01:00:00Z</time>
      </trkpt>
      <trkpt lat="63.409984" lon="10.45548717">
        <ele>142.801</ele>
        <time>1970-01-01T01:00:00Z</time>
      </trkpt>
      <trkpt lat="63.40998367" lon="10.45551717">
        <ele>142.496</ele>
        <time>1970-01-01T01:00:00Z</time>
      </trkpt>
      <trkpt lat="63.40998667" lon="10.45555083">
        <ele>142.496</ele>
        <time>1970-01-01T01:00:00Z</time>
      </trkpt>
      <trkpt lat="63.40999233" lon="10.4555865">
        <ele>142.343</ele>
        <time>1970-01-01T01:00:00Z</time>
      </trkpt>
      <trkpt lat="63.4100005" lon="10.45562267">
        <ele>142.343</ele>
        <time>1970-01-01T01:00:00Z</time>
      </trkpt>
      <trkpt lat="63.41000983" lon="10.45565667">
        <ele>142.039</ele>
        <time>1970-01-01T01:00:00Z</time>
      </trkpt>
      <trkpt lat="63.41001883" lon="10.4556865">
        <ele>142.039</ele>
        <time>1970-01-01T01:00:00Z</time>
      </trkpt>
      <trkpt lat="63.41002683" lon="10.45571583">
        <ele>141.886</ele>
        <time>1970-01-01T01:00:00Z</time>
      </trkpt>
      <trkpt lat="63.410034" lon="10.4557465">
        <ele>141.886</ele>
        <time>1970-01-01T01:00:00Z</time>
      </trkpt>
      <trkpt lat="63.41004083" lon="10.45577817">
        <ele>141.581</ele>
        <time>1970-01-01T01:00:00Z</time>
      </trkpt>
      <trkpt lat="63.41004767" lon="10.45581117">
        <ele>141.581</ele>
        <time>1970-01-01T01:00:00Z</time>
      </trkpt>
      <trkpt lat="63.41005383" lon="10.45583983">
        <ele>141.429</ele>
        <time>1970-01-01T01:00:00Z</time>
      </trkpt>
      <trkpt lat="63.410062" lon="10.455873">
        <ele>141.429</ele>
        <time>1970-01-01T01:00:00Z</time>
      </trkpt>
      <trkpt lat="63.41006833" lon="10.45590767">
        <ele>141.124</ele>
        <time>1970-01-01T01:00:00Z</time>
      </trkpt>
      <trkpt lat="63.41007383" lon="10.455945">
        <ele>141.124</ele>
        <time>1970-01-01T01:00:00Z</time>
      </trkpt>
      <trkpt lat="63.4100765" lon="10.45597917">
        <ele>140.972</ele>
        <time>1970-01-01T01:00:00Z</time>
      </trkpt>
      <trkpt lat="63.41007967" lon="10.45601283">
        <ele>140.972</ele>
        <time>1970-01-01T01:00:00Z</time>
      </trkpt>
      <trkpt lat="63.41008217" lon="10.4560455">
        <ele>140.819</ele>
        <time>1970-01-01T01:00:00Z</time>
      </trkpt>
      <trkpt lat="63.410084" lon="10.4560765">
        <ele>140.819</ele>
        <time>1970-01-01T01:00:00Z</time>
      </trkpt>
      <trkpt lat="63.41008533" lon="10.45610483">
        <ele>140.667</ele>
        <time>1970-01-01T01:00:00Z</time>
      </trkpt>
      <trkpt lat="63.410086" lon="10.45613583">
        <ele>140.667</ele>
        <time>1970-01-01T01:00:00Z</time>
      </trkpt>
      <trkpt lat="63.41008917" lon="10.45616917">
        <ele>140.515</ele>
        <time>1970-01-01T01:00:00Z</time>
      </trkpt>
      <trkpt lat="63.41009367" lon="10.45620383">
        <ele>140.515</ele>
        <time>1970-01-01T01:00:00Z</time>
      </trkpt>
      <trkpt lat="63.4101005" lon="10.4562375">
        <ele>140.362</ele>
        <time>1970-01-01T01:00:00Z</time>
      </trkpt>
      <trkpt lat="63.410105" lon="10.45626767">
        <ele>140.362</ele>
        <time>1970-01-01T01:00:00Z</time>
      </trkpt>
      <trkpt lat="63.41010917" lon="10.4562935">
        <ele>140.21</ele>
        <time>1970-01-01T01:00:00Z</time>
      </trkpt>
      <trkpt lat="63.4101155" lon="10.456318">
        <ele>140.21</ele>
        <time>1970-01-01T01:00:00Z</time>
      </trkpt>
      <trkpt lat="63.41012317" lon="10.4563405">
        <ele>139.905</ele>
        <time>1970-01-01T01:00:00Z</time>
      </trkpt>
      <trkpt lat="63.41013217" lon="10.45636567">
        <ele>139.905</ele>
        <time>1970-01-01T01:00:00Z</time>
      </trkpt>
      <trkpt lat="63.41014083" lon="10.45639033">
        <ele>139.753</ele>
        <time>1970-01-01T01:00:00Z</time>
      </trkpt>
      <trkpt lat="63.41014883" lon="10.45641617">
        <ele>139.753</ele>
        <time>1970-01-01T01:00:00Z</time>
      </trkpt>
      <trkpt lat="63.41015533" lon="10.45644117">
        <ele>139.6</ele>
        <time>1970-01-01T01:00:00Z</time>
      </trkpt>
      <trkpt lat="63.41016083" lon="10.45646417">
        <ele>139.6</ele>
        <time>1970-01-01T01:00:00Z</time>
      </trkpt>
      <trkpt lat="63.410169" lon="10.45649">
        <ele>139.295</ele>
        <time>1970-01-01T01:00:00Z</time>
      </trkpt>
      <trkpt lat="63.41017767" lon="10.456516">
        <ele>139.295</ele>
        <time>1970-01-01T01:00:00Z</time>
      </trkpt>
      <trkpt lat="63.41018767" lon="10.456544">
        <ele>139.143</ele>
        <time>1970-01-01T01:00:00Z</time>
      </trkpt>
      <trkpt lat="63.410195" lon="10.456569">
        <ele>139.143</ele>
        <time>1970-01-01T01:00:00Z</time>
      </trkpt>
      <trkpt lat="63.41020233" lon="10.45659267">
        <ele>138.99</ele>
        <time>1970-01-01T01:00:00Z</time>
      </trkpt>
      <trkpt lat="63.41020867" lon="10.4566155">
        <ele>138.99</ele>
        <time>1970-01-01T01:00:00Z</time>
      </trkpt>
      <trkpt lat="63.41021617" lon="10.4566395">
        <ele>138.838</ele>
        <time>1970-01-01T01:00:00Z</time>
      </trkpt>
      <trkpt lat="63.41022383" lon="10.45666617">
        <ele>138.838</ele>
        <time>1970-01-01T01:00:00Z</time>
      </trkpt>
      <trkpt lat="63.41023133" lon="10.4566935">
        <ele>138.686</ele>
        <time>1970-01-01T01:00:00Z</time>
      </trkpt>
      <trkpt lat="63.41023783" lon="10.4567195">
        <ele>138.686</ele>
        <time>1970-01-01T01:00:00Z</time>
      </trkpt>
      <trkpt lat="63.4102425" lon="10.456746">
        <ele>138.533</ele>
        <time>1970-01-01T01:00:00Z</time>
      </trkpt>
      <trkpt lat="63.41024667" lon="10.45677467">
        <ele>138.533</ele>
        <time>1970-01-01T01:00:00Z</time>
      </trkpt>
      <trkpt lat="63.41025133" lon="10.45680367">
        <ele>138.381</ele>
        <time>1970-01-01T01:00:00Z</time>
      </trkpt>
      <trkpt lat="63.41025767" lon="10.45683183">
        <ele>138.381</ele>
        <time>1970-01-01T01:00:00Z</time>
      </trkpt>
      <trkpt lat="63.41026467" lon="10.456858">
        <ele>138.228</ele>
        <time>1970-01-01T01:00:00Z</time>
      </trkpt>
      <trkpt lat="63.410271" lon="10.45688467">
        <ele>138.228</ele>
        <time>1970-01-01T01:00:00Z</time>
      </trkpt>
      <trkpt lat="63.4102775" lon="10.45691067">
        <ele>138.228</ele>
        <time>1970-01-01T01:00:00Z</time>
      </trkpt>
      <trkpt lat="63.41028383" lon="10.4569375">
        <ele>138.228</ele>
        <time>1970-01-01T01:00:00Z</time>
      </trkpt>
      <trkpt lat="63.4102895" lon="10.456965">
        <ele>138.076</ele>
        <time>1970-01-01T01:00:00Z</time>
      </trkpt>
      <trkpt lat="63.4102945" lon="10.45699367">
        <ele>138.076</ele>
        <time>1970-01-01T01:00:00Z</time>
      </trkpt>
      <trkpt lat="63.41029933" lon="10.45702283">
        <ele>138.076</ele>
        <time>1970-01-01T01:00:00Z</time>
      </trkpt>
      <trkpt lat="63.41030383" lon="10.4570525">
        <ele>138.076</ele>
        <time>1970-01-01T01:00:00Z</time>
      </trkpt>
      <trkpt lat="63.41030817" lon="10.4570825">
        <ele>137.924</ele>
        <time>1970-01-01T01:00:00Z</time>
      </trkpt>
      <trkpt lat="63.41031183" lon="10.457113">
        <ele>137.924</ele>
        <time>1970-01-01T01:00:00Z</time>
      </trkpt>
      <trkpt lat="63.41031567" lon="10.457143">
        <ele>137.924</ele>
        <time>1970-01-01T01:00:00Z</time>
      </trkpt>
      <trkpt lat="63.41032033" lon="10.45717317">
        <ele>137.924</ele>
        <time>1970-01-01T01:00:00Z</time>
      </trkpt>
      <trkpt lat="63.41032467" lon="10.45720333">
        <ele>137.924</ele>
        <time>1970-01-01T01:00:00Z</time>
      </trkpt>
      <trkpt lat="63.41032733" lon="10.45723417">
        <ele>137.924</ele>
        <time>1970-01-01T01:00:00Z</time>
      </trkpt>
      <trkpt lat="63.410328" lon="10.4572645">
        <ele>137.771</ele>
        <time>1970-01-01T01:00:00Z</time>
      </trkpt>
      <trkpt lat="63.41032867" lon="10.45729517">
        <ele>137.771</ele>
        <time>1970-01-01T01:00:00Z</time>
      </trkpt>
      <trkpt lat="63.4103295" lon="10.457326">
        <ele>137.771</ele>
        <time>1970-01-01T01:00:00Z</time>
      </trkpt>
      <trkpt lat="63.41033117" lon="10.45735733">
        <ele>137.771</ele>
        <time>1970-01-01T01:00:00Z</time>
      </trkpt>
      <trkpt lat="63.41033233" lon="10.45738933">
        <ele>137.619</ele>
        <time>1970-01-01T01:00:00Z</time>
      </trkpt>
      <trkpt lat="63.410335" lon="10.45742233">
        <ele>137.619</ele>
        <time>1970-01-01T01:00:00Z</time>
      </trkpt>
      <trkpt lat="63.41033767" lon="10.45745583">
        <ele>137.619</ele>
        <time>1970-01-01T01:00:00Z</time>
      </trkpt>
      <trkpt lat="63.4103415" lon="10.45748933">
        <ele>137.619</ele>
        <time>1970-01-01T01:00:00Z</time>
      </trkpt>
      <trkpt lat="63.41034433" lon="10.4575225">
        <ele>137.619</ele>
        <time>1970-01-01T01:00:00Z</time>
      </trkpt>
      <trkpt lat="63.41034667" lon="10.45755333">
        <ele>137.619</ele>
        <time>1970-01-01T01:00:00Z</time>
      </trkpt>
      <trkpt lat="63.4103485" lon="10.45758367">
        <ele>137.466</ele>
        <time>1970-01-01T01:00:00Z</time>
      </trkpt>
      <trkpt lat="63.4103495" lon="10.4576135">
        <ele>137.466</ele>
        <time>1970-01-01T01:00:00Z</time>
      </trkpt>
      <trkpt lat="63.4103505" lon="10.45764567">
        <ele>137.466</ele>
        <time>1970-01-01T01:00:00Z</time>
      </trkpt>
      <trkpt lat="63.41035183" lon="10.457679">
        <ele>137.466</ele>
        <time>1970-01-01T01:00:00Z</time>
      </trkpt>
      <trkpt lat="63.41035283" lon="10.457714">
        <ele>137.466</ele>
        <time>1970-01-01T01:00:00Z</time>
      </trkpt>
      <trkpt lat="63.41035417" lon="10.4577485">
        <ele>137.466</ele>
        <time>1970-01-01T01:00:00Z</time>
      </trkpt>
      <trkpt lat="63.4103555" lon="10.45778217">
        <ele>137.466</ele>
        <time>1970-01-01T01:00:00Z</time>
      </trkpt>
      <trkpt lat="63.41035817" lon="10.45781583">
        <ele>137.466</ele>
        <time>1970-01-01T01:00:00Z</time>
      </trkpt>
      <trkpt lat="63.41036067" lon="10.4578495">
        <ele>137.466</ele>
        <time>1970-01-01T01:00:00Z</time>
      </trkpt>
      <trkpt lat="63.41036167" lon="10.45788283">
        <ele>137.466</ele>
        <time>1970-01-01T01:00:00Z</time>
      </trkpt>
      <trkpt lat="63.41036333" lon="10.45791433">
        <ele>137.466</ele>
        <time>1970-01-01T01:00:00Z</time>
      </trkpt>
      <trkpt lat="63.41036367" lon="10.45794683">
        <ele>137.466</ele>
        <time>1970-01-01T01:00:00Z</time>
      </trkpt>
      <trkpt lat="63.41036417" lon="10.45798067">
        <ele>137.466</ele>
        <time>1970-01-01T01:00:00Z</time>
      </trkpt>
      <trkpt lat="63.41036367" lon="10.458015">
        <ele>137.466</ele>
        <time>1970-01-01T01:00:00Z</time>
      </trkpt>
      <trkpt lat="63.4103635" lon="10.45804883">
        <ele>137.619</ele>
        <time>1970-01-01T01:00:00Z</time>
      </trkpt>
      <trkpt lat="63.41036483" lon="10.45807933">
        <ele>137.619</ele>
        <time>1970-01-01T01:00:00Z</time>
      </trkpt>
      <trkpt lat="63.41036633" lon="10.4581075">
        <ele>137.619</ele>
        <time>1970-01-01T01:00:00Z</time>
      </trkpt>
      <trkpt lat="63.410368" lon="10.45813683">
        <ele>137.619</ele>
        <time>1970-01-01T01:00:00Z</time>
      </trkpt>
      <trkpt lat="63.4103695" lon="10.458167">
        <ele>137.771</ele>
        <time>1970-01-01T01:00:00Z</time>
      </trkpt>
      <trkpt lat="63.41037117" lon="10.4582015">
        <ele>137.771</ele>
        <time>1970-01-01T01:00:00Z</time>
      </trkpt>
      <trkpt lat="63.41037283" lon="10.45823417">
        <ele>137.924</ele>
        <time>1970-01-01T01:00:00Z</time>
      </trkpt>
      <trkpt lat="63.41037467" lon="10.458268">
        <ele>137.924</ele>
        <time>1970-01-01T01:00:00Z</time>
      </trkpt>
      <trkpt lat="63.4103765" lon="10.4583015">
        <ele>138.228</ele>
        <time>1970-01-01T01:00:00Z</time>
      </trkpt>
      <trkpt lat="63.410379" lon="10.45833583">
        <ele>138.228</ele>
        <time>1970-01-01T01:00:00Z</time>
      </trkpt>
      <trkpt lat="63.41038283" lon="10.45837">
        <ele>138.381</ele>
        <time>1970-01-01T01:00:00Z</time>
      </trkpt>
      <trkpt lat="63.4103855" lon="10.45840133">
        <ele>138.381</ele>
        <time>1970-01-01T01:00:00Z</time>
      </trkpt>
      <trkpt lat="63.4103885" lon="10.4584315">
        <ele>138.686</ele>
        <time>1970-01-01T01:00:00Z</time>
      </trkpt>
      <trkpt lat="63.4103895" lon="10.4584625">
        <ele>138.686</ele>
        <time>1970-01-01T01:00:00Z</time>
      </trkpt>
      <trkpt lat="63.41039117" lon="10.45849317">
        <ele>138.838</ele>
        <time>1970-01-01T01:00:00Z</time>
      </trkpt>
      <trkpt lat="63.410391" lon="10.45852433">
        <ele>138.838</ele>
        <time>1970-01-01T01:00:00Z</time>
      </trkpt>
      <trkpt lat="63.41039117" lon="10.45855517">
        <ele>138.99</ele>
        <time>1970-01-01T01:00:00Z</time>
      </trkpt>
      <trkpt lat="63.41039183" lon="10.458587">
        <ele>138.99</ele>
        <time>1970-01-01T01:00:00Z</time>
      </trkpt>
      <trkpt lat="63.41039383" lon="10.45861833">
        <ele>139.143</ele>
        <time>1970-01-01T01:00:00Z</time>
      </trkpt>
      <trkpt lat="63.41039567" lon="10.45864917">
        <ele>139.143</ele>
        <time>1970-01-01T01:00:00Z</time>
      </trkpt>
      <trkpt lat="63.41039783" lon="10.45868217">
        <ele>139.295</ele>
        <time>1970-01-01T01:00:00Z</time>
      </trkpt>
      <trkpt lat="63.41039933" lon="10.45871583">
        <ele>139.295</ele>
        <time>1970-01-01T01:00:00Z</time>
      </trkpt>
      <trkpt lat="63.4104005" lon="10.45875017">
        <ele>139.448</ele>
        <time>1970-01-01T01:00:00Z</time>
      </trkpt>
      <trkpt lat="63.41040117" lon="10.45878333">
        <ele>139.448</ele>
        <time>1970-01-01T01:00:00Z</time>
      </trkpt>
      <trkpt lat="63.410402" lon="10.45881567">
        <ele>139.6</ele>
        <time>1970-01-01T01:00:00Z</time>
      </trkpt>
      <trkpt lat="63.4104035" lon="10.45884767">
        <ele>139.6</ele>
        <time>1970-01-01T01:00:00Z</time>
      </trkpt>
      <trkpt lat="63.41040517" lon="10.45887917">
        <ele>139.753</ele>
        <time>1970-01-01T01:00:00Z</time>
      </trkpt>
      <trkpt lat="63.41040667" lon="10.45891133">
        <ele>139.753</ele>
        <time>1970-01-01T01:00:00Z</time>
      </trkpt>
      <trkpt lat="63.410408" lon="10.458944">
        <ele>139.905</ele>
        <time>1970-01-01T01:00:00Z</time>
      </trkpt>
      <trkpt lat="63.41040867" lon="10.45897733">
        <ele>139.905</ele>
        <time>1970-01-01T01:00:00Z</time>
      </trkpt>
      <trkpt lat="63.4104095" lon="10.45901133">
        <ele>140.057</ele>
        <time>1970-01-01T01:00:00Z</time>
      </trkpt>
      <trkpt lat="63.41041033" lon="10.45904533">
        <ele>140.057</ele>
        <time>1970-01-01T01:00:00Z</time>
      </trkpt>
      <trkpt lat="63.4104115" lon="10.459079">
        <ele>140.21</ele>
        <time>1970-01-01T01:00:00Z</time>
      </trkpt>
      <trkpt lat="63.41041233" lon="10.459112">
        <ele>140.21</ele>
        <time>1970-01-01T01:00:00Z</time>
      </trkpt>
      <trkpt lat="63.41041317" lon="10.45914567">
        <ele>140.362</ele>
        <time>1970-01-01T01:00:00Z</time>
      </trkpt>
      <trkpt lat="63.41041467" lon="10.45917933">
        <ele>140.362</ele>
        <time>1970-01-01T01:00:00Z</time>
      </trkpt>
      <trkpt lat="63.41041683" lon="10.459212">
        <ele>140.515</ele>
        <time>1970-01-01T01:00:00Z</time>
      </trkpt>
      <trkpt lat="63.41041933" lon="10.459244">
        <ele>140.515</ele>
        <time>1970-01-01T01:00:00Z</time>
      </trkpt>
      <trkpt lat="63.41042183" lon="10.4592755">
        <ele>140.667</ele>
        <time>1970-01-01T01:00:00Z</time>
      </trkpt>
      <trkpt lat="63.4104245" lon="10.45930717">
        <ele>140.667</ele>
        <time>1970-01-01T01:00:00Z</time>
      </trkpt>
      <trkpt lat="63.41042683" lon="10.45933867">
        <ele>140.667</ele>
        <time>1970-01-01T01:00:00Z</time>
      </trkpt>
      <trkpt lat="63.41042883" lon="10.45936917">
        <ele>140.667</ele>
        <time>1970-01-01T01:00:00Z</time>
      </trkpt>
      <trkpt lat="63.41043017" lon="10.4594">
        <ele>140.819</ele>
        <time>1970-01-01T01:00:00Z</time>
      </trkpt>
      <trkpt lat="63.4104325" lon="10.45943083">
        <ele>140.819</ele>
        <time>1970-01-01T01:00:00Z</time>
      </trkpt>
      <trkpt lat="63.41043567" lon="10.459462">
        <ele>140.972</ele>
        <time>1970-01-01T01:00:00Z</time>
      </trkpt>
      <trkpt lat="63.41043967" lon="10.4594935">
        <ele>140.972</ele>
        <time>1970-01-01T01:00:00Z</time>
      </trkpt>
      <trkpt lat="63.4104435" lon="10.459525">
        <ele>140.972</ele>
        <time>1970-01-01T01:00:00Z</time>
      </trkpt>
      <trkpt lat="63.410447" lon="10.4595575">
        <ele>140.972</ele>
        <time>1970-01-01T01:00:00Z</time>
      </trkpt>
      <trkpt lat="63.41044967" lon="10.45959">
        <ele>141.124</ele>
        <time>1970-01-01T01:00:00Z</time>
      </trkpt>
      <trkpt lat="63.41045133" lon="10.45962333">
        <ele>141.124</ele>
        <time>1970-01-01T01:00:00Z</time>
      </trkpt>
      <trkpt lat="63.41045317" lon="10.4596565">
        <ele>141.277</ele>
        <time>1970-01-01T01:00:00Z</time>
      </trkpt>
      <trkpt lat="63.41045583" lon="10.45969067">
        <ele>141.277</ele>
        <time>1970-01-01T01:00:00Z</time>
      </trkpt>
      <trkpt lat="63.41045967" lon="10.4597255">
        <ele>141.277</ele>
        <time>1970-01-01T01:00:00Z</time>
      </trkpt>
      <trkpt lat="63.4104645" lon="10.45976">
        <ele>141.277</ele>
        <time>1970-01-01T01:00:00Z</time>
      </trkpt>
      <trkpt lat="63.41047017" lon="10.459794">
        <ele>141.429</ele>
        <time>1970-01-01T01:00:00Z</time>
      </trkpt>
      <trkpt lat="63.410475" lon="10.4598275">
        <ele>141.429</ele>
        <time>1970-01-01T01:00:00Z</time>
      </trkpt>
      <trkpt lat="63.41047967" lon="10.459863">
        <ele>141.429</ele>
        <time>1970-01-01T01:00:00Z</time>
      </trkpt>
      <trkpt lat="63.4104845" lon="10.45990017">
        <ele>141.429</ele>
        <time>1970-01-01T01:00:00Z</time>
      </trkpt>
      <trkpt lat="63.41048983" lon="10.45993783">
        <ele>141.581</ele>
        <time>1970-01-01T01:00:00Z</time>
      </trkpt>
      <trkpt lat="63.4104945" lon="10.45997467">
        <ele>141.581</ele>
        <time>1970-01-01T01:00:00Z</time>
      </trkpt>
      <trkpt lat="63.41049733" lon="10.46000967">
        <ele>141.581</ele>
        <time>1970-01-01T01:00:00Z</time>
      </trkpt>
      <trkpt lat="63.41050167" lon="10.460044">
        <ele>141.581</ele>
        <time>1970-01-01T01:00:00Z</time>
      </trkpt>
      <trkpt lat="63.41050617" lon="10.46007717">
        <ele>141.734</ele>
        <time>1970-01-01T01:00:00Z</time>
      </trkpt>
      <trkpt lat="63.4105115" lon="10.46010883">
        <ele>141.734</ele>
        <time>1970-01-01T01:00:00Z</time>
      </trkpt>
      <trkpt lat="63.41051717" lon="10.46013983">
        <ele>141.734</ele>
        <time>1970-01-01T01:00:00Z</time>
      </trkpt>
      <trkpt lat="63.41052333" lon="10.46017017">
        <ele>141.734</ele>
        <time>1970-01-01T01:00:00Z</time>
      </trkpt>
      <trkpt lat="63.4105305" lon="10.46020133">
        <ele>141.734</ele>
        <time>1970-01-01T01:00:00Z</time>
      </trkpt>
      <trkpt lat="63.410537" lon="10.46023217">
        <ele>141.734</ele>
        <time>1970-01-01T01:00:00Z</time>
      </trkpt>
      <trkpt lat="63.41054267" lon="10.46026317">
        <ele>141.886</ele>
        <time>1970-01-01T01:00:00Z</time>
      </trkpt>
      <trkpt lat="63.41054867" lon="10.4602945">
        <ele>141.886</ele>
        <time>1970-01-01T01:00:00Z</time>
      </trkpt>
      <trkpt lat="63.41055483" lon="10.46032583">
        <ele>141.886</ele>
        <time>1970-01-01T01:00:00Z</time>
      </trkpt>
      <trkpt lat="63.41056083" lon="10.46035683">
        <ele>141.886</ele>
        <time>1970-01-01T01:00:00Z</time>
      </trkpt>
      <trkpt lat="63.41056567" lon="10.46038833">
        <ele>142.039</ele>
        <time>1970-01-01T01:00:00Z</time>
      </trkpt>
      <trkpt lat="63.41057067" lon="10.46041933">
        <ele>142.039</ele>
        <time>1970-01-01T01:00:00Z</time>
      </trkpt>
      <trkpt lat="63.41057567" lon="10.46045183">
        <ele>142.039</ele>
        <time>1970-01-01T01:00:00Z</time>
      </trkpt>
      <trkpt lat="63.410581" lon="10.46048267">
        <ele>142.039</ele>
        <time>1970-01-01T01:00:00Z</time>
      </trkpt>
      <trkpt lat="63.41058567" lon="10.4605145">
        <ele>142.039</ele>
        <time>1970-01-01T01:00:00Z</time>
      </trkpt>
      <trkpt lat="63.4105905" lon="10.46054583">
        <ele>142.039</ele>
        <time>1970-01-01T01:00:00Z</time>
      </trkpt>
      <trkpt lat="63.41059517" lon="10.46057717">
        <ele>142.039</ele>
        <time>1970-01-01T01:00:00Z</time>
      </trkpt>
      <trkpt lat="63.41060083" lon="10.4606075">
        <ele>142.039</ele>
        <time>1970-01-01T01:00:00Z</time>
      </trkpt>
      <trkpt lat="63.41060717" lon="10.46063767">
        <ele>142.039</ele>
        <time>1970-01-01T01:00:00Z</time>
      </trkpt>
      <trkpt lat="63.41061417" lon="10.46066833">
        <ele>142.039</ele>
        <time>1970-01-01T01:00:00Z</time>
      </trkpt>
      <trkpt lat="63.41062067" lon="10.46069883">
        <ele>142.039</ele>
        <time>1970-01-01T01:00:00Z</time>
      </trkpt>
      <trkpt lat="63.41062583" lon="10.46072917">
        <ele>142.039</ele>
        <time>1970-01-01T01:00:00Z</time>
      </trkpt>
      <trkpt lat="63.41063183" lon="10.46075817">
        <ele>142.039</ele>
        <time>1970-01-01T01:00:00Z</time>
      </trkpt>
      <trkpt lat="63.4106375" lon="10.46078733">
        <ele>142.039</ele>
        <time>1970-01-01T01:00:00Z</time>
      </trkpt>
      <trkpt lat="63.4106435" lon="10.46081617">
        <ele>142.039</ele>
        <time>1970-01-01T01:00:00Z</time>
      </trkpt>
      <trkpt lat="63.41064933" lon="10.46084533">
        <ele>142.039</ele>
        <time>1970-01-01T01:00:00Z</time>
      </trkpt>
      <trkpt lat="63.41065567" lon="10.46087433">
        <ele>142.039</ele>
        <time>1970-01-01T01:00:00Z</time>
      </trkpt>
      <trkpt lat="63.41066267" lon="10.46090317">
        <ele>142.039</ele>
        <time>1970-01-01T01:00:00Z</time>
      </trkpt>
      <trkpt lat="63.4106695" lon="10.4609325">
        <ele>142.039</ele>
        <time>1970-01-01T01:00:00Z</time>
      </trkpt>
      <trkpt lat="63.41067667" lon="10.46096183">
        <ele>142.039</ele>
        <time>1970-01-01T01:00:00Z</time>
      </trkpt>
      <trkpt lat="63.41068433" lon="10.46099033">
        <ele>142.039</ele>
        <time>1970-01-01T01:00:00Z</time>
      </trkpt>
      <trkpt lat="63.41069033" lon="10.46101833">
        <ele>142.039</ele>
        <time>1970-01-01T01:00:00Z</time>
      </trkpt>
      <trkpt lat="63.410696" lon="10.4610455">
        <ele>141.886</ele>
        <time>1970-01-01T01:00:00Z</time>
      </trkpt>
      <trkpt lat="63.41070083" lon="10.4610725">
        <ele>141.886</ele>
        <time>1970-01-01T01:00:00Z</time>
      </trkpt>
      <trkpt lat="63.41070667" lon="10.461102">
        <ele>141.886</ele>
        <time>1970-01-01T01:00:00Z</time>
      </trkpt>
      <trkpt lat="63.4107135" lon="10.461131">
        <ele>141.886</ele>
        <time>1970-01-01T01:00:00Z</time>
      </trkpt>
      <trkpt lat="63.41072183" lon="10.46116033">
        <ele>141.886</ele>
        <time>1970-01-01T01:00:00Z</time>
      </trkpt>
      <trkpt lat="63.41073183" lon="10.46119083">
        <ele>141.886</ele>
        <time>1970-01-01T01:00:00Z</time>
      </trkpt>
      <trkpt lat="63.41074183" lon="10.4612245">
        <ele>141.886</ele>
        <time>1970-01-01T01:00:00Z</time>
      </trkpt>
      <trkpt lat="63.41075067" lon="10.46125833">
        <ele>141.886</ele>
        <time>1970-01-01T01:00:00Z</time>
      </trkpt>
      <trkpt lat="63.4107595" lon="10.46129067">
        <ele>141.886</ele>
        <time>1970-01-01T01:00:00Z</time>
      </trkpt>
      <trkpt lat="63.410767" lon="10.461324">
        <ele>141.886</ele>
        <time>1970-01-01T01:00:00Z</time>
      </trkpt>
      <trkpt lat="63.4107755" lon="10.4613605">
        <ele>141.886</ele>
        <time>1970-01-01T01:00:00Z</time>
      </trkpt>
      <trkpt lat="63.41078483" lon="10.46139883">
        <ele>141.886</ele>
        <time>1970-01-01T01:00:00Z</time>
      </trkpt>
      <trkpt lat="63.410794" lon="10.461436">
        <ele>141.886</ele>
        <time>1970-01-01T01:00:00Z</time>
      </trkpt>
      <trkpt lat="63.41080133" lon="10.46147017">
        <ele>141.886</ele>
        <time>1970-01-01T01:00:00Z</time>
      </trkpt>
      <trkpt lat="63.41080817" lon="10.4615035">
        <ele>141.886</ele>
        <time>1970-01-01T01:00:00Z</time>
      </trkpt>
      <trkpt lat="63.41081467" lon="10.46153667">
        <ele>141.886</ele>
        <time>1970-01-01T01:00:00Z</time>
      </trkpt>
      <trkpt lat="63.410822" lon="10.4615715">
        <ele>141.886</ele>
        <time>1970-01-01T01:00:00Z</time>
      </trkpt>
      <trkpt lat="63.410828" lon="10.46160583">
        <ele>141.886</ele>
        <time>1970-01-01T01:00:00Z</time>
      </trkpt>
      <trkpt lat="63.4108335" lon="10.46163917">
        <ele>141.886</ele>
        <time>1970-01-01T01:00:00Z</time>
      </trkpt>
      <trkpt lat="63.4108395" lon="10.46167233">
        <ele>141.886</ele>
        <time>1970-01-01T01:00:00Z</time>
      </trkpt>
      <trkpt lat="63.41084483" lon="10.461703">
        <ele>141.886</ele>
        <time>1970-01-01T01:00:00Z</time>
      </trkpt>
      <trkpt lat="63.41085067" lon="10.461733">
        <ele>141.886</ele>
        <time>1970-01-01T01:00:00Z</time>
      </trkpt>
      <trkpt lat="63.410855" lon="10.46176267">
        <ele>141.886</ele>
        <time>1970-01-01T01:00:00Z</time>
      </trkpt>
      <trkpt lat="63.41085883" lon="10.46179267">
        <ele>141.886</ele>
        <time>1970-01-01T01:00:00Z</time>
      </trkpt>
      <trkpt lat="63.410862" lon="10.461823">
        <ele>141.886</ele>
        <time>1970-01-01T01:00:00Z</time>
      </trkpt>
      <trkpt lat="63.41086533" lon="10.46185183">
        <ele>141.886</ele>
        <time>1970-01-01T01:00:00Z</time>
      </trkpt>
      <trkpt lat="63.41086833" lon="10.4618815">
        <ele>141.886</ele>
        <time>1970-01-01T01:00:00Z</time>
      </trkpt>
      <trkpt lat="63.4108715" lon="10.46191133">
        <ele>141.886</ele>
        <time>1970-01-01T01:00:00Z</time>
      </trkpt>
      <trkpt lat="63.4108745" lon="10.46194233">
        <ele>141.886</ele>
        <time>1970-01-01T01:00:00Z</time>
      </trkpt>
      <trkpt lat="63.41087833" lon="10.46197383">
        <ele>141.886</ele>
        <time>1970-01-01T01:00:00Z</time>
      </trkpt>
      <trkpt lat="63.4108835" lon="10.46200283">
        <ele>141.886</ele>
        <time>1970-01-01T01:00:00Z</time>
      </trkpt>
      <trkpt lat="63.41089017" lon="10.4620295">
        <ele>141.886</ele>
        <time>1970-01-01T01:00:00Z</time>
      </trkpt>
      <trkpt lat="63.41089683" lon="10.46205467">
        <ele>142.039</ele>
        <time>1970-01-01T01:00:00Z</time>
      </trkpt>
      <trkpt lat="63.4109025" lon="10.46208167">
        <ele>142.039</ele>
        <time>1970-01-01T01:00:00Z</time>
      </trkpt>
      <trkpt lat="63.41090683" lon="10.4621105">
        <ele>142.039</ele>
        <time>1970-01-01T01:00:00Z</time>
      </trkpt>
      <trkpt lat="63.410911" lon="10.46213983">
        <ele>142.039</ele>
        <time>1970-01-01T01:00:00Z</time>
      </trkpt>
      <trkpt lat="63.41091483" lon="10.4621695">
        <ele>142.191</ele>
        <time>1970-01-01T01:00:00Z</time>
      </trkpt>
      <trkpt lat="63.41091933" lon="10.4621995">
        <ele>142.191</ele>
        <time>1970-01-01T01:00:00Z</time>
      </trkpt>
      <trkpt lat="63.4109235" lon="10.46222967">
        <ele>142.191</ele>
        <time>1970-01-01T01:00:00Z</time>
      </trkpt>
      <trkpt lat="63.41092817" lon="10.46225983">
        <ele>142.191</ele>
        <time>1970-01-01T01:00:00Z</time>
      </trkpt>
      <trkpt lat="63.4109325" lon="10.46229083">
        <ele>142.343</ele>
        <time>1970-01-01T01:00:00Z</time>
      </trkpt>
      <trkpt lat="63.410937" lon="10.46232217">
        <ele>142.343</ele>
        <time>1970-01-01T01:00:00Z</time>
      </trkpt>
      <trkpt lat="63.41094167" lon="10.46235267">
        <ele>142.496</ele>
        <time>1970-01-01T01:00:00Z</time>
      </trkpt>
      <trkpt lat="63.41094617" lon="10.46238333">
        <ele>142.496</ele>
        <time>1970-01-01T01:00:00Z</time>
      </trkpt>
      <trkpt lat="63.41095083" lon="10.46241467">
        <ele>142.496</ele>
        <time>1970-01-01T01:00:00Z</time>
      </trkpt>
      <trkpt lat="63.41095433" lon="10.462446">
        <ele>142.496</ele>
        <time>1970-01-01T01:00:00Z</time>
      </trkpt>
      <trkpt lat="63.41095733" lon="10.46247583">
        <ele>142.648</ele>
        <time>1970-01-01T01:00:00Z</time>
      </trkpt>
      <trkpt lat="63.41096067" lon="10.46250533">
        <ele>142.648</ele>
        <time>1970-01-01T01:00:00Z</time>
      </trkpt>
      <trkpt lat="63.41096617" lon="10.46253683">
        <ele>142.801</ele>
        <time>1970-01-01T01:00:00Z</time>
      </trkpt>
      <trkpt lat="63.41097317" lon="10.46257167">
        <ele>142.801</ele>
        <time>1970-01-01T01:00:00Z</time>
      </trkpt>
      <trkpt lat="63.41097933" lon="10.46260817">
        <ele>142.953</ele>
        <time>1970-01-01T01:00:00Z</time>
      </trkpt>
      <trkpt lat="63.41098317" lon="10.46264417">
        <ele>142.953</ele>
        <time>1970-01-01T01:00:00Z</time>
      </trkpt>
      <trkpt lat="63.4109845" lon="10.46267817">
        <ele>143.105</ele>
        <time>1970-01-01T01:00:00Z</time>
      </trkpt>
      <trkpt lat="63.4109865" lon="10.46271">
        <ele>143.105</ele>
        <time>1970-01-01T01:00:00Z</time>
      </trkpt>
      <trkpt lat="63.41098967" lon="10.46274367">
        <ele>143.258</ele>
        <time>1970-01-01T01:00:00Z</time>
      </trkpt>
      <trkpt lat="63.41099283" lon="10.4627785">
        <ele>143.258</ele>
        <time>1970-01-01T01:00:00Z</time>
      </trkpt>
      <trkpt lat="63.41099483" lon="10.46281433">
        <ele>143.41</ele>
        <time>1970-01-01T01:00:00Z</time>
      </trkpt>
      <trkpt lat="63.4109965" lon="10.4628485">
        <ele>143.41</ele>
        <time>1970-01-01T01:00:00Z</time>
      </trkpt>
      <trkpt lat="63.41099867" lon="10.46288233">
        <ele>143.563</ele>
        <time>1970-01-01T01:00:00Z</time>
      </trkpt>
      <trkpt lat="63.41100167" lon="10.462916">
        <ele>143.563</ele>
        <time>1970-01-01T01:00:00Z</time>
      </trkpt>
      <trkpt lat="63.41100517" lon="10.46294983">
        <ele>143.715</ele>
        <time>1970-01-01T01:00:00Z</time>
      </trkpt>
      <trkpt lat="63.411009" lon="10.4629845">
        <ele>143.715</ele>
        <time>1970-01-01T01:00:00Z</time>
      </trkpt>
      <trkpt lat="63.41101267" lon="10.463019">
        <ele>143.867</ele>
        <time>1970-01-01T01:00:00Z</time>
      </trkpt>
      <trkpt lat="63.41101617" lon="10.46305283">
        <ele>143.867</ele>
        <time>1970-01-01T01:00:00Z</time>
      </trkpt>
      <trkpt lat="63.41101933" lon="10.463085">
        <ele>144.02</ele>
        <time>1970-01-01T01:00:00Z</time>
      </trkpt>
      <trkpt lat="63.411023" lon="10.46311717">
        <ele>144.02</ele>
        <time>1970-01-01T01:00:00Z</time>
      </trkpt>
      <trkpt lat="63.41102767" lon="10.46314867">
        <ele>144.172</ele>
        <time>1970-01-01T01:00:00Z</time>
      </trkpt>
      <trkpt lat="63.41103283" lon="10.46317967">
        <ele>144.172</ele>
        <time>1970-01-01T01:00:00Z</time>
      </trkpt>
      <trkpt lat="63.41103767" lon="10.46320933">
        <ele>144.325</ele>
        <time>1970-01-01T01:00:00Z</time>
      </trkpt>
      <trkpt lat="63.4110415" lon="10.4632385">
        <ele>144.325</ele>
        <time>1970-01-01T01:00:00Z</time>
      </trkpt>
      <trkpt lat="63.41104533" lon="10.46326767">
        <ele>144.477</ele>
        <time>1970-01-01T01:00:00Z</time>
      </trkpt>
      <trkpt lat="63.4110485" lon="10.46329783">
        <ele>144.477</ele>
        <time>1970-01-01T01:00:00Z</time>
      </trkpt>
      <trkpt lat="63.41105183" lon="10.46332783">
        <ele>144.629</ele>
        <time>1970-01-01T01:00:00Z</time>
      </trkpt>
      <trkpt lat="63.4110535" lon="10.46336">
        <ele>144.629</ele>
        <time>1970-01-01T01:00:00Z</time>
      </trkpt>
      <trkpt lat="63.41105517" lon="10.463394">
        <ele>144.629</ele>
        <time>1970-01-01T01:00:00Z</time>
      </trkpt>
      <trkpt lat="63.41105617" lon="10.46342783">
        <ele>144.629</ele>
        <time>1970-01-01T01:00:00Z</time>
      </trkpt>
      <trkpt lat="63.41105683" lon="10.46346083">
        <ele>144.782</ele>
        <time>1970-01-01T01:00:00Z</time>
      </trkpt>
      <trkpt lat="63.41105683" lon="10.4634925">
        <ele>144.782</ele>
        <time>1970-01-01T01:00:00Z</time>
      </trkpt>
      <trkpt lat="63.411056" lon="10.4635255">
        <ele>144.934</ele>
        <time>1970-01-01T01:00:00Z</time>
      </trkpt>
      <trkpt lat="63.4110565" lon="10.46355767">
        <ele>144.934</ele>
        <time>1970-01-01T01:00:00Z</time>
      </trkpt>
      <trkpt lat="63.4110575" lon="10.46359133">
        <ele>144.934</ele>
        <time>1970-01-01T01:00:00Z</time>
      </trkpt>
      <trkpt lat="63.41105967" lon="10.46362567">
        <ele>144.934</ele>
        <time>1970-01-01T01:00:00Z</time>
      </trkpt>
      <trkpt lat="63.4110615" lon="10.46366183">
        <ele>145.087</ele>
        <time>1970-01-01T01:00:00Z</time>
      </trkpt>
      <trkpt lat="63.4110645" lon="10.4636965">
        <ele>145.087</ele>
        <time>1970-01-01T01:00:00Z</time>
      </trkpt>
      <trkpt lat="63.41106733" lon="10.46373067">
        <ele>145.087</ele>
        <time>1970-01-01T01:00:00Z</time>
      </trkpt>
      <trkpt lat="63.411071" lon="10.46376317">
        <ele>145.087</ele>
        <time>1970-01-01T01:00:00Z</time>
      </trkpt>
      <trkpt lat="63.41107417" lon="10.46379517">
        <ele>145.239</ele>
        <time>1970-01-01T01:00:00Z</time>
      </trkpt>
      <trkpt lat="63.41107683" lon="10.46382717">
        <ele>145.239</ele>
        <time>1970-01-01T01:00:00Z</time>
      </trkpt>
      <trkpt lat="63.41107933" lon="10.4638595">
        <ele>145.239</ele>
        <time>1970-01-01T01:00:00Z</time>
      </trkpt>
      <trkpt lat="63.41108183" lon="10.4638915">
        <ele>145.239</ele>
        <time>1970-01-01T01:00:00Z</time>
      </trkpt>
      <trkpt lat="63.4110845" lon="10.463923">
        <ele>145.391</ele>
        <time>1970-01-01T01:00:00Z</time>
      </trkpt>
      <trkpt lat="63.41108733" lon="10.463954">
        <ele>145.391</ele>
        <time>1970-01-01T01:00:00Z</time>
      </trkpt>
      <trkpt lat="63.41109033" lon="10.463987">
        <ele>145.544</ele>
        <time>1970-01-01T01:00:00Z</time>
      </trkpt>
      <trkpt lat="63.411093" lon="10.46402117">
        <ele>145.544</ele>
        <time>1970-01-01T01:00:00Z</time>
      </trkpt>
      <trkpt lat="63.4110955" lon="10.46405367">
        <ele>145.696</ele>
        <time>1970-01-01T01:00:00Z</time>
      </trkpt>
      <trkpt lat="63.41109733" lon="10.46408567">
        <ele>145.696</ele>
        <time>1970-01-01T01:00:00Z</time>
      </trkpt>
      <trkpt lat="63.41109967" lon="10.46411717">
        <ele>145.696</ele>
        <time>1970-01-01T01:00:00Z</time>
      </trkpt>
      <trkpt lat="63.41110117" lon="10.46414983">
        <ele>145.696</ele>
        <time>1970-01-01T01:00:00Z</time>
      </trkpt>
      <trkpt lat="63.411103" lon="10.46418167">
        <ele>145.849</ele>
        <time>1970-01-01T01:00:00Z</time>
      </trkpt>
      <trkpt lat="63.41110467" lon="10.46421583">
        <ele>145.849</ele>
        <time>1970-01-01T01:00:00Z</time>
      </trkpt>
      <trkpt lat="63.411108" lon="10.46425183">
        <ele>145.849</ele>
        <time>1970-01-01T01:00:00Z</time>
      </trkpt>
      <trkpt lat="63.41111033" lon="10.4642885">
        <ele>145.849</ele>
        <time>1970-01-01T01:00:00Z</time>
      </trkpt>
      <trkpt lat="63.41111217" lon="10.46432383">
        <ele>146.001</ele>
        <time>1970-01-01T01:00:00Z</time>
      </trkpt>
      <trkpt lat="63.41111233" lon="10.4643595">
        <ele>146.001</ele>
        <time>1970-01-01T01:00:00Z</time>
      </trkpt>
      <trkpt lat="63.41111367" lon="10.4643955">
        <ele>146.001</ele>
        <time>1970-01-01T01:00:00Z</time>
      </trkpt>
      <trkpt lat="63.41111417" lon="10.46443233">
        <ele>146.001</ele>
        <time>1970-01-01T01:00:00Z</time>
      </trkpt>
      <trkpt lat="63.41111367" lon="10.4644695">
        <ele>146.153</ele>
        <time>1970-01-01T01:00:00Z</time>
      </trkpt>
      <trkpt lat="63.41111183" lon="10.46450783">
        <ele>146.153</ele>
        <time>1970-01-01T01:00:00Z</time>
      </trkpt>
      <trkpt lat="63.41110967" lon="10.464546">
        <ele>146.153</ele>
        <time>1970-01-01T01:00:00Z</time>
      </trkpt>
      <trkpt lat="63.41110733" lon="10.46458433">
        <ele>146.153</ele>
        <time>1970-01-01T01:00:00Z</time>
      </trkpt>
      <trkpt lat="63.41110483" lon="10.4646205">
        <ele>146.153</ele>
        <time>1970-01-01T01:00:00Z</time>
      </trkpt>
      <trkpt lat="63.41110167" lon="10.4646575">
        <ele>146.153</ele>
        <time>1970-01-01T01:00:00Z</time>
      </trkpt>
      <trkpt lat="63.4110995" lon="10.4646905">
        <ele>146.153</ele>
        <time>1970-01-01T01:00:00Z</time>
      </trkpt>
      <trkpt lat="63.41109833" lon="10.4647235">
        <ele>146.153</ele>
        <time>1970-01-01T01:00:00Z</time>
      </trkpt>
      <trkpt lat="63.41109883" lon="10.46475517">
        <ele>146.153</ele>
        <time>1970-01-01T01:00:00Z</time>
      </trkpt>
      <trkpt lat="63.41109817" lon="10.46478833">
        <ele>146.153</ele>
        <time>1970-01-01T01:00:00Z</time>
      </trkpt>
      <trkpt lat="63.41109583" lon="10.464823">
        <ele>146.153</ele>
        <time>1970-01-01T01:00:00Z</time>
      </trkpt>
      <trkpt lat="63.41109283" lon="10.46485533">
        <ele>146.153</ele>
        <time>1970-01-01T01:00:00Z</time>
      </trkpt>
      <trkpt lat="63.41109083" lon="10.4648865">
        <ele>146.001</ele>
        <time>1970-01-01T01:00:00Z</time>
      </trkpt>
      <trkpt lat="63.41109067" lon="10.464916">
        <ele>146.001</ele>
        <time>1970-01-01T01:00:00Z</time>
      </trkpt>
      <trkpt lat="63.41109083" lon="10.46494633">
        <ele>146.001</ele>
        <time>1970-01-01T01:00:00Z</time>
      </trkpt>
      <trkpt lat="63.41109067" lon="10.4649765">
        <ele>146.001</ele>
        <time>1970-01-01T01:00:00Z</time>
      </trkpt>
      <trkpt lat="63.41109" lon="10.46500433">
        <ele>146.001</ele>
        <time>1970-01-01T01:00:00Z</time>
      </trkpt>
      <trkpt lat="63.41108867" lon="10.46503133">
        <ele>146.001</ele>
        <time>1970-01-01T01:00:00Z</time>
      </trkpt>
      <trkpt lat="63.41108683" lon="10.4650575">
        <ele>146.001</ele>
        <time>1970-01-01T01:00:00Z</time>
      </trkpt>
      <trkpt lat="63.411085" lon="10.46508417">
        <ele>146.001</ele>
        <time>1970-01-01T01:00:00Z</time>
      </trkpt>
      <trkpt lat="63.41108233" lon="10.4651115">
        <ele>146.153</ele>
        <time>1970-01-01T01:00:00Z</time>
      </trkpt>
      <trkpt lat="63.4110795" lon="10.46513883">
        <ele>146.153</ele>
        <time>1970-01-01T01:00:00Z</time>
      </trkpt>
      <trkpt lat="63.411076" lon="10.46516767">
        <ele>146.153</ele>
        <time>1970-01-01T01:00:00Z</time>
      </trkpt>
      <trkpt lat="63.4110735" lon="10.46519617">
        <ele>146.153</ele>
        <time>1970-01-01T01:00:00Z</time>
      </trkpt>
      <trkpt lat="63.41107017" lon="10.46522683">
        <ele>146.153</ele>
        <time>1970-01-01T01:00:00Z</time>
      </trkpt>
      <trkpt lat="63.41106733" lon="10.46525633">
        <ele>146.153</ele>
        <time>1970-01-01T01:00:00Z</time>
      </trkpt>
      <trkpt lat="63.41106383" lon="10.46528517">
        <ele>146.306</ele>
        <time>1970-01-01T01:00:00Z</time>
      </trkpt>
      <trkpt lat="63.4110605" lon="10.46531433">
        <ele>146.306</ele>
        <time>1970-01-01T01:00:00Z</time>
      </trkpt>
      <trkpt lat="63.41105633" lon="10.465346">
        <ele>146.306</ele>
        <time>1970-01-01T01:00:00Z</time>
      </trkpt>
      <trkpt lat="63.4110535" lon="10.46537933">
        <ele>146.306</ele>
        <time>1970-01-01T01:00:00Z</time>
      </trkpt>
      <trkpt lat="63.41105083" lon="10.46541267">
        <ele>146.306</ele>
        <time>1970-01-01T01:00:00Z</time>
      </trkpt>
      <trkpt lat="63.411049" lon="10.46544633">
        <ele>146.306</ele>
        <time>1970-01-01T01:00:00Z</time>
      </trkpt>
      <trkpt lat="63.41104717" lon="10.4654795">
        <ele>146.458</ele>
        <time>1970-01-01T01:00:00Z</time>
      </trkpt>
      <trkpt lat="63.41104517" lon="10.465513">
        <ele>146.458</ele>
        <time>1970-01-01T01:00:00Z</time>
      </trkpt>
      <trkpt lat="63.41104433" lon="10.465546">
        <ele>146.611</ele>
        <time>1970-01-01T01:00:00Z</time>
      </trkpt>
      <trkpt lat="63.411043" lon="10.46558017">
        <ele>146.611</ele>
        <time>1970-01-01T01:00:00Z</time>
      </trkpt>
      <trkpt lat="63.41104167" lon="10.46561733">
        <ele>146.611</ele>
        <time>1970-01-01T01:00:00Z</time>
      </trkpt>
      <trkpt lat="63.41103883" lon="10.46565383">
        <ele>146.611</ele>
        <time>1970-01-01T01:00:00Z</time>
      </trkpt>
      <trkpt lat="63.41103767" lon="10.4656925">
        <ele>146.763</ele>
        <time>1970-01-01T01:00:00Z</time>
      </trkpt>
      <trkpt lat="63.4110365" lon="10.46572783">
        <ele>146.763</ele>
        <time>1970-01-01T01:00:00Z</time>
      </trkpt>
      <trkpt lat="63.411036" lon="10.46576467">
        <ele>146.915</ele>
        <time>1970-01-01T01:00:00Z</time>
      </trkpt>
      <trkpt lat="63.41103567" lon="10.46580117">
        <ele>146.915</ele>
        <time>1970-01-01T01:00:00Z</time>
      </trkpt>
      <trkpt lat="63.41103833" lon="10.46583967">
        <ele>146.915</ele>
        <time>1970-01-01T01:00:00Z</time>
      </trkpt>
      <trkpt lat="63.41104067" lon="10.46587567">
        <ele>146.915</ele>
        <time>1970-01-01T01:00:00Z</time>
      </trkpt>
      <trkpt lat="63.41104183" lon="10.46590867">
        <ele>147.068</ele>
        <time>1970-01-01T01:00:00Z</time>
      </trkpt>
      <trkpt lat="63.4110405" lon="10.4659395">
        <ele>147.068</ele>
        <time>1970-01-01T01:00:00Z</time>
      </trkpt>
      <trkpt lat="63.41104" lon="10.46597183">
        <ele>147.22</ele>
        <time>1970-01-01T01:00:00Z</time>
      </trkpt>
      <trkpt lat="63.4110395" lon="10.46600617">
        <ele>147.22</ele>
        <time>1970-01-01T01:00:00Z</time>
      </trkpt>
      <trkpt lat="63.41103917" lon="10.46604">
        <ele>147.373</ele>
        <time>1970-01-01T01:00:00Z</time>
      </trkpt>
      <trkpt lat="63.4110385" lon="10.466074">
        <ele>147.373</ele>
        <time>1970-01-01T01:00:00Z</time>
      </trkpt>
      <trkpt lat="63.41103733" lon="10.46610667">
        <ele>147.525</ele>
        <time>1970-01-01T01:00:00Z</time>
      </trkpt>
      <trkpt lat="63.4110355" lon="10.466141">
        <ele>147.525</ele>
        <time>1970-01-01T01:00:00Z</time>
      </trkpt>
      <trkpt lat="63.41103283" lon="10.4661755">
        <ele>147.677</ele>
        <time>1970-01-01T01:00:00Z</time>
      </trkpt>
      <trkpt lat="63.41103" lon="10.46621117">
        <ele>147.677</ele>
        <time>1970-01-01T01:00:00Z</time>
      </trkpt>
      <trkpt lat="63.41102667" lon="10.46624617">
        <ele>147.83</ele>
        <time>1970-01-01T01:00:00Z</time>
      </trkpt>
      <trkpt lat="63.41102267" lon="10.466281">
        <ele>147.83</ele>
        <time>1970-01-01T01:00:00Z</time>
      </trkpt>
      <trkpt lat="63.41102" lon="10.46631183">
        <ele>147.982</ele>
        <time>1970-01-01T01:00:00Z</time>
      </trkpt>
      <trkpt lat="63.411017" lon="10.46634133">
        <ele>147.982</ele>
        <time>1970-01-01T01:00:00Z</time>
      </trkpt>
      <trkpt lat="63.41101417" lon="10.4663695">
        <ele>148.135</ele>
        <time>1970-01-01T01:00:00Z</time>
      </trkpt>
      <trkpt lat="63.41101083" lon="10.46640083">
        <ele>148.135</ele>
        <time>1970-01-01T01:00:00Z</time>
      </trkpt>
      <trkpt lat="63.41100783" lon="10.46643533">
        <ele>148.287</ele>
        <time>1970-01-01T01:00:00Z</time>
      </trkpt>
      <trkpt lat="63.4110045" lon="10.46647017">
        <ele>148.287</ele>
        <time>1970-01-01T01:00:00Z</time>
      </trkpt>
      <trkpt lat="63.41099983" lon="10.46650417">
        <ele>148.439</ele>
        <time>1970-01-01T01:00:00Z</time>
      </trkpt>
      <trkpt lat="63.41099433" lon="10.466535">
        <ele>148.439</ele>
        <time>1970-01-01T01:00:00Z</time>
      </trkpt>
      <trkpt lat="63.41098833" lon="10.46656483">
        <ele>148.592</ele>
        <time>1970-01-01T01:00:00Z</time>
      </trkpt>
      <trkpt lat="63.41098267" lon="10.46659567">
        <ele>148.592</ele>
        <time>1970-01-01T01:00:00Z</time>
      </trkpt>
      <trkpt lat="63.41097767" lon="10.466628">
        <ele>148.897</ele>
        <time>1970-01-01T01:00:00Z</time>
      </trkpt>
      <trkpt lat="63.41097233" lon="10.46666067">
        <ele>148.897</ele>
        <time>1970-01-01T01:00:00Z</time>
      </trkpt>
      <trkpt lat="63.410966" lon="10.466693">
        <ele>149.049</ele>
        <time>1970-01-01T01:00:00Z</time>
      </trkpt>
      <trkpt lat="63.4109595" lon="10.46672467">
        <ele>149.049</ele>
        <time>1970-01-01T01:00:00Z</time>
      </trkpt>
      <trkpt lat="63.41095317" lon="10.46675667">
        <ele>149.354</ele>
        <time>1970-01-01T01:00:00Z</time>
      </trkpt>
      <trkpt lat="63.41094717" lon="10.46678783">
        <ele>149.354</ele>
        <time>1970-01-01T01:00:00Z</time>
      </trkpt>
      <trkpt lat="63.410941" lon="10.466818">
        <ele>149.506</ele>
        <time>1970-01-01T01:00:00Z</time>
      </trkpt>
      <trkpt lat="63.41093483" lon="10.46684733">
        <ele>149.506</ele>
        <time>1970-01-01T01:00:00Z</time>
      </trkpt>
      <trkpt lat="63.41092867" lon="10.46687667">
        <ele>149.659</ele>
        <time>1970-01-01T01:00:00Z</time>
      </trkpt>
      <trkpt lat="63.41092167" lon="10.4669055">
        <ele>149.659</ele>
        <time>1970-01-01T01:00:00Z</time>
      </trkpt>
      <trkpt lat="63.41091483" lon="10.46693417">
        <ele>149.963</ele>
        <time>1970-01-01T01:00:00Z</time>
      </trkpt>
      <trkpt lat="63.41090833" lon="10.466962">
        <ele>149.963</ele>
        <time>1970-01-01T01:00:00Z</time>
      </trkpt>
      <trkpt lat="63.41090217" lon="10.46699033">
        <ele>150.116</ele>
        <time>1970-01-01T01:00:00Z</time>
      </trkpt>
      <trkpt lat="63.41089617" lon="10.46701783">
        <ele>150.116</ele>
        <time>1970-01-01T01:00:00Z</time>
      </trkpt>
      <trkpt lat="63.41089067" lon="10.4670475">
        <ele>150.421</ele>
        <time>1970-01-01T01:00:00Z</time>
      </trkpt>
      <trkpt lat="63.41088483" lon="10.46707667">
        <ele>150.421</ele>
        <time>1970-01-01T01:00:00Z</time>
      </trkpt>
      <trkpt lat="63.4108785" lon="10.46710567">
        <ele>150.573</ele>
        <time>1970-01-01T01:00:00Z</time>
      </trkpt>
      <trkpt lat="63.4108715" lon="10.4671335">
        <ele>150.573</ele>
        <time>1970-01-01T01:00:00Z</time>
      </trkpt>
      <trkpt lat="63.41086517" lon="10.46716183">
        <ele>150.725</ele>
        <time>1970-01-01T01:00:00Z</time>
      </trkpt>
      <trkpt lat="63.410859" lon="10.46719017">
        <ele>150.725</ele>
        <time>1970-01-01T01:00:00Z</time>
      </trkpt>
      <trkpt lat="63.41085333" lon="10.46721817">
        <ele>151.03</ele>
        <time>1970-01-01T01:00:00Z</time>
      </trkpt>
      <trkpt lat="63.4108475" lon="10.467247">
        <ele>151.03</ele>
        <time>1970-01-01T01:00:00Z</time>
      </trkpt>
      <trkpt lat="63.41084133" lon="10.467276">
        <ele>151.183</ele>
        <time>1970-01-01T01:00:00Z</time>
      </trkpt>
      <trkpt lat="63.41083567" lon="10.46730717">
        <ele>151.183</ele>
        <time>1970-01-01T01:00:00Z</time>
      </trkpt>
      <trkpt lat="63.4108305" lon="10.467337">
        <ele>151.335</ele>
        <time>1970-01-01T01:00:00Z</time>
      </trkpt>
      <trkpt lat="63.4108265" lon="10.46736633">
        <ele>151.335</ele>
        <time>1970-01-01T01:00:00Z</time>
      </trkpt>
      <trkpt lat="63.41082133" lon="10.46739633">
        <ele>151.487</ele>
        <time>1970-01-01T01:00:00Z</time>
      </trkpt>
      <trkpt lat="63.410816" lon="10.46742667">
        <ele>151.487</ele>
        <time>1970-01-01T01:00:00Z</time>
      </trkpt>
      <trkpt lat="63.41081083" lon="10.46745983">
        <ele>151.64</ele>
        <time>1970-01-01T01:00:00Z</time>
      </trkpt>
      <trkpt lat="63.41080583" lon="10.46748983">
        <ele>151.64</ele>
        <time>1970-01-01T01:00:00Z</time>
      </trkpt>
      <trkpt lat="63.410802" lon="10.4675195">
        <ele>151.945</ele>
        <time>1970-01-01T01:00:00Z</time>
      </trkpt>
      <trkpt lat="63.41079567" lon="10.467549">
        <ele>151.945</ele>
        <time>1970-01-01T01:00:00Z</time>
      </trkpt>
      <trkpt lat="63.41078983" lon="10.46757767">
        <ele>152.097</ele>
        <time>1970-01-01T01:00:00Z</time>
      </trkpt>
      <trkpt lat="63.41078367" lon="10.46760733">
        <ele>152.097</ele>
        <time>1970-01-01T01:00:00Z</time>
      </trkpt>
      <trkpt lat="63.41077867" lon="10.46763583">
        <ele>152.402</ele>
        <time>1970-01-01T01:00:00Z</time>
      </trkpt>
      <trkpt lat="63.41077367" lon="10.467668">
        <ele>152.402</ele>
        <time>1970-01-01T01:00:00Z</time>
      </trkpt>
      <trkpt lat="63.41076883" lon="10.4677005">
        <ele>152.554</ele>
        <time>1970-01-01T01:00:00Z</time>
      </trkpt>
      <trkpt lat="63.4107655" lon="10.46773367">
        <ele>152.554</ele>
        <time>1970-01-01T01:00:00Z</time>
      </trkpt>
      <trkpt lat="63.41076133" lon="10.46776633">
        <ele>152.707</ele>
        <time>1970-01-01T01:00:00Z</time>
      </trkpt>
      <trkpt lat="63.41075533" lon="10.46779983">
        <ele>152.707</ele>
        <time>1970-01-01T01:00:00Z</time>
      </trkpt>
      <trkpt lat="63.4107475" lon="10.467832">
        <ele>152.859</ele>
        <time>1970-01-01T01:00:00Z</time>
      </trkpt>
      <trkpt lat="63.410739" lon="10.4678645">
        <ele>152.859</ele>
        <time>1970-01-01T01:00:00Z</time>
      </trkpt>
      <trkpt lat="63.41073067" lon="10.4678955">
        <ele>153.011</ele>
        <time>1970-01-01T01:00:00Z</time>
      </trkpt>
      <trkpt lat="63.410723" lon="10.46792733">
        <ele>153.011</ele>
        <time>1970-01-01T01:00:00Z</time>
      </trkpt>
      <trkpt lat="63.41071567" lon="10.467958">
        <ele>153.164</ele>
        <time>1970-01-01T01:00:00Z</time>
      </trkpt>
      <trkpt lat="63.41070933" lon="10.46798767">
        <ele>153.164</ele>
        <time>1970-01-01T01:00:00Z</time>
      </trkpt>
      <trkpt lat="63.41070417" lon="10.46801783">
        <ele>153.164</ele>
        <time>1970-01-01T01:00:00Z</time>
      </trkpt>
      <trkpt lat="63.41069883" lon="10.46805">
        <ele>153.164</ele>
        <time>1970-01-01T01:00:00Z</time>
      </trkpt>
      <trkpt lat="63.41069333" lon="10.46808033">
        <ele>153.316</ele>
        <time>1970-01-01T01:00:00Z</time>
      </trkpt>
      <trkpt lat="63.410688" lon="10.46811417">
        <ele>153.316</ele>
        <time>1970-01-01T01:00:00Z</time>
      </trkpt>
      <trkpt lat="63.41068433" lon="10.46814767">
        <ele>153.316</ele>
        <time>1970-01-01T01:00:00Z</time>
      </trkpt>
      <trkpt lat="63.410679" lon="10.46818783">
        <ele>153.316</ele>
        <time>1970-01-01T01:00:00Z</time>
      </trkpt>
      <trkpt lat="63.41067133" lon="10.4682275">
        <ele>153.469</ele>
        <time>1970-01-01T01:00:00Z</time>
      </trkpt>
      <trkpt lat="63.41066383" lon="10.46826683">
        <ele>153.469</ele>
        <time>1970-01-01T01:00:00Z</time>
      </trkpt>
      <trkpt lat="63.41065667" lon="10.46830283">
        <ele>153.621</ele>
        <time>1970-01-01T01:00:00Z</time>
      </trkpt>
      <trkpt lat="63.41065083" lon="10.46833583">
        <ele>153.621</ele>
        <time>1970-01-01T01:00:00Z</time>
      </trkpt>
      <trkpt lat="63.410646" lon="10.46836417">
        <ele>153.773</ele>
        <time>1970-01-01T01:00:00Z</time>
      </trkpt>
      <trkpt lat="63.41064167" lon="10.46839167">
        <ele>153.773</ele>
        <time>1970-01-01T01:00:00Z</time>
      </trkpt>
      <trkpt lat="63.41063767" lon="10.46841867">
        <ele>153.773</ele>
        <time>1970-01-01T01:00:00Z</time>
      </trkpt>
      <trkpt lat="63.41063117" lon="10.46844983">
        <ele>153.773</ele>
        <time>1970-01-01T01:00:00Z</time>
      </trkpt>
      <trkpt lat="63.4106255" lon="10.4684825">
        <ele>153.926</ele>
        <time>1970-01-01T01:00:00Z</time>
      </trkpt>
      <trkpt lat="63.41061967" lon="10.468517">
        <ele>153.926</ele>
        <time>1970-01-01T01:00:00Z</time>
      </trkpt>
      <trkpt lat="63.41061483" lon="10.46855233">
        <ele>154.078</ele>
        <time>1970-01-01T01:00:00Z</time>
      </trkpt>
      <trkpt lat="63.4106085" lon="10.46858633">
        <ele>154.078</ele>
        <time>1970-01-01T01:00:00Z</time>
      </trkpt>
      <trkpt lat="63.41060217" lon="10.468618">
        <ele>154.231</ele>
        <time>1970-01-01T01:00:00Z</time>
      </trkpt>
      <trkpt lat="63.4105965" lon="10.46864817">
        <ele>154.231</ele>
        <time>1970-01-01T01:00:00Z</time>
      </trkpt>
      <trkpt lat="63.41059133" lon="10.46867983">
        <ele>154.231</ele>
        <time>1970-01-01T01:00:00Z</time>
      </trkpt>
      <trkpt lat="63.41058667" lon="10.46871">
        <ele>154.231</ele>
        <time>1970-01-01T01:00:00Z</time>
      </trkpt>
      <trkpt lat="63.41058233" lon="10.46873983">
        <ele>154.383</ele>
        <time>1970-01-01T01:00:00Z</time>
      </trkpt>
      <trkpt lat="63.4105775" lon="10.46876933">
        <ele>154.383</ele>
        <time>1970-01-01T01:00:00Z</time>
      </trkpt>
      <trkpt lat="63.410572" lon="10.46880117">
        <ele>154.383</ele>
        <time>1970-01-01T01:00:00Z</time>
      </trkpt>
      <trkpt lat="63.4105665" lon="10.46883467">
        <ele>154.383</ele>
        <time>1970-01-01T01:00:00Z</time>
      </trkpt>
      <trkpt lat="63.41056183" lon="10.46886917">
        <ele>154.535</ele>
        <time>1970-01-01T01:00:00Z</time>
      </trkpt>
      <trkpt lat="63.410557" lon="10.46890417">
        <ele>154.535</ele>
        <time>1970-01-01T01:00:00Z</time>
      </trkpt>
      <trkpt lat="63.41055167" lon="10.46893667">
        <ele>154.535</ele>
        <time>1970-01-01T01:00:00Z</time>
      </trkpt>
      <trkpt lat="63.410546" lon="10.46896983">
        <ele>154.535</ele>
        <time>1970-01-01T01:00:00Z</time>
      </trkpt>
      <trkpt lat="63.41054117" lon="10.46900333">
        <ele>154.688</ele>
        <time>1970-01-01T01:00:00Z</time>
      </trkpt>
      <trkpt lat="63.4105365" lon="10.46904017">
        <ele>154.688</ele>
        <time>1970-01-01T01:00:00Z</time>
      </trkpt>
      <trkpt lat="63.41053117" lon="10.469077">
        <ele>154.688</ele>
        <time>1970-01-01T01:00:00Z</time>
      </trkpt>
      <trkpt lat="63.41052533" lon="10.4691155">
        <ele>154.688</ele>
        <time>1970-01-01T01:00:00Z</time>
      </trkpt>
      <trkpt lat="63.41051983" lon="10.4691525">
        <ele>154.688</ele>
        <time>1970-01-01T01:00:00Z</time>
      </trkpt>
      <trkpt lat="63.41051417" lon="10.46918983">
        <ele>154.688</ele>
        <time>1970-01-01T01:00:00Z</time>
      </trkpt>
      <trkpt lat="63.41050883" lon="10.46922533">
        <ele>154.84</ele>
        <time>1970-01-01T01:00:00Z</time>
      </trkpt>
      <trkpt lat="63.4105035" lon="10.469262">
        <ele>154.84</ele>
        <time>1970-01-01T01:00:00Z</time>
      </trkpt>
      <trkpt lat="63.41049967" lon="10.46929767">
        <ele>154.84</ele>
        <time>1970-01-01T01:00:00Z</time>
      </trkpt>
      <trkpt lat="63.41049733" lon="10.46933317">
        <ele>154.84</ele>
        <time>1970-01-01T01:00:00Z</time>
      </trkpt>
      <trkpt lat="63.41049433" lon="10.46936783">
        <ele>154.84</ele>
        <time>1970-01-01T01:00:00Z</time>
      </trkpt>
      <trkpt lat="63.41049033" lon="10.4694025">
        <ele>154.84</ele>
        <time>1970-01-01T01:00:00Z</time>
      </trkpt>
      <trkpt lat="63.41048583" lon="10.469437">
        <ele>154.993</ele>
        <time>1970-01-01T01:00:00Z</time>
      </trkpt>
      <trkpt lat="63.41048183" lon="10.4694715">
        <ele>154.993</ele>
        <time>1970-01-01T01:00:00Z</time>
      </trkpt>
      <trkpt lat="63.41047817" lon="10.46950283">
        <ele>154.993</ele>
        <time>1970-01-01T01:00:00Z</time>
      </trkpt>
      <trkpt lat="63.41047433" lon="10.46953333">
        <ele>154.993</ele>
        <time>1970-01-01T01:00:00Z</time>
      </trkpt>
      <trkpt lat="63.41047033" lon="10.469562">
        <ele>155.145</ele>
        <time>1970-01-01T01:00:00Z</time>
      </trkpt>
      <trkpt lat="63.41046567" lon="10.4695905">
        <ele>155.145</ele>
        <time>1970-01-01T01:00:00Z</time>
      </trkpt>
      <trkpt lat="63.41046133" lon="10.46962067">
        <ele>155.297</ele>
        <time>1970-01-01T01:00:00Z</time>
      </trkpt>
      <trkpt lat="63.41045783" lon="10.469651">
        <ele>155.297</ele>
        <time>1970-01-01T01:00:00Z</time>
      </trkpt>
      <trkpt lat="63.41045417" lon="10.46968367">
        <ele>155.297</ele>
        <time>1970-01-01T01:00:00Z</time>
      </trkpt>
      <trkpt lat="63.41045083" lon="10.4697135">
        <ele>155.297</ele>
        <time>1970-01-01T01:00:00Z</time>
      </trkpt>
      <trkpt lat="63.41044817" lon="10.46974333">
        <ele>155.45</ele>
        <time>1970-01-01T01:00:00Z</time>
      </trkpt>
      <trkpt lat="63.4104475" lon="10.46977217">
        <ele>155.45</ele>
        <time>1970-01-01T01:00:00Z</time>
      </trkpt>
      <trkpt lat="63.41044833" lon="10.46980067">
        <ele>155.45</ele>
        <time>1970-01-01T01:00:00Z</time>
      </trkpt>
      <trkpt lat="63.41045083" lon="10.4698255">
        <ele>155.45</ele>
        <time>1970-01-01T01:00:00Z</time>
      </trkpt>
      <trkpt lat="63.41045567" lon="10.469848">
        <ele>155.602</ele>
        <time>1970-01-01T01:00:00Z</time>
      </trkpt>
      <trkpt lat="63.41046333" lon="10.46986883">
        <ele>155.602</ele>
        <time>1970-01-01T01:00:00Z</time>
      </trkpt>
      <trkpt lat="63.410472" lon="10.46989">
        <ele>155.602</ele>
        <time>1970-01-01T01:00:00Z</time>
      </trkpt>
      <trkpt lat="63.410481" lon="10.46991183">
        <ele>155.602</ele>
        <time>1970-01-01T01:00:00Z</time>
      </trkpt>
      <trkpt lat="63.41048933" lon="10.46993483">
        <ele>155.602</ele>
        <time>1970-01-01T01:00:00Z</time>
      </trkpt>
      <trkpt lat="63.410499" lon="10.46995683">
        <ele>155.602</ele>
        <time>1970-01-01T01:00:00Z</time>
      </trkpt>
      <trkpt lat="63.41050917" lon="10.4699785">
        <ele>155.602</ele>
        <time>1970-01-01T01:00:00Z</time>
      </trkpt>
      <trkpt lat="63.41052033" lon="10.46999817">
        <ele>155.602</ele>
        <time>1970-01-01T01:00:00Z</time>
      </trkpt>
      <trkpt lat="63.41053183" lon="10.47001967">
        <ele>155.602</ele>
        <time>1970-01-01T01:00:00Z</time>
      </trkpt>
      <trkpt lat="63.41054333" lon="10.47004033">
        <ele>155.602</ele>
        <time>1970-01-01T01:00:00Z</time>
      </trkpt>
      <trkpt lat="63.41055383" lon="10.47006067">
        <ele>155.602</ele>
        <time>1970-01-01T01:00:00Z</time>
      </trkpt>
      <trkpt lat="63.4105625" lon="10.4700765">
        <ele>155.602</ele>
        <time>1970-01-01T01:00:00Z</time>
      </trkpt>
      <trkpt lat="63.41057167" lon="10.47009067">
        <ele>155.602</ele>
        <time>1970-01-01T01:00:00Z</time>
      </trkpt>
      <trkpt lat="63.41058133" lon="10.47010083">
        <ele>155.602</ele>
        <time>1970-01-01T01:00:00Z</time>
      </trkpt>
      <trkpt lat="63.410593" lon="10.47010667">
        <ele>155.602</ele>
        <time>1970-01-01T01:00:00Z</time>
      </trkpt>
      <trkpt lat="63.410605" lon="10.4701075">
        <ele>155.602</ele>
        <time>1970-01-01T01:00:00Z</time>
      </trkpt>
      <trkpt lat="63.4106175" lon="10.470109">
        <ele>155.602</ele>
        <time>1970-01-01T01:00:00Z</time>
      </trkpt>
      <trkpt lat="63.41062917" lon="10.47011433">
        <ele>155.602</ele>
        <time>1970-01-01T01:00:00Z</time>
      </trkpt>
      <trkpt lat="63.41064083" lon="10.47012217">
        <ele>155.45</ele>
        <time>1970-01-01T01:00:00Z</time>
      </trkpt>
      <trkpt lat="63.410653" lon="10.47012783">
        <ele>155.45</ele>
        <time>1970-01-01T01:00:00Z</time>
      </trkpt>
      <trkpt lat="63.41066533" lon="10.47013183">
        <ele>155.45</ele>
        <time>1970-01-01T01:00:00Z</time>
      </trkpt>
      <trkpt lat="63.41067683" lon="10.470136">
        <ele>155.45</ele>
        <time>1970-01-01T01:00:00Z</time>
      </trkpt>
      <trkpt lat="63.41068783" lon="10.470142">
        <ele>155.297</ele>
        <time>1970-01-01T01:00:00Z</time>
      </trkpt>
      <trkpt lat="63.41069817" lon="10.4701485">
        <ele>155.297</ele>
        <time>1970-01-01T01:00:00Z</time>
      </trkpt>
      <trkpt lat="63.41070933" lon="10.4701555">
        <ele>155.145</ele>
        <time>1970-01-01T01:00:00Z</time>
      </trkpt>
      <trkpt lat="63.41072383" lon="10.47016583">
        <ele>155.145</ele>
        <time>1970-01-01T01:00:00Z</time>
      </trkpt>
      <trkpt lat="63.41073867" lon="10.4701745">
        <ele>154.993</ele>
        <time>1970-01-01T01:00:00Z</time>
      </trkpt>
      <trkpt lat="63.41075317" lon="10.47018433">
        <ele>154.993</ele>
        <time>1970-01-01T01:00:00Z</time>
      </trkpt>
      <trkpt lat="63.41076683" lon="10.47019333">
        <ele>154.84</ele>
        <time>1970-01-01T01:00:00Z</time>
      </trkpt>
      <trkpt lat="63.4107815" lon="10.47020317">
        <ele>154.84</ele>
        <time>1970-01-01T01:00:00Z</time>
      </trkpt>
      <trkpt lat="63.41079717" lon="10.470213">
        <ele>154.84</ele>
        <time>1970-01-01T01:00:00Z</time>
      </trkpt>
      <trkpt lat="63.4108115" lon="10.47021967">
        <ele>154.84</ele>
        <time>1970-01-01T01:00:00Z</time>
      </trkpt>
      <trkpt lat="63.41082683" lon="10.47022833">
        <ele>154.688</ele>
        <time>1970-01-01T01:00:00Z</time>
      </trkpt>
      <trkpt lat="63.41084167" lon="10.470235">
        <ele>154.688</ele>
        <time>1970-01-01T01:00:00Z</time>
      </trkpt>
      <trkpt lat="63.41085717" lon="10.47024217">
        <ele>154.535</ele>
        <time>1970-01-01T01:00:00Z</time>
      </trkpt>
      <trkpt lat="63.41087183" lon="10.4702525">
        <ele>154.535</ele>
        <time>1970-01-01T01:00:00Z</time>
      </trkpt>
      <trkpt lat="63.41088633" lon="10.47026633">
        <ele>154.383</ele>
        <time>1970-01-01T01:00:00Z</time>
      </trkpt>
      <trkpt lat="63.4109025" lon="10.470285">
        <ele>154.383</ele>
        <time>1970-01-01T01:00:00Z</time>
      </trkpt>
      <trkpt lat="63.41092017" lon="10.47030467">
        <ele>154.231</ele>
        <time>1970-01-01T01:00:00Z</time>
      </trkpt>
      <trkpt lat="63.41093817" lon="10.47032583">
        <ele>154.231</ele>
        <time>1970-01-01T01:00:00Z</time>
      </trkpt>
      <trkpt lat="63.410953" lon="10.47034667">
        <ele>154.231</ele>
        <time>1970-01-01T01:00:00Z</time>
      </trkpt>
      <trkpt lat="63.41096667" lon="10.47036433">
        <ele>154.231</ele>
        <time>1970-01-01T01:00:00Z</time>
      </trkpt>
      <trkpt lat="63.41098083" lon="10.4703835">
        <ele>154.078</ele>
        <time>1970-01-01T01:00:00Z</time>
      </trkpt>
      <trkpt lat="63.41099633" lon="10.47040133">
        <ele>154.078</ele>
        <time>1970-01-01T01:00:00Z</time>
      </trkpt>
      <trkpt lat="63.4110105" lon="10.470422">
        <ele>153.926</ele>
        <time>1970-01-01T01:00:00Z</time>
      </trkpt>
      <trkpt lat="63.41102383" lon="10.47044067">
        <ele>153.926</ele>
        <time>1970-01-01T01:00:00Z</time>
      </trkpt>
      <trkpt lat="63.4110365" lon="10.470459">
        <ele>153.926</ele>
        <time>1970-01-01T01:00:00Z</time>
      </trkpt>
      <trkpt lat="63.411049" lon="10.470476">
        <ele>153.926</ele>
        <time>1970-01-01T01:00:00Z</time>
      </trkpt>
      <trkpt lat="63.41106117" lon="10.47049417">
        <ele>153.926</ele>
        <time>1970-01-01T01:00:00Z</time>
      </trkpt>
      <trkpt lat="63.41107367" lon="10.47051383">
        <ele>153.926</ele>
        <time>1970-01-01T01:00:00Z</time>
      </trkpt>
      <trkpt lat="63.411086" lon="10.4705355">
        <ele>153.773</ele>
        <time>1970-01-01T01:00:00Z</time>
      </trkpt>
      <trkpt lat="63.4110985" lon="10.47055733">
        <ele>153.773</ele>
        <time>1970-01-01T01:00:00Z</time>
      </trkpt>
      <trkpt lat="63.41111133" lon="10.47058033">
        <ele>153.773</ele>
        <time>1970-01-01T01:00:00Z</time>
      </trkpt>
      <trkpt lat="63.411126" lon="10.47060183">
        <ele>153.773</ele>
        <time>1970-01-01T01:00:00Z</time>
      </trkpt>
      <trkpt lat="63.41114117" lon="10.47062383">
        <ele>153.621</ele>
        <time>1970-01-01T01:00:00Z</time>
      </trkpt>
      <trkpt lat="63.411155" lon="10.4706475">
        <ele>153.621</ele>
        <time>1970-01-01T01:00:00Z</time>
      </trkpt>
      <trkpt lat="63.4111675" lon="10.4706705">
        <ele>153.621</ele>
        <time>1970-01-01T01:00:00Z</time>
      </trkpt>
      <trkpt lat="63.41118033" lon="10.470693">
        <ele>153.621</ele>
        <time>1970-01-01T01:00:00Z</time>
      </trkpt>
      <trkpt lat="63.41119417" lon="10.4707105">
        <ele>153.469</ele>
        <time>1970-01-01T01:00:00Z</time>
      </trkpt>
      <trkpt lat="63.41120733" lon="10.47072917">
        <ele>153.469</ele>
        <time>1970-01-01T01:00:00Z</time>
      </trkpt>
      <trkpt lat="63.41122" lon="10.47074567">
        <ele>153.469</ele>
        <time>1970-01-01T01:00:00Z</time>
      </trkpt>
      <trkpt lat="63.41123217" lon="10.47076333">
        <ele>153.469</ele>
        <time>1970-01-01T01:00:00Z</time>
      </trkpt>
      <trkpt lat="63.41124533" lon="10.47078017">
        <ele>153.316</ele>
        <time>1970-01-01T01:00:00Z</time>
      </trkpt>
      <trkpt lat="63.41125883" lon="10.47079717">
        <ele>153.316</ele>
        <time>1970-01-01T01:00:00Z</time>
      </trkpt>
      <trkpt lat="63.41127267" lon="10.47081383">
        <ele>153.316</ele>
        <time>1970-01-01T01:00:00Z</time>
      </trkpt>
      <trkpt lat="63.411286" lon="10.47083133">
        <ele>153.316</ele>
        <time>1970-01-01T01:00:00Z</time>
      </trkpt>
      <trkpt lat="63.4112995" lon="10.47084967">
        <ele>153.164</ele>
        <time>1970-01-01T01:00:00Z</time>
      </trkpt>
      <trkpt lat="63.411312" lon="10.47086967">
        <ele>153.164</ele>
        <time>1970-01-01T01:00:00Z</time>
      </trkpt>
      <trkpt lat="63.41132483" lon="10.470887">
        <ele>153.164</ele>
        <time>1970-01-01T01:00:00Z</time>
      </trkpt>
      <trkpt lat="63.41133767" lon="10.47090433">
        <ele>153.164</ele>
        <time>1970-01-01T01:00:00Z</time>
      </trkpt>
      <trkpt lat="63.41135067" lon="10.47091983">
        <ele>153.011</ele>
        <time>1970-01-01T01:00:00Z</time>
      </trkpt>
      <trkpt lat="63.41136317" lon="10.47093733">
        <ele>153.011</ele>
        <time>1970-01-01T01:00:00Z</time>
      </trkpt>
      <trkpt lat="63.41137567" lon="10.47095467">
        <ele>152.859</ele>
        <time>1970-01-01T01:00:00Z</time>
      </trkpt>
      <trkpt lat="63.41138917" lon="10.47097333">
        <ele>152.859</ele>
        <time>1970-01-01T01:00:00Z</time>
      </trkpt>
      <trkpt lat="63.4114025" lon="10.47099233">
        <ele>152.859</ele>
        <time>1970-01-01T01:00:00Z</time>
      </trkpt>
      <trkpt lat="63.41141583" lon="10.47101183">
        <ele>152.859</ele>
        <time>1970-01-01T01:00:00Z</time>
      </trkpt>
      <trkpt lat="63.41142833" lon="10.47103">
        <ele>152.707</ele>
        <time>1970-01-01T01:00:00Z</time>
      </trkpt>
      <trkpt lat="63.4114415" lon="10.47104633">
        <ele>152.707</ele>
        <time>1970-01-01T01:00:00Z</time>
      </trkpt>
      <trkpt lat="63.41145367" lon="10.47106217">
        <ele>152.707</ele>
        <time>1970-01-01T01:00:00Z</time>
      </trkpt>
      <trkpt lat="63.41146683" lon="10.47107767">
        <ele>152.707</ele>
        <time>1970-01-01T01:00:00Z</time>
      </trkpt>
      <trkpt lat="63.41147933" lon="10.471094">
        <ele>152.707</ele>
        <time>1970-01-01T01:00:00Z</time>
      </trkpt>
      <trkpt lat="63.41149317" lon="10.47111033">
        <ele>152.707</ele>
        <time>1970-01-01T01:00:00Z</time>
      </trkpt>
      <trkpt lat="63.411507" lon="10.47112483">
        <ele>152.554</ele>
        <time>1970-01-01T01:00:00Z</time>
      </trkpt>
      <trkpt lat="63.411522" lon="10.47114">
        <ele>152.554</ele>
        <time>1970-01-01T01:00:00Z</time>
      </trkpt>
      <trkpt lat="63.4115375" lon="10.4711535">
        <ele>152.554</ele>
        <time>1970-01-01T01:00:00Z</time>
      </trkpt>
      <trkpt lat="63.41155267" lon="10.47116683">
        <ele>152.554</ele>
        <time>1970-01-01T01:00:00Z</time>
      </trkpt>
      <trkpt lat="63.41156667" lon="10.47117983">
        <ele>152.554</ele>
        <time>1970-01-01T01:00:00Z</time>
      </trkpt>
      <trkpt lat="63.41157917" lon="10.471195">
        <ele>152.554</ele>
        <time>1970-01-01T01:00:00Z</time>
      </trkpt>
      <trkpt lat="63.41159183" lon="10.471212">
        <ele>152.554</ele>
        <time>1970-01-01T01:00:00Z</time>
      </trkpt>
      <trkpt lat="63.41160483" lon="10.47122967">
        <ele>152.554</ele>
        <time>1970-01-01T01:00:00Z</time>
      </trkpt>
      <trkpt lat="63.411619" lon="10.471249">
        <ele>152.402</ele>
        <time>1970-01-01T01:00:00Z</time>
      </trkpt>
      <trkpt lat="63.4116335" lon="10.47126983">
        <ele>152.402</ele>
        <time>1970-01-01T01:00:00Z</time>
      </trkpt>
      <trkpt lat="63.411647" lon="10.47129083">
        <ele>152.402</ele>
        <time>1970-01-01T01:00:00Z</time>
      </trkpt>
      <trkpt lat="63.41166" lon="10.47131083">
        <ele>152.402</ele>
        <time>1970-01-01T01:00:00Z</time>
      </trkpt>
      <trkpt lat="63.41167167" lon="10.47133">
        <ele>152.402</ele>
        <time>1970-01-01T01:00:00Z</time>
      </trkpt>
      <trkpt lat="63.41168417" lon="10.47134833">
        <ele>152.402</ele>
        <time>1970-01-01T01:00:00Z</time>
      </trkpt>
      <trkpt lat="63.4116965" lon="10.47136417">
        <ele>152.249</ele>
        <time>1970-01-01T01:00:00Z</time>
      </trkpt>
      <trkpt lat="63.41171017" lon="10.4713795">
        <ele>152.249</ele>
        <time>1970-01-01T01:00:00Z</time>
      </trkpt>
      <trkpt lat="63.41172367" lon="10.47139367">
        <ele>152.249</ele>
        <time>1970-01-01T01:00:00Z</time>
      </trkpt>
      <trkpt lat="63.41173783" lon="10.4714075">
        <ele>152.249</ele>
        <time>1970-01-01T01:00:00Z</time>
      </trkpt>
      <trkpt lat="63.411752" lon="10.4714195">
        <ele>152.249</ele>
        <time>1970-01-01T01:00:00Z</time>
      </trkpt>
      <trkpt lat="63.41176517" lon="10.47143417">
        <ele>152.249</ele>
        <time>1970-01-01T01:00:00Z</time>
      </trkpt>
      <trkpt lat="63.41177767" lon="10.47144967">
        <ele>152.097</ele>
        <time>1970-01-01T01:00:00Z</time>
      </trkpt>
      <trkpt lat="63.41178833" lon="10.47147033">
        <ele>152.097</ele>
        <time>1970-01-01T01:00:00Z</time>
      </trkpt>
      <trkpt lat="63.4118" lon="10.47149217">
        <ele>152.097</ele>
        <time>1970-01-01T01:00:00Z</time>
      </trkpt>
      <trkpt lat="63.41181067" lon="10.47151433">
        <ele>152.097</ele>
        <time>1970-01-01T01:00:00Z</time>
      </trkpt>
      <trkpt lat="63.411822" lon="10.47153617">
        <ele>152.097</ele>
        <time>1970-01-01T01:00:00Z</time>
      </trkpt>
      <trkpt lat="63.41183033" lon="10.4715615">
        <ele>152.097</ele>
        <time>1970-01-01T01:00:00Z</time>
      </trkpt>
      <trkpt lat="63.41183733" lon="10.47158967">
        <ele>152.097</ele>
        <time>1970-01-01T01:00:00Z</time>
      </trkpt>
      <trkpt lat="63.41184433" lon="10.47161617">
        <ele>152.097</ele>
        <time>1970-01-01T01:00:00Z</time>
      </trkpt>
      <trkpt lat="63.411851" lon="10.47163733">
        <ele>152.097</ele>
        <time>1970-01-01T01:00:00Z</time>
      </trkpt>
      <trkpt lat="63.4118605" lon="10.47165783">
        <ele>152.097</ele>
        <time>1970-01-01T01:00:00Z</time>
      </trkpt>
      <trkpt lat="63.41187283" lon="10.471677">
        <ele>152.097</ele>
        <time>1970-01-01T01:00:00Z</time>
      </trkpt>
      <trkpt lat="63.41188767" lon="10.4716985">
        <ele>152.097</ele>
        <time>1970-01-01T01:00:00Z</time>
      </trkpt>
      <trkpt lat="63.41190033" lon="10.47172033">
        <ele>152.097</ele>
        <time>1970-01-01T01:00:00Z</time>
      </trkpt>
      <trkpt lat="63.41191133" lon="10.47174317">
        <ele>152.097</ele>
        <time>1970-01-01T01:00:00Z</time>
      </trkpt>
      <trkpt lat="63.4119215" lon="10.47176417">
        <ele>151.945</ele>
        <time>1970-01-01T01:00:00Z</time>
      </trkpt>
      <trkpt lat="63.41193483" lon="10.4717835">
        <ele>151.945</ele>
        <time>1970-01-01T01:00:00Z</time>
      </trkpt>
      <trkpt lat="63.41194833" lon="10.4717995">
        <ele>151.945</ele>
        <time>1970-01-01T01:00:00Z</time>
      </trkpt>
      <trkpt lat="63.41196317" lon="10.471812">
        <ele>151.945</ele>
        <time>1970-01-01T01:00:00Z</time>
      </trkpt>
      <trkpt lat="63.41197683" lon="10.47182183">
        <ele>151.945</ele>
        <time>1970-01-01T01:00:00Z</time>
      </trkpt>
      <trkpt lat="63.41198983" lon="10.47182933">
        <ele>151.945</ele>
        <time>1970-01-01T01:00:00Z</time>
      </trkpt>
      <trkpt lat="63.41200283" lon="10.4718335">
        <ele>151.945</ele>
        <time>1970-01-01T01:00:00Z</time>
      </trkpt>
      <trkpt lat="63.4120155" lon="10.47183467">
        <ele>151.945</ele>
        <time>1970-01-01T01:00:00Z</time>
      </trkpt>
      <trkpt lat="63.41202917" lon="10.4718325">
        <ele>151.945</ele>
        <time>1970-01-01T01:00:00Z</time>
      </trkpt>
      <trkpt lat="63.4120425" lon="10.471829">
        <ele>151.945</ele>
        <time>1970-01-01T01:00:00Z</time>
      </trkpt>
      <trkpt lat="63.41205633" lon="10.4718255">
        <ele>151.945</ele>
        <time>1970-01-01T01:00:00Z</time>
      </trkpt>
      <trkpt lat="63.41207033" lon="10.47182133">
        <ele>151.945</ele>
        <time>1970-01-01T01:00:00Z</time>
      </trkpt>
      <trkpt lat="63.41208417" lon="10.471819">
        <ele>151.792</ele>
        <time>1970-01-01T01:00:00Z</time>
      </trkpt>
      <trkpt lat="63.41209883" lon="10.4718155">
        <ele>151.792</ele>
        <time>1970-01-01T01:00:00Z</time>
      </trkpt>
      <trkpt lat="63.41211217" lon="10.47181417">
        <ele>151.792</ele>
        <time>1970-01-01T01:00:00Z</time>
      </trkpt>
      <trkpt lat="63.41212733" lon="10.47181283">
        <ele>151.792</ele>
        <time>1970-01-01T01:00:00Z</time>
      </trkpt>
      <trkpt lat="63.41214183" lon="10.47181017">
        <ele>151.792</ele>
        <time>1970-01-01T01:00:00Z</time>
      </trkpt>
      <trkpt lat="63.412157" lon="10.471805">
        <ele>151.792</ele>
        <time>1970-01-01T01:00:00Z</time>
      </trkpt>
      <trkpt lat="63.41217083" lon="10.47179717">
        <ele>151.792</ele>
        <time>1970-01-01T01:00:00Z</time>
      </trkpt>
      <trkpt lat="63.41218417" lon="10.4717925">
        <ele>151.792</ele>
        <time>1970-01-01T01:00:00Z</time>
      </trkpt>
      <trkpt lat="63.41219617" lon="10.47179183">
        <ele>151.64</ele>
        <time>1970-01-01T01:00:00Z</time>
      </trkpt>
      <trkpt lat="63.41220867" lon="10.47179383">
        <ele>151.64</ele>
        <time>1970-01-01T01:00:00Z</time>
      </trkpt>
      <trkpt lat="63.41222183" lon="10.4717955">
        <ele>151.64</ele>
        <time>1970-01-01T01:00:00Z</time>
      </trkpt>
      <trkpt lat="63.41223533" lon="10.47179767">
        <ele>151.64</ele>
        <time>1970-01-01T01:00:00Z</time>
      </trkpt>
      <trkpt lat="63.412249" lon="10.47179967">
        <ele>151.487</ele>
        <time>1970-01-01T01:00:00Z</time>
      </trkpt>
      <trkpt lat="63.412262" lon="10.4718015">
        <ele>151.487</ele>
        <time>1970-01-01T01:00:00Z</time>
      </trkpt>
      <trkpt lat="63.41227567" lon="10.4718005">
        <ele>151.487</ele>
        <time>1970-01-01T01:00:00Z</time>
      </trkpt>
      <trkpt lat="63.41228867" lon="10.4717995">
        <ele>151.487</ele>
        <time>1970-01-01T01:00:00Z</time>
      </trkpt>
      <trkpt lat="63.41230283" lon="10.47179717">
        <ele>151.335</ele>
        <time>1970-01-01T01:00:00Z</time>
      </trkpt>
      <trkpt lat="63.41231733" lon="10.47179383">
        <ele>151.335</ele>
        <time>1970-01-01T01:00:00Z</time>
      </trkpt>
      <trkpt lat="63.412332" lon="10.4717895">
        <ele>151.183</ele>
        <time>1970-01-01T01:00:00Z</time>
      </trkpt>
      <trkpt lat="63.4123465" lon="10.47178583">
        <ele>151.183</ele>
        <time>1970-01-01T01:00:00Z</time>
      </trkpt>
      <trkpt lat="63.4123615" lon="10.4717835">
        <ele>151.183</ele>
        <time>1970-01-01T01:00:00Z</time>
      </trkpt>
      <trkpt lat="63.41237683" lon="10.471784">
        <ele>151.183</ele>
        <time>1970-01-01T01:00:00Z</time>
      </trkpt>
      <trkpt lat="63.412392" lon="10.47178667">
        <ele>151.03</ele>
        <time>1970-01-01T01:00:00Z</time>
      </trkpt>
      <trkpt lat="63.412407" lon="10.4717925">
        <ele>151.03</ele>
        <time>1970-01-01T01:00:00Z</time>
      </trkpt>
      <trkpt lat="63.412422" lon="10.4718005">
        <ele>150.878</ele>
        <time>1970-01-01T01:00:00Z</time>
      </trkpt>
      <trkpt lat="63.41243517" lon="10.4718135">
        <ele>150.878</ele>
        <time>1970-01-01T01:00:00Z</time>
      </trkpt>
      <trkpt lat="63.41244317" lon="10.4718355">
        <ele>150.878</ele>
        <time>1970-01-01T01:00:00Z</time>
      </trkpt>
      <trkpt lat="63.412447" lon="10.47186133">
        <ele>150.878</ele>
        <time>1970-01-01T01:00:00Z</time>
      </trkpt>
      <trkpt lat="63.4124485" lon="10.47188633">
        <ele>150.725</ele>
        <time>1970-01-01T01:00:00Z</time>
      </trkpt>
      <trkpt lat="63.412451" lon="10.47190633">
        <ele>150.725</ele>
        <time>1970-01-01T01:00:00Z</time>
      </trkpt>
      <trkpt lat="63.41245333" lon="10.471925">
        <ele>150.573</ele>
        <time>1970-01-01T01:00:00Z</time>
      </trkpt>
      <trkpt lat="63.41245417" lon="10.47194083">
        <ele>150.573</ele>
        <time>1970-01-01T01:00:00Z</time>
      </trkpt>
      <trkpt lat="63.41245417" lon="10.47194883">
        <ele>150.268</ele>
        <time>1970-01-01T01:00:00Z</time>
      </trkpt>
      <trkpt lat="63.41245317" lon="10.47195167">
        <ele>150.268</ele>
        <time>1970-01-01T01:00:00Z</time>
      </trkpt>
      <trkpt lat="63.41245367" lon="10.471951">
        <ele>150.116</ele>
        <time>1970-01-01T01:00:00Z</time>
      </trkpt>
      <trkpt lat="63.41245467" lon="10.47195317">
        <ele>150.116</ele>
        <time>1970-01-01T01:00:00Z</time>
      </trkpt>
      <trkpt lat="63.41245617" lon="10.47195517">
        <ele>149.963</ele>
        <time>1970-01-01T01:00:00Z</time>
      </trkpt>
      <trkpt lat="63.4124575" lon="10.47195817">
        <ele>149.963</ele>
        <time>1970-01-01T01:00:00Z</time>
      </trkpt>
      <trkpt lat="63.4124595" lon="10.47196067">
        <ele>149.811</ele>
        <time>1970-01-01T01:00:00Z</time>
      </trkpt>
      <trkpt lat="63.4124615" lon="10.471963">
        <ele>149.811</ele>
        <time>1970-01-01T01:00:00Z</time>
      </trkpt>
      <trkpt lat="63.412463" lon="10.47196433">
        <ele>149.659</ele>
        <time>1970-01-01T01:00:00Z</time>
      </trkpt>
      <trkpt lat="63.412464" lon="10.471965">
        <ele>149.659</ele>
        <time>1970-01-01T01:00:00Z</time>
      </trkpt>
      <trkpt lat="63.41246467" lon="10.4719655">
        <ele>149.506</ele>
        <time>1970-01-01T01:00:00Z</time>
      </trkpt>
    </trkseg>
  </trk>
</gpx>